<?xml version='1.0' encoding='UTF-8'?><gpx version="1.1" creator="JPX - https://github.com/jenetics/jpx" xmlns="http://www.topografix.com/GPX/1/1"><trk><trkseg><trkpt lat="43.8979818" lon="12.9112611"><ele>7.0</ele><time>2026-04-19T08:25:02.502Z</time></trkpt><trkpt lat="43.8980438" lon="12.9112089"><ele>7.0</ele><time>2026-04-19T08:27:15.594Z</time></trkpt><trkpt lat="43.898062" lon="12.9111239"><ele>7.0</ele><time>2026-04-19T08:27:37.471Z</time></trkpt><trkpt lat="43.8976051" lon="12.9106808"><ele>7.0</ele><time>2026-04-19T08:29:29.481Z</time></trkpt><trkpt lat="43.8975435" lon="12.9106462"><ele>7.0</ele><time>2026-04-19T08:29:32.478Z</time></trkpt><trkpt lat="43.8974621" lon="12.9106893"><ele>7.0</ele><time>2026-04-19T08:29:35.477Z</time></trkpt><trkpt lat="43.8973993" lon="12.9107112"><ele>7.0</ele><time>2026-04-19T08:29:37.478Z</time></trkpt><trkpt lat="43.8971546" lon="12.9108058"><ele>7.000000000000001</ele><time>2026-04-19T08:29:39.499Z</time></trkpt><trkpt lat="43.897077" lon="12.9107379"><ele>7.0</ele><time>2026-04-19T08:29:41.471Z</time></trkpt><trkpt lat="43.8969718" lon="12.9107248"><ele>7.0</ele><time>2026-04-19T08:29:43.475Z</time></trkpt><trkpt lat="43.8968888" lon="12.9107165"><ele>7.0</ele><time>2026-04-19T08:29:45.472Z</time></trkpt><trkpt lat="43.8968182" lon="12.9106856"><ele>7.000000000000001</ele><time>2026-04-19T08:29:47.47Z</time></trkpt><trkpt lat="43.8967401" lon="12.9106485"><ele>7.0</ele><time>2026-04-19T08:29:49.482Z</time></trkpt><trkpt lat="43.8966403" lon="12.9106015"><ele>7.166666666666667</ele><time>2026-04-19T08:29:51.474Z</time></trkpt><trkpt lat="43.8965734" lon="12.9105776"><ele>7.333333333333334</ele><time>2026-04-19T08:29:52.484Z</time></trkpt><trkpt lat="43.8964867" lon="12.9105416"><ele>7.5</ele><time>2026-04-19T08:29:54.482Z</time></trkpt><trkpt lat="43.8964297" lon="12.9104898"><ele>7.666666666666666</ele><time>2026-04-19T08:29:56.48Z</time></trkpt><trkpt lat="43.8963133" lon="12.9104227"><ele>7.833333333333333</ele><time>2026-04-19T08:29:59.48Z</time></trkpt><trkpt lat="43.896228" lon="12.9103747"><ele>8.0</ele><time>2026-04-19T08:30:01.499Z</time></trkpt><trkpt lat="43.8961485" lon="12.9103273"><ele>7.999999999999999</ele><time>2026-04-19T08:30:03.488Z</time></trkpt><trkpt lat="43.8960862" lon="12.9103088"><ele>8.0</ele><time>2026-04-19T08:30:04.477Z</time></trkpt><trkpt lat="43.8959955" lon="12.91027"><ele>8.0</ele><time>2026-04-19T08:30:06.488Z</time></trkpt><trkpt lat="43.8959025" lon="12.9102607"><ele>8.0</ele><time>2026-04-19T08:30:08.478Z</time></trkpt><trkpt lat="43.8958023" lon="12.9102238"><ele>7.999999999999999</ele><time>2026-04-19T08:30:10.472Z</time></trkpt><trkpt lat="43.8957148" lon="12.9101889"><ele>8.0</ele><time>2026-04-19T08:30:12.48Z</time></trkpt><trkpt lat="43.8956297" lon="12.9101405"><ele>8.600000000000001</ele><time>2026-04-19T08:30:14.477Z</time></trkpt><trkpt lat="43.8955252" lon="12.910069"><ele>9.200000000000001</ele><time>2026-04-19T08:30:16.477Z</time></trkpt><trkpt lat="43.8954252" lon="12.9100136"><ele>9.8</ele><time>2026-04-19T08:30:18.484Z</time></trkpt><trkpt lat="43.8953203" lon="12.9099459"><ele>10.4</ele><time>2026-04-19T08:30:20.475Z</time></trkpt><trkpt lat="43.8952389" lon="12.9098924"><ele>11.0</ele><time>2026-04-19T08:30:22.474Z</time></trkpt><trkpt lat="43.8951774" lon="12.9098404"><ele>11.0</ele><time>2026-04-19T08:30:24.481Z</time></trkpt><trkpt lat="43.8951065" lon="12.9098893"><ele>11.0</ele><time>2026-04-19T08:30:27.469Z</time></trkpt><trkpt lat="43.8950512" lon="12.909984"><ele>11.0</ele><time>2026-04-19T08:30:29.488Z</time></trkpt><trkpt lat="43.8950003" lon="12.9100559"><ele>11.0</ele><time>2026-04-19T08:30:31.472Z</time></trkpt><trkpt lat="43.894937" lon="12.9101821"><ele>11.0</ele><time>2026-04-19T08:30:33.483Z</time></trkpt><trkpt lat="43.8948892" lon="12.9102739"><ele>11.0</ele><time>2026-04-19T08:30:35.47Z</time></trkpt><trkpt lat="43.8948406" lon="12.9103299"><ele>10.25</ele><time>2026-04-19T08:30:36.477Z</time></trkpt><trkpt lat="43.8947692" lon="12.9104236"><ele>9.5</ele><time>2026-04-19T08:30:38.478Z</time></trkpt><trkpt lat="43.8946859" lon="12.9105309"><ele>8.75</ele><time>2026-04-19T08:30:40.486Z</time></trkpt><trkpt lat="43.8945736" lon="12.910646"><ele>8.0</ele><time>2026-04-19T08:30:42.47Z</time></trkpt><trkpt lat="43.8944823" lon="12.9107543"><ele>8.0</ele><time>2026-04-19T08:30:44.474Z</time></trkpt><trkpt lat="43.8943944" lon="12.9108464"><ele>8.0</ele><time>2026-04-19T08:30:46.491Z</time></trkpt><trkpt lat="43.8943183" lon="12.9109381"><ele>8.0</ele><time>2026-04-19T08:30:48.486Z</time></trkpt><trkpt lat="43.894254" lon="12.9109827"><ele>8.0</ele><time>2026-04-19T08:30:49.479Z</time></trkpt><trkpt lat="43.8941432" lon="12.9110569"><ele>8.0</ele><time>2026-04-19T08:30:52.474Z</time></trkpt><trkpt lat="43.8940791" lon="12.9110761"><ele>8.600000000000001</ele><time>2026-04-19T08:30:53.469Z</time></trkpt><trkpt lat="43.8940072" lon="12.9111011"><ele>9.200000000000001</ele><time>2026-04-19T08:30:54.484Z</time></trkpt><trkpt lat="43.8939179" lon="12.9111284"><ele>9.8</ele><time>2026-04-19T08:30:55.482Z</time></trkpt><trkpt lat="43.8938409" lon="12.9111222"><ele>10.4</ele><time>2026-04-19T08:30:56.493Z</time></trkpt><trkpt lat="43.8937689" lon="12.9111742"><ele>11.0</ele><time>2026-04-19T08:30:58.482Z</time></trkpt><trkpt lat="43.893635" lon="12.9112285"><ele>11.0</ele><time>2026-04-19T08:31:00.48Z</time></trkpt><trkpt lat="43.8935632" lon="12.9112327"><ele>11.0</ele><time>2026-04-19T08:31:02.471Z</time></trkpt><trkpt lat="43.8934912" lon="12.9112297"><ele>11.0</ele><time>2026-04-19T08:31:04.493Z</time></trkpt><trkpt lat="43.8934199" lon="12.9112585"><ele>11.0</ele><time>2026-04-19T08:31:06.487Z</time></trkpt><trkpt lat="43.8933351" lon="12.9113173"><ele>11.0</ele><time>2026-04-19T08:31:10.48Z</time></trkpt><trkpt lat="43.8932021" lon="12.9113778"><ele>10.600000000000001</ele><time>2026-04-19T08:31:11.475Z</time></trkpt><trkpt lat="43.893114" lon="12.9114053"><ele>10.200000000000001</ele><time>2026-04-19T08:31:12.49Z</time></trkpt><trkpt lat="43.8930394" lon="12.9114212"><ele>9.8</ele><time>2026-04-19T08:31:13.473Z</time></trkpt><trkpt lat="43.8929061" lon="12.9114931"><ele>9.4</ele><time>2026-04-19T08:31:15.478Z</time></trkpt><trkpt lat="43.8927815" lon="12.9115083"><ele>9.0</ele><time>2026-04-19T08:31:16.495Z</time></trkpt><trkpt lat="43.8926845" lon="12.9115337"><ele>9.0</ele><time>2026-04-19T08:31:17.472Z</time></trkpt><trkpt lat="43.8926039" lon="12.9116072"><ele>9.0</ele><time>2026-04-19T08:31:19.485Z</time></trkpt><trkpt lat="43.8925444" lon="12.9116603"><ele>9.0</ele><time>2026-04-19T08:31:21.47Z</time></trkpt><trkpt lat="43.8926357" lon="12.9116985"><ele>9.0</ele><time>2026-04-19T08:31:22.473Z</time></trkpt><trkpt lat="43.892569" lon="12.9117227"><ele>9.0</ele><time>2026-04-19T08:31:24.47Z</time></trkpt><trkpt lat="43.8924894" lon="12.911808"><ele>9.0</ele><time>2026-04-19T08:31:26.486Z</time></trkpt><trkpt lat="43.8924239" lon="12.9118297"><ele>9.6</ele><time>2026-04-19T08:31:27.482Z</time></trkpt><trkpt lat="43.8923619" lon="12.9118513"><ele>10.2</ele><time>2026-04-19T08:31:28.481Z</time></trkpt><trkpt lat="43.8922579" lon="12.9119016"><ele>10.799999999999999</ele><time>2026-04-19T08:31:29.482Z</time></trkpt><trkpt lat="43.8921493" lon="12.9119213"><ele>11.4</ele><time>2026-04-19T08:31:30.486Z</time></trkpt><trkpt lat="43.8920342" lon="12.9119689"><ele>12.0</ele><time>2026-04-19T08:31:31.469Z</time></trkpt><trkpt lat="43.8919265" lon="12.9120286"><ele>12.0</ele><time>2026-04-19T08:31:33.481Z</time></trkpt><trkpt lat="43.8918223" lon="12.9120828"><ele>12.0</ele><time>2026-04-19T08:31:34.495Z</time></trkpt><trkpt lat="43.8917421" lon="12.9121309"><ele>12.0</ele><time>2026-04-19T08:31:35.48Z</time></trkpt><trkpt lat="43.8915875" lon="12.9121705"><ele>12.0</ele><time>2026-04-19T08:31:37.47Z</time></trkpt><trkpt lat="43.8914979" lon="12.9121957"><ele>12.0</ele><time>2026-04-19T08:31:38.484Z</time></trkpt><trkpt lat="43.8914167" lon="12.9122258"><ele>11.714285714285714</ele><time>2026-04-19T08:31:39.492Z</time></trkpt><trkpt lat="43.8913453" lon="12.9122259"><ele>11.428571428571429</ele><time>2026-04-19T08:31:40.474Z</time></trkpt><trkpt lat="43.8912797" lon="12.9122397"><ele>11.142857142857142</ele><time>2026-04-19T08:31:41.484Z</time></trkpt><trkpt lat="43.8912156" lon="12.9122426"><ele>10.857142857142858</ele><time>2026-04-19T08:31:42.485Z</time></trkpt><trkpt lat="43.8911475" lon="12.9122453"><ele>10.571428571428571</ele><time>2026-04-19T08:31:43.494Z</time></trkpt><trkpt lat="43.8910719" lon="12.9122475"><ele>10.285714285714285</ele><time>2026-04-19T08:31:44.484Z</time></trkpt><trkpt lat="43.8909773" lon="12.9122754"><ele>10.0</ele><time>2026-04-19T08:31:46.474Z</time></trkpt><trkpt lat="43.8909121" lon="12.9122908"><ele>10.0</ele><time>2026-04-19T08:31:47.476Z</time></trkpt><trkpt lat="43.8907891" lon="12.9122823"><ele>10.0</ele><time>2026-04-19T08:31:49.476Z</time></trkpt><trkpt lat="43.8906797" lon="12.9122562"><ele>10.0</ele><time>2026-04-19T08:31:51.494Z</time></trkpt><trkpt lat="43.8905665" lon="12.9122464"><ele>10.0</ele><time>2026-04-19T08:31:53.471Z</time></trkpt><trkpt lat="43.8905011" lon="12.9122372"><ele>10.0</ele><time>2026-04-19T08:31:54.484Z</time></trkpt><trkpt lat="43.8904394" lon="12.9122042"><ele>10.0</ele><time>2026-04-19T08:31:55.472Z</time></trkpt><trkpt lat="43.8903529" lon="12.9121971"><ele>10.0</ele><time>2026-04-19T08:31:57.473Z</time></trkpt><trkpt lat="43.8902789" lon="12.9122088"><ele>10.0</ele><time>2026-04-19T08:31:58.476Z</time></trkpt><trkpt lat="43.8902" lon="12.9122758"><ele>10.0</ele><time>2026-04-19T08:32:00.492Z</time></trkpt><trkpt lat="43.8901218" lon="12.9123323"><ele>10.0</ele><time>2026-04-19T08:32:02.488Z</time></trkpt><trkpt lat="43.890044" lon="12.9123921"><ele>10.0</ele><time>2026-04-19T08:32:04.494Z</time></trkpt><trkpt lat="43.8899559" lon="12.9124484"><ele>10.4</ele><time>2026-04-19T08:32:06.475Z</time></trkpt><trkpt lat="43.889902" lon="12.912525"><ele>10.8</ele><time>2026-04-19T08:32:08.473Z</time></trkpt><trkpt lat="43.8898826" lon="12.9126134"><ele>11.2</ele><time>2026-04-19T08:32:10.476Z</time></trkpt><trkpt lat="43.8898375" lon="12.9127208"><ele>11.6</ele><time>2026-04-19T08:32:12.496Z</time></trkpt><trkpt lat="43.8897698" lon="12.9128165"><ele>12.0</ele><time>2026-04-19T08:32:14.474Z</time></trkpt><trkpt lat="43.8896053" lon="12.9129208"><ele>12.0</ele><time>2026-04-19T08:32:16.487Z</time></trkpt><trkpt lat="43.8895386" lon="12.9129614"><ele>12.0</ele><time>2026-04-19T08:32:17.486Z</time></trkpt><trkpt lat="43.8894433" lon="12.9130214"><ele>12.0</ele><time>2026-04-19T08:32:19.474Z</time></trkpt><trkpt lat="43.8893786" lon="12.9130635"><ele>12.0</ele><time>2026-04-19T08:32:20.481Z</time></trkpt><trkpt lat="43.8892833" lon="12.9131242"><ele>12.0</ele><time>2026-04-19T08:32:22.495Z</time></trkpt><trkpt lat="43.8891758" lon="12.9131735"><ele>12.6</ele><time>2026-04-19T08:32:24.481Z</time></trkpt><trkpt lat="43.8891021" lon="12.9131987"><ele>13.2</ele><time>2026-04-19T08:32:25.491Z</time></trkpt><trkpt lat="43.8890141" lon="12.9132442"><ele>13.8</ele><time>2026-04-19T08:32:27.491Z</time></trkpt><trkpt lat="43.8889312" lon="12.9132372"><ele>14.4</ele><time>2026-04-19T08:32:29.478Z</time></trkpt><trkpt lat="43.888773" lon="12.9131755"><ele>15.0</ele><time>2026-04-19T08:32:31.484Z</time></trkpt><trkpt lat="43.8887016" lon="12.9131643"><ele>15.0</ele><time>2026-04-19T08:32:32.484Z</time></trkpt><trkpt lat="43.8886029" lon="12.9131891"><ele>15.0</ele><time>2026-04-19T08:32:34.484Z</time></trkpt><trkpt lat="43.88855" lon="12.9132486"><ele>15.0</ele><time>2026-04-19T08:32:36.475Z</time></trkpt><trkpt lat="43.8885216" lon="12.9133771"><ele>15.0</ele><time>2026-04-19T08:32:38.477Z</time></trkpt><trkpt lat="43.888533" lon="12.9135089"><ele>15.0</ele><time>2026-04-19T08:32:40.481Z</time></trkpt><trkpt lat="43.8885266" lon="12.9136523"><ele>14.4</ele><time>2026-04-19T08:32:42.476Z</time></trkpt><trkpt lat="43.888511" lon="12.913797"><ele>13.8</ele><time>2026-04-19T08:32:44.487Z</time></trkpt><trkpt lat="43.8884876" lon="12.9139049"><ele>13.2</ele><time>2026-04-19T08:32:45.489Z</time></trkpt><trkpt lat="43.8884756" lon="12.914068"><ele>12.6</ele><time>2026-04-19T08:32:47.493Z</time></trkpt><trkpt lat="43.888473" lon="12.9141588"><ele>12.0</ele><time>2026-04-19T08:32:48.483Z</time></trkpt><trkpt lat="43.8884813" lon="12.9143121"><ele>11.8</ele><time>2026-04-19T08:32:50.477Z</time></trkpt><trkpt lat="43.8885074" lon="12.9144624"><ele>11.6</ele><time>2026-04-19T08:32:52.474Z</time></trkpt><trkpt lat="43.8885411" lon="12.9145558"><ele>11.4</ele><time>2026-04-19T08:32:54.47Z</time></trkpt><trkpt lat="43.8885728" lon="12.9146392"><ele>11.200000000000001</ele><time>2026-04-19T08:32:55.497Z</time></trkpt><trkpt lat="43.8886201" lon="12.9147881"><ele>11.0</ele><time>2026-04-19T08:32:57.484Z</time></trkpt><trkpt lat="43.8886733" lon="12.9149447"><ele>11.0</ele><time>2026-04-19T08:32:59.488Z</time></trkpt><trkpt lat="43.8887044" lon="12.915024"><ele>11.0</ele><time>2026-04-19T08:33:00.492Z</time></trkpt><trkpt lat="43.8887592" lon="12.9151707"><ele>11.0</ele><time>2026-04-19T08:33:02.482Z</time></trkpt><trkpt lat="43.888819" lon="12.9153112"><ele>11.0</ele><time>2026-04-19T08:33:04.484Z</time></trkpt><trkpt lat="43.888874" lon="12.9154478"><ele>11.0</ele><time>2026-04-19T08:33:06.497Z</time></trkpt><trkpt lat="43.8889225" lon="12.9155826"><ele>11.5</ele><time>2026-04-19T08:33:08.478Z</time></trkpt><trkpt lat="43.8889558" lon="12.9156659"><ele>12.0</ele><time>2026-04-19T08:33:09.487Z</time></trkpt><trkpt lat="43.8890094" lon="12.9157984"><ele>12.5</ele><time>2026-04-19T08:33:11.473Z</time></trkpt><trkpt lat="43.8890397" lon="12.9158839"><ele>13.0</ele><time>2026-04-19T08:33:12.484Z</time></trkpt><trkpt lat="43.8890737" lon="12.9159684"><ele>13.500000000000002</ele><time>2026-04-19T08:33:13.481Z</time></trkpt><trkpt lat="43.8891016" lon="12.9160486"><ele>14.0</ele><time>2026-04-19T08:33:14.485Z</time></trkpt><trkpt lat="43.8891422" lon="12.9162137"><ele>14.2</ele><time>2026-04-19T08:33:16.477Z</time></trkpt><trkpt lat="43.88917" lon="12.9162945"><ele>14.399999999999999</ele><time>2026-04-19T08:33:17.479Z</time></trkpt><trkpt lat="43.8892048" lon="12.9164424"><ele>14.6</ele><time>2026-04-19T08:33:19.481Z</time></trkpt><trkpt lat="43.8892136" lon="12.9165944"><ele>14.8</ele><time>2026-04-19T08:33:21.488Z</time></trkpt><trkpt lat="43.8892258" lon="12.9167331"><ele>15.0</ele><time>2026-04-19T08:33:23.495Z</time></trkpt><trkpt lat="43.8892317" lon="12.9168555"><ele>15.0</ele><time>2026-04-19T08:33:25.476Z</time></trkpt><trkpt lat="43.8892207" lon="12.9170595"><ele>15.0</ele><time>2026-04-19T08:33:26.474Z</time></trkpt><trkpt lat="43.8892045" lon="12.9171687"><ele>15.0</ele><time>2026-04-19T08:33:27.489Z</time></trkpt><trkpt lat="43.8891566" lon="12.9173245"><ele>15.0</ele><time>2026-04-19T08:33:29.49Z</time></trkpt><trkpt lat="43.8891317" lon="12.9174095"><ele>15.0</ele><time>2026-04-19T08:33:30.495Z</time></trkpt><trkpt lat="43.8891046" lon="12.9175195"><ele>14.571428571428571</ele><time>2026-04-19T08:33:31.49Z</time></trkpt><trkpt lat="43.8890714" lon="12.9176046"><ele>14.142857142857142</ele><time>2026-04-19T08:33:32.486Z</time></trkpt><trkpt lat="43.8890419" lon="12.917687"><ele>13.714285714285714</ele><time>2026-04-19T08:33:33.487Z</time></trkpt><trkpt lat="43.8890033" lon="12.9178081"><ele>13.285714285714285</ele><time>2026-04-19T08:33:34.474Z</time></trkpt><trkpt lat="43.8889677" lon="12.9179041"><ele>12.857142857142858</ele><time>2026-04-19T08:33:35.474Z</time></trkpt><trkpt lat="43.8889414" lon="12.9179892"><ele>12.428571428571427</ele><time>2026-04-19T08:33:36.493Z</time></trkpt><trkpt lat="43.8889185" lon="12.9180782"><ele>12.0</ele><time>2026-04-19T08:33:37.477Z</time></trkpt><trkpt lat="43.888898" lon="12.9181693"><ele>12.0</ele><time>2026-04-19T08:33:38.485Z</time></trkpt><trkpt lat="43.8888727" lon="12.9183101"><ele>12.0</ele><time>2026-04-19T08:33:40.489Z</time></trkpt><trkpt lat="43.8888643" lon="12.9184041"><ele>12.0</ele><time>2026-04-19T08:33:41.481Z</time></trkpt><trkpt lat="43.8888525" lon="12.9185691"><ele>12.0</ele><time>2026-04-19T08:33:43.491Z</time></trkpt><trkpt lat="43.8888536" lon="12.9186671"><ele>12.0</ele><time>2026-04-19T08:33:44.489Z</time></trkpt><trkpt lat="43.8888592" lon="12.9188145"><ele>12.166666666666666</ele><time>2026-04-19T08:33:46.493Z</time></trkpt><trkpt lat="43.8888655" lon="12.9189069"><ele>12.333333333333332</ele><time>2026-04-19T08:33:47.475Z</time></trkpt><trkpt lat="43.8888736" lon="12.9189987"><ele>12.5</ele><time>2026-04-19T08:33:48.5Z</time></trkpt><trkpt lat="43.8888919" lon="12.9191367"><ele>12.666666666666666</ele><time>2026-04-19T08:33:50.479Z</time></trkpt><trkpt lat="43.8888966" lon="12.9192253"><ele>12.833333333333332</ele><time>2026-04-19T08:33:51.483Z</time></trkpt><trkpt lat="43.8888776" lon="12.9193694"><ele>13.0</ele><time>2026-04-19T08:33:53.484Z</time></trkpt><trkpt lat="43.8888448" lon="12.9194601"><ele>13.2</ele><time>2026-04-19T08:33:54.482Z</time></trkpt><trkpt lat="43.8888277" lon="12.9196075"><ele>13.4</ele><time>2026-04-19T08:33:56.477Z</time></trkpt><trkpt lat="43.8888752" lon="12.9197179"><ele>13.599999999999998</ele><time>2026-04-19T08:33:58.496Z</time></trkpt><trkpt lat="43.8889612" lon="12.9198463"><ele>13.799999999999999</ele><time>2026-04-19T08:34:00.475Z</time></trkpt><trkpt lat="43.8889985" lon="12.9199936"><ele>14.0</ele><time>2026-04-19T08:34:02.474Z</time></trkpt><trkpt lat="43.889007" lon="12.9200911"><ele>15.0</ele><time>2026-04-19T08:34:03.485Z</time></trkpt><trkpt lat="43.889015" lon="12.920249"><ele>16.0</ele><time>2026-04-19T08:34:05.492Z</time></trkpt><trkpt lat="43.8890272" lon="12.9203995"><ele>17.0</ele><time>2026-04-19T08:34:07.474Z</time></trkpt><trkpt lat="43.8890241" lon="12.9205664"><ele>18.0</ele><time>2026-04-19T08:34:09.471Z</time></trkpt><trkpt lat="43.8890326" lon="12.9207266"><ele>18.0</ele><time>2026-04-19T08:34:11.475Z</time></trkpt><trkpt lat="43.8890337" lon="12.9208141"><ele>18.0</ele><time>2026-04-19T08:34:12.48Z</time></trkpt><trkpt lat="43.889043" lon="12.9209743"><ele>18.0</ele><time>2026-04-19T08:34:14.478Z</time></trkpt><trkpt lat="43.8890385" lon="12.9211251"><ele>18.0</ele><time>2026-04-19T08:34:15.474Z</time></trkpt><trkpt lat="43.8890307" lon="12.9212232"><ele>18.0</ele><time>2026-04-19T08:34:16.475Z</time></trkpt><trkpt lat="43.8890273" lon="12.9213122"><ele>18.0</ele><time>2026-04-19T08:34:17.484Z</time></trkpt><trkpt lat="43.889046" lon="12.9214215"><ele>19.0</ele><time>2026-04-19T08:34:19.47Z</time></trkpt><trkpt lat="43.8890514" lon="12.9215367"><ele>20.0</ele><time>2026-04-19T08:34:21.474Z</time></trkpt><trkpt lat="43.8890474" lon="12.9217385"><ele>21.0</ele><time>2026-04-19T08:34:23.479Z</time></trkpt><trkpt lat="43.8890477" lon="12.9218563"><ele>22.0</ele><time>2026-04-19T08:34:25.475Z</time></trkpt><trkpt lat="43.8890599" lon="12.9220106"><ele>23.0</ele><time>2026-04-19T08:34:27.484Z</time></trkpt><trkpt lat="43.8890628" lon="12.922171"><ele>23.0</ele><time>2026-04-19T08:34:29.486Z</time></trkpt><trkpt lat="43.8890678" lon="12.9222589"><ele>23.0</ele><time>2026-04-19T08:34:30.476Z</time></trkpt><trkpt lat="43.8890742" lon="12.9224151"><ele>23.0</ele><time>2026-04-19T08:34:32.477Z</time></trkpt><trkpt lat="43.8890729" lon="12.9225705"><ele>23.0</ele><time>2026-04-19T08:34:34.483Z</time></trkpt><trkpt lat="43.8890603" lon="12.922713"><ele>23.0</ele><time>2026-04-19T08:34:36.486Z</time></trkpt><trkpt lat="43.8890494" lon="12.9228623"><ele>21.799999999999997</ele><time>2026-04-19T08:34:38.474Z</time></trkpt><trkpt lat="43.8890277" lon="12.9230212"><ele>20.599999999999998</ele><time>2026-04-19T08:34:40.496Z</time></trkpt><trkpt lat="43.8890111" lon="12.9231424"><ele>19.4</ele><time>2026-04-19T08:34:41.481Z</time></trkpt><trkpt lat="43.8889963" lon="12.9232317"><ele>18.2</ele><time>2026-04-19T08:34:42.48Z</time></trkpt><trkpt lat="43.888989" lon="12.9233189"><ele>17.0</ele><time>2026-04-19T08:34:43.475Z</time></trkpt><trkpt lat="43.8889672" lon="12.9234857"><ele>16.333333333333336</ele><time>2026-04-19T08:34:45.495Z</time></trkpt><trkpt lat="43.8889308" lon="12.9236482"><ele>15.666666666666668</ele><time>2026-04-19T08:34:47.486Z</time></trkpt><trkpt lat="43.8889098" lon="12.9237446"><ele>15.0</ele><time>2026-04-19T08:34:48.48Z</time></trkpt><trkpt lat="43.8888813" lon="12.9238348"><ele>14.333333333333332</ele><time>2026-04-19T08:34:49.48Z</time></trkpt><trkpt lat="43.8888539" lon="12.9239381"><ele>13.666666666666666</ele><time>2026-04-19T08:34:50.486Z</time></trkpt><trkpt lat="43.8888231" lon="12.9240359"><ele>13.0</ele><time>2026-04-19T08:34:51.486Z</time></trkpt><trkpt lat="43.8887903" lon="12.924141"><ele>12.666666666666666</ele><time>2026-04-19T08:34:52.475Z</time></trkpt><trkpt lat="43.8887519" lon="12.9242494"><ele>12.333333333333332</ele><time>2026-04-19T08:34:53.493Z</time></trkpt><trkpt lat="43.8887137" lon="12.9243497"><ele>12.0</ele><time>2026-04-19T08:34:54.493Z</time></trkpt><trkpt lat="43.888672" lon="12.9244425"><ele>11.666666666666666</ele><time>2026-04-19T08:34:55.503Z</time></trkpt><trkpt lat="43.8886217" lon="12.9245601"><ele>11.333333333333332</ele><time>2026-04-19T08:34:56.482Z</time></trkpt><trkpt lat="43.8885724" lon="12.9246605"><ele>11.0</ele><time>2026-04-19T08:34:57.484Z</time></trkpt><trkpt lat="43.888528" lon="12.9247642"><ele>11.0</ele><time>2026-04-19T08:34:58.472Z</time></trkpt><trkpt lat="43.8884835" lon="12.9248621"><ele>11.0</ele><time>2026-04-19T08:34:59.471Z</time></trkpt><trkpt lat="43.8884345" lon="12.924971"><ele>11.0</ele><time>2026-04-19T08:35:00.477Z</time></trkpt><trkpt lat="43.8883725" lon="12.9250176"><ele>11.0</ele><time>2026-04-19T08:35:01.469Z</time></trkpt><trkpt lat="43.8883356" lon="12.92512"><ele>11.0</ele><time>2026-04-19T08:35:02.469Z</time></trkpt><trkpt lat="43.8882968" lon="12.9252303"><ele>11.0</ele><time>2026-04-19T08:35:03.486Z</time></trkpt><trkpt lat="43.8882544" lon="12.92532"><ele>11.142857142857142</ele><time>2026-04-19T08:35:04.469Z</time></trkpt><trkpt lat="43.8882157" lon="12.9254351"><ele>11.285714285714285</ele><time>2026-04-19T08:35:05.488Z</time></trkpt><trkpt lat="43.8881828" lon="12.925535"><ele>11.428571428571427</ele><time>2026-04-19T08:35:06.48Z</time></trkpt><trkpt lat="43.8881536" lon="12.9256174"><ele>11.571428571428571</ele><time>2026-04-19T08:35:07.471Z</time></trkpt><trkpt lat="43.8881257" lon="12.9257037"><ele>11.714285714285714</ele><time>2026-04-19T08:35:08.477Z</time></trkpt><trkpt lat="43.8881003" lon="12.9257873"><ele>11.857142857142856</ele><time>2026-04-19T08:35:09.475Z</time></trkpt><trkpt lat="43.8880862" lon="12.9258765"><ele>12.0</ele><time>2026-04-19T08:35:10.49Z</time></trkpt><trkpt lat="43.888073" lon="12.9259699"><ele>12.2</ele><time>2026-04-19T08:35:11.469Z</time></trkpt><trkpt lat="43.8880571" lon="12.9260553"><ele>12.399999999999999</ele><time>2026-04-19T08:35:12.485Z</time></trkpt><trkpt lat="43.8880475" lon="12.9262094"><ele>12.600000000000001</ele><time>2026-04-19T08:35:14.474Z</time></trkpt><trkpt lat="43.8880304" lon="12.9263057"><ele>12.8</ele><time>2026-04-19T08:35:15.496Z</time></trkpt><trkpt lat="43.8880392" lon="12.9264551"><ele>13.0</ele><time>2026-04-19T08:35:17.469Z</time></trkpt><trkpt lat="43.8880438" lon="12.9265954"><ele>13.0</ele><time>2026-04-19T08:35:19.471Z</time></trkpt><trkpt lat="43.8880887" lon="12.9267839"><ele>13.0</ele><time>2026-04-19T08:35:21.495Z</time></trkpt><trkpt lat="43.8881031" lon="12.9268904"><ele>13.0</ele><time>2026-04-19T08:35:22.486Z</time></trkpt><trkpt lat="43.8881332" lon="12.9270412"><ele>13.0</ele><time>2026-04-19T08:35:24.489Z</time></trkpt><trkpt lat="43.8881727" lon="12.9271508"><ele>13.0</ele><time>2026-04-19T08:35:25.476Z</time></trkpt><trkpt lat="43.8881996" lon="12.9272317"><ele>13.0</ele><time>2026-04-19T08:35:26.488Z</time></trkpt><trkpt lat="43.8882359" lon="12.9273086"><ele>13.0</ele><time>2026-04-19T08:35:27.494Z</time></trkpt><trkpt lat="43.8883098" lon="12.9274296"><ele>13.0</ele><time>2026-04-19T08:35:29.478Z</time></trkpt><trkpt lat="43.8883577" lon="12.9275315"><ele>13.0</ele><time>2026-04-19T08:35:30.476Z</time></trkpt><trkpt lat="43.8884579" lon="12.9276383"><ele>13.0</ele><time>2026-04-19T08:35:32.481Z</time></trkpt><trkpt lat="43.8885143" lon="12.9276931"><ele>14.25</ele><time>2026-04-19T08:35:33.479Z</time></trkpt><trkpt lat="43.8886071" lon="12.9278091"><ele>15.5</ele><time>2026-04-19T08:35:35.499Z</time></trkpt><trkpt lat="43.8886398" lon="12.9279666"><ele>16.75</ele><time>2026-04-19T08:35:37.475Z</time></trkpt><trkpt lat="43.8886344" lon="12.9281326"><ele>18.0</ele><time>2026-04-19T08:35:39.485Z</time></trkpt><trkpt lat="43.8885947" lon="12.928289"><ele>18.2</ele><time>2026-04-19T08:35:41.471Z</time></trkpt><trkpt lat="43.8885702" lon="12.9284014"><ele>18.4</ele><time>2026-04-19T08:35:42.474Z</time></trkpt><trkpt lat="43.8885319" lon="12.9285603"><ele>18.599999999999998</ele><time>2026-04-19T08:35:44.496Z</time></trkpt><trkpt lat="43.8884862" lon="12.9286678"><ele>18.8</ele><time>2026-04-19T08:35:46.471Z</time></trkpt><trkpt lat="43.8884434" lon="12.9287916"><ele>19.0</ele><time>2026-04-19T08:35:48.468Z</time></trkpt><trkpt lat="43.8883988" lon="12.9288975"><ele>19.0</ele><time>2026-04-19T08:35:50.486Z</time></trkpt><trkpt lat="43.8883672" lon="12.9289792"><ele>19.0</ele><time>2026-04-19T08:35:52.484Z</time></trkpt><trkpt lat="43.8883192" lon="12.9290622"><ele>19.0</ele><time>2026-04-19T08:36:40.488Z</time></trkpt><trkpt lat="43.888285" lon="12.9291752"><ele>19.0</ele><time>2026-04-19T08:36:44.478Z</time></trkpt><trkpt lat="43.88826" lon="12.9292636"><ele>19.0</ele><time>2026-04-19T08:36:46.485Z</time></trkpt><trkpt lat="43.888246" lon="12.929366"><ele>19.0</ele><time>2026-04-19T08:36:48.489Z</time></trkpt><trkpt lat="43.8882127" lon="12.9294595"><ele>19.0</ele><time>2026-04-19T08:36:50.479Z</time></trkpt><trkpt lat="43.8881688" lon="12.9295832"><ele>19.0</ele><time>2026-04-19T08:36:52.497Z</time></trkpt><trkpt lat="43.8881374" lon="12.9296841"><ele>19.0</ele><time>2026-04-19T08:36:53.471Z</time></trkpt><trkpt lat="43.8880882" lon="12.9298916"><ele>19.0</ele><time>2026-04-19T08:36:55.476Z</time></trkpt><trkpt lat="43.8880623" lon="12.9299847"><ele>19.0</ele><time>2026-04-19T08:36:56.479Z</time></trkpt><trkpt lat="43.8880091" lon="12.9301274"><ele>19.6</ele><time>2026-04-19T08:36:58.478Z</time></trkpt><trkpt lat="43.8879552" lon="12.9302619"><ele>20.2</ele><time>2026-04-19T08:37:00.473Z</time></trkpt><trkpt lat="43.8879076" lon="12.9304235"><ele>20.8</ele><time>2026-04-19T08:37:02.477Z</time></trkpt><trkpt lat="43.8878875" lon="12.9305523"><ele>21.400000000000002</ele><time>2026-04-19T08:37:04.469Z</time></trkpt><trkpt lat="43.8878365" lon="12.9306712"><ele>22.0</ele><time>2026-04-19T08:37:06.476Z</time></trkpt><trkpt lat="43.8878159" lon="12.9307715"><ele>22.0</ele><time>2026-04-19T08:37:08.474Z</time></trkpt><trkpt lat="43.8877886" lon="12.9308549"><ele>22.0</ele><time>2026-04-19T08:37:09.479Z</time></trkpt><trkpt lat="43.8877387" lon="12.9309656"><ele>22.0</ele><time>2026-04-19T08:37:11.47Z</time></trkpt><trkpt lat="43.8876763" lon="12.9310933"><ele>22.0</ele><time>2026-04-19T08:37:13.485Z</time></trkpt><trkpt lat="43.887646" lon="12.9311797"><ele>22.0</ele><time>2026-04-19T08:37:14.471Z</time></trkpt><trkpt lat="43.8876083" lon="12.9313112"><ele>22.0</ele><time>2026-04-19T08:37:16.469Z</time></trkpt><trkpt lat="43.8875653" lon="12.9314065"><ele>21.833333333333332</ele><time>2026-04-19T08:37:17.468Z</time></trkpt><trkpt lat="43.8875321" lon="12.9314949"><ele>21.666666666666664</ele><time>2026-04-19T08:37:19.473Z</time></trkpt><trkpt lat="43.8874968" lon="12.9315987"><ele>21.5</ele><time>2026-04-19T08:37:21.473Z</time></trkpt><trkpt lat="43.887468" lon="12.9317017"><ele>21.333333333333332</ele><time>2026-04-19T08:37:23.476Z</time></trkpt><trkpt lat="43.8874211" lon="12.9317943"><ele>21.166666666666668</ele><time>2026-04-19T08:37:25.481Z</time></trkpt><trkpt lat="43.8873751" lon="12.9318614"><ele>21.0</ele><time>2026-04-19T08:39:07.476Z</time></trkpt><trkpt lat="43.8873354" lon="12.9319454"><ele>21.6</ele><time>2026-04-19T08:39:10.467Z</time></trkpt><trkpt lat="43.8873117" lon="12.9321496"><ele>22.200000000000003</ele><time>2026-04-19T08:39:11.473Z</time></trkpt><trkpt lat="43.8872755" lon="12.9323058"><ele>22.799999999999997</ele><time>2026-04-19T08:39:13.469Z</time></trkpt><trkpt lat="43.8872365" lon="12.9323918"><ele>23.4</ele><time>2026-04-19T08:39:14.492Z</time></trkpt><trkpt lat="43.8871997" lon="12.932517"><ele>24.0</ele><time>2026-04-19T08:39:15.479Z</time></trkpt><trkpt lat="43.8871449" lon="12.9326749"><ele>25.0</ele><time>2026-04-19T08:39:17.476Z</time></trkpt><trkpt lat="43.8871347" lon="12.9327642"><ele>26.0</ele><time>2026-04-19T08:39:18.468Z</time></trkpt><trkpt lat="43.8871276" lon="12.9328589"><ele>27.0</ele><time>2026-04-19T08:39:19.486Z</time></trkpt><trkpt lat="43.8871116" lon="12.9329584"><ele>28.0</ele><time>2026-04-19T08:39:21.48Z</time></trkpt><trkpt lat="43.8871018" lon="12.9330998"><ele>29.0</ele><time>2026-04-19T08:39:23.488Z</time></trkpt><trkpt lat="43.8870786" lon="12.9332664"><ele>30.0</ele><time>2026-04-19T08:39:25.477Z</time></trkpt><trkpt lat="43.887071" lon="12.9334174"><ele>30.666666666666668</ele><time>2026-04-19T08:39:27.483Z</time></trkpt><trkpt lat="43.8870644" lon="12.9335072"><ele>31.333333333333336</ele><time>2026-04-19T08:39:28.489Z</time></trkpt><trkpt lat="43.8870582" lon="12.9336637"><ele>32.0</ele><time>2026-04-19T08:39:30.467Z</time></trkpt><trkpt lat="43.8870581" lon="12.9337705"><ele>32.66666666666667</ele><time>2026-04-19T08:39:31.481Z</time></trkpt><trkpt lat="43.8870597" lon="12.9338678"><ele>33.333333333333336</ele><time>2026-04-19T08:39:32.467Z</time></trkpt><trkpt lat="43.8870796" lon="12.9340214"><ele>34.0</ele><time>2026-04-19T08:39:34.478Z</time></trkpt><trkpt lat="43.8871115" lon="12.9341437"><ele>34.4</ele><time>2026-04-19T08:39:36.492Z</time></trkpt><trkpt lat="43.8871272" lon="12.9342293"><ele>34.8</ele><time>2026-04-19T08:39:37.467Z</time></trkpt><trkpt lat="43.8871681" lon="12.9343746"><ele>35.2</ele><time>2026-04-19T08:39:39.469Z</time></trkpt><trkpt lat="43.8871948" lon="12.9345288"><ele>35.6</ele><time>2026-04-19T08:39:41.467Z</time></trkpt><trkpt lat="43.8872308" lon="12.9346625"><ele>36.0</ele><time>2026-04-19T08:39:43.477Z</time></trkpt><trkpt lat="43.8872543" lon="12.9348118"><ele>36.0</ele><time>2026-04-19T08:39:45.471Z</time></trkpt><trkpt lat="43.887302" lon="12.9349765"><ele>36.0</ele><time>2026-04-19T08:39:47.49Z</time></trkpt><trkpt lat="43.8873183" lon="12.9351181"><ele>36.0</ele><time>2026-04-19T08:39:49.466Z</time></trkpt><trkpt lat="43.8873393" lon="12.935271"><ele>36.0</ele><time>2026-04-19T08:39:51.488Z</time></trkpt><trkpt lat="43.887395" lon="12.935425"><ele>35.833333333333336</ele><time>2026-04-19T08:39:53.477Z</time></trkpt><trkpt lat="43.8874091" lon="12.9355303"><ele>35.666666666666664</ele><time>2026-04-19T08:39:55.471Z</time></trkpt><trkpt lat="43.8874528" lon="12.9356586"><ele>35.5</ele><time>2026-04-19T08:39:57.472Z</time></trkpt><trkpt lat="43.8874658" lon="12.9357464"><ele>35.33333333333333</ele><time>2026-04-19T08:39:58.478Z</time></trkpt><trkpt lat="43.8874948" lon="12.9358915"><ele>35.166666666666664</ele><time>2026-04-19T08:40:00.468Z</time></trkpt><trkpt lat="43.8875107" lon="12.9360009"><ele>35.0</ele><time>2026-04-19T08:40:01.488Z</time></trkpt><trkpt lat="43.887555" lon="12.9361497"><ele>37.2</ele><time>2026-04-19T08:40:03.47Z</time></trkpt><trkpt lat="43.8876043" lon="12.9362799"><ele>39.4</ele><time>2026-04-19T08:40:05.476Z</time></trkpt><trkpt lat="43.8876552" lon="12.9364055"><ele>41.599999999999994</ele><time>2026-04-19T08:40:07.475Z</time></trkpt><trkpt lat="43.8877118" lon="12.9365153"><ele>43.8</ele><time>2026-04-19T08:40:09.475Z</time></trkpt><trkpt lat="43.8877753" lon="12.9366007"><ele>46.0</ele><time>2026-04-19T08:40:11.479Z</time></trkpt><trkpt lat="43.8878127" lon="12.9367686"><ele>46.0</ele><time>2026-04-19T08:40:13.484Z</time></trkpt><trkpt lat="43.8878368" lon="12.9369001"><ele>46.0</ele><time>2026-04-19T08:40:15.474Z</time></trkpt><trkpt lat="43.8878896" lon="12.9370311"><ele>46.0</ele><time>2026-04-19T08:40:17.483Z</time></trkpt><trkpt lat="43.8879237" lon="12.9371217"><ele>46.0</ele><time>2026-04-19T08:40:18.474Z</time></trkpt><trkpt lat="43.887983" lon="12.937229"><ele>46.0</ele><time>2026-04-19T08:40:20.466Z</time></trkpt><trkpt lat="43.8880507" lon="12.9373658"><ele>46.0</ele><time>2026-04-19T08:40:22.468Z</time></trkpt><trkpt lat="43.8881027" lon="12.93753"><ele>46.0</ele><time>2026-04-19T08:40:24.468Z</time></trkpt><trkpt lat="43.8881472" lon="12.9376835"><ele>46.0</ele><time>2026-04-19T08:40:26.479Z</time></trkpt><trkpt lat="43.8881892" lon="12.9378349"><ele>46.0</ele><time>2026-04-19T08:40:28.467Z</time></trkpt><trkpt lat="43.8882095" lon="12.937926"><ele>46.0</ele><time>2026-04-19T08:40:29.472Z</time></trkpt><trkpt lat="43.8882551" lon="12.9380232"><ele>45.199999999999996</ele><time>2026-04-19T08:40:31.478Z</time></trkpt><trkpt lat="43.8882923" lon="12.9381255"><ele>44.4</ele><time>2026-04-19T08:40:33.47Z</time></trkpt><trkpt lat="43.8883356" lon="12.9382434"><ele>43.6</ele><time>2026-04-19T08:40:35.477Z</time></trkpt><trkpt lat="43.8883917" lon="12.9383637"><ele>42.8</ele><time>2026-04-19T08:40:37.478Z</time></trkpt><trkpt lat="43.8884375" lon="12.9384847"><ele>42.0</ele><time>2026-04-19T08:40:39.468Z</time></trkpt><trkpt lat="43.8884693" lon="12.9386197"><ele>45.400000000000006</ele><time>2026-04-19T08:40:41.474Z</time></trkpt><trkpt lat="43.8885288" lon="12.9387178"><ele>48.800000000000004</ele><time>2026-04-19T08:40:43.475Z</time></trkpt><trkpt lat="43.888583" lon="12.9388433"><ele>52.2</ele><time>2026-04-19T08:40:45.47Z</time></trkpt><trkpt lat="43.8886406" lon="12.9389566"><ele>55.6</ele><time>2026-04-19T08:40:47.473Z</time></trkpt><trkpt lat="43.8886813" lon="12.9390896"><ele>59.0</ele><time>2026-04-19T08:40:49.478Z</time></trkpt><trkpt lat="43.8887217" lon="12.9391762"><ele>58.25</ele><time>2026-04-19T08:40:51.474Z</time></trkpt><trkpt lat="43.8887784" lon="12.9393042"><ele>57.5</ele><time>2026-04-19T08:40:54.472Z</time></trkpt><trkpt lat="43.8888495" lon="12.9394413"><ele>56.75</ele><time>2026-04-19T08:40:56.479Z</time></trkpt><trkpt lat="43.8889042" lon="12.9395844"><ele>56.0</ele><time>2026-04-19T08:40:58.468Z</time></trkpt><trkpt lat="43.8889032" lon="12.9397318"><ele>56.00000000000001</ele><time>2026-04-19T08:40:59.47Z</time></trkpt><trkpt lat="43.8889254" lon="12.939817"><ele>56.0</ele><time>2026-04-19T08:41:00.469Z</time></trkpt><trkpt lat="43.8889426" lon="12.9399042"><ele>56.0</ele><time>2026-04-19T08:41:01.47Z</time></trkpt><trkpt lat="43.8889925" lon="12.940015"><ele>56.0</ele><time>2026-04-19T08:41:03.468Z</time></trkpt><trkpt lat="43.8890222" lon="12.9401564"><ele>56.00000000000001</ele><time>2026-04-19T08:41:05.471Z</time></trkpt><trkpt lat="43.8890622" lon="12.9402918"><ele>56.0</ele><time>2026-04-19T08:41:08.472Z</time></trkpt><trkpt lat="43.8890985" lon="12.9404426"><ele>56.199999999999996</ele><time>2026-04-19T08:41:11.48Z</time></trkpt><trkpt lat="43.8891563" lon="12.940561"><ele>56.39999999999999</ele><time>2026-04-19T08:41:12.475Z</time></trkpt><trkpt lat="43.8891815" lon="12.9406604"><ele>56.6</ele><time>2026-04-19T08:41:13.467Z</time></trkpt><trkpt lat="43.8892112" lon="12.9407441"><ele>56.8</ele><time>2026-04-19T08:41:14.478Z</time></trkpt><trkpt lat="43.8892608" lon="12.9409002"><ele>57.0</ele><time>2026-04-19T08:41:16.467Z</time></trkpt><trkpt lat="43.8892902" lon="12.9410058"><ele>57.0</ele><time>2026-04-19T08:41:17.47Z</time></trkpt><trkpt lat="43.8893474" lon="12.9411624"><ele>57.0</ele><time>2026-04-19T08:41:19.492Z</time></trkpt><trkpt lat="43.8893883" lon="12.9412718"><ele>57.0</ele><time>2026-04-19T08:41:20.48Z</time></trkpt><trkpt lat="43.8894209" lon="12.9413557"><ele>57.0</ele><time>2026-04-19T08:41:21.477Z</time></trkpt><trkpt lat="43.8895006" lon="12.9415022"><ele>57.0</ele><time>2026-04-19T08:41:23.481Z</time></trkpt><trkpt lat="43.8895807" lon="12.9416469"><ele>55.5</ele><time>2026-04-19T08:41:25.467Z</time></trkpt><trkpt lat="43.8896669" lon="12.9417679"><ele>54.0</ele><time>2026-04-19T08:41:27.475Z</time></trkpt><trkpt lat="43.8897389" lon="12.9419032"><ele>52.5</ele><time>2026-04-19T08:41:29.476Z</time></trkpt><trkpt lat="43.8898121" lon="12.9420319"><ele>51.0</ele><time>2026-04-19T08:41:31.474Z</time></trkpt><trkpt lat="43.8898878" lon="12.9421372"><ele>51.0</ele><time>2026-04-19T08:41:33.47Z</time></trkpt><trkpt lat="43.8899249" lon="12.9422124"><ele>51.0</ele><time>2026-04-19T08:41:34.473Z</time></trkpt><trkpt lat="43.8899735" lon="12.942282"><ele>51.0</ele><time>2026-04-19T08:41:35.474Z</time></trkpt><trkpt lat="43.890055" lon="12.9424169"><ele>51.0</ele><time>2026-04-19T08:41:37.468Z</time></trkpt><trkpt lat="43.8901291" lon="12.9425382"><ele>51.0</ele><time>2026-04-19T08:41:39.467Z</time></trkpt><trkpt lat="43.8901987" lon="12.9426717"><ele>51.4</ele><time>2026-04-19T08:41:41.474Z</time></trkpt><trkpt lat="43.8902444" lon="12.9427402"><ele>51.8</ele><time>2026-04-19T08:41:42.47Z</time></trkpt><trkpt lat="43.8903266" lon="12.9428681"><ele>52.199999999999996</ele><time>2026-04-19T08:41:44.475Z</time></trkpt><trkpt lat="43.8903656" lon="12.9429384"><ele>52.599999999999994</ele><time>2026-04-19T08:41:45.469Z</time></trkpt><trkpt lat="43.8904404" lon="12.9430697"><ele>53.0</ele><time>2026-04-19T08:41:47.474Z</time></trkpt><trkpt lat="43.8905093" lon="12.94319"><ele>53.0</ele><time>2026-04-19T08:41:49.467Z</time></trkpt><trkpt lat="43.8905816" lon="12.9433132"><ele>53.0</ele><time>2026-04-19T08:41:51.473Z</time></trkpt><trkpt lat="43.8906528" lon="12.9434419"><ele>53.0</ele><time>2026-04-19T08:41:53.467Z</time></trkpt><trkpt lat="43.8907242" lon="12.9435547"><ele>53.0</ele><time>2026-04-19T08:41:55.475Z</time></trkpt><trkpt lat="43.8907943" lon="12.9436396"><ele>53.0</ele><time>2026-04-19T08:41:57.468Z</time></trkpt><trkpt lat="43.8908653" lon="12.9437137"><ele>54.0</ele><time>2026-04-19T08:41:59.47Z</time></trkpt><trkpt lat="43.8909415" lon="12.9438163"><ele>55.0</ele><time>2026-04-19T08:42:01.469Z</time></trkpt><trkpt lat="43.8909914" lon="12.9439461"><ele>56.0</ele><time>2026-04-19T08:42:03.477Z</time></trkpt><trkpt lat="43.8910537" lon="12.9440488"><ele>57.0</ele><time>2026-04-19T08:42:05.48Z</time></trkpt><trkpt lat="43.8911096" lon="12.9441108"><ele>58.0</ele><time>2026-04-19T08:42:07.498Z</time></trkpt><trkpt lat="43.8911441" lon="12.9442121"><ele>58.666666666666664</ele><time>2026-04-19T08:42:08.467Z</time></trkpt><trkpt lat="43.8911777" lon="12.9442987"><ele>59.33333333333333</ele><time>2026-04-19T08:42:09.47Z</time></trkpt><trkpt lat="43.8912496" lon="12.9443648"><ele>60.0</ele><time>2026-04-19T08:42:11.478Z</time></trkpt><trkpt lat="43.8912891" lon="12.9444653"><ele>60.66666666666667</ele><time>2026-04-19T08:42:12.47Z</time></trkpt><trkpt lat="43.8913519" lon="12.9445878"><ele>61.333333333333336</ele><time>2026-04-19T08:42:14.475Z</time></trkpt><trkpt lat="43.8913913" lon="12.944697"><ele>62.0</ele><time>2026-04-19T08:42:16.472Z</time></trkpt><trkpt lat="43.8914161" lon="12.9447901"><ele>62.0</ele><time>2026-04-19T08:42:17.472Z</time></trkpt><trkpt lat="43.8914418" lon="12.9449499"><ele>62.0</ele><time>2026-04-19T08:42:19.466Z</time></trkpt><trkpt lat="43.8914687" lon="12.9450966"><ele>62.0</ele><time>2026-04-19T08:42:21.475Z</time></trkpt><trkpt lat="43.8914442" lon="12.9451912"><ele>62.0</ele><time>2026-04-19T08:42:23.473Z</time></trkpt><trkpt lat="43.891401" lon="12.9452714"><ele>62.0</ele><time>2026-04-19T08:42:25.47Z</time></trkpt><trkpt lat="43.8913645" lon="12.9453714"><ele>61.833333333333336</ele><time>2026-04-19T08:42:27.467Z</time></trkpt><trkpt lat="43.8913013" lon="12.9454376"><ele>61.66666666666667</ele><time>2026-04-19T08:42:29.474Z</time></trkpt><trkpt lat="43.8912589" lon="12.9455402"><ele>61.5</ele><time>2026-04-19T08:42:31.468Z</time></trkpt><trkpt lat="43.8911903" lon="12.9456415"><ele>61.33333333333333</ele><time>2026-04-19T08:42:34.473Z</time></trkpt><trkpt lat="43.8911412" lon="12.9457361"><ele>61.166666666666664</ele><time>2026-04-19T08:42:36.466Z</time></trkpt><trkpt lat="43.8911235" lon="12.945826"><ele>61.0</ele><time>2026-04-19T08:42:38.466Z</time></trkpt><trkpt lat="43.8910774" lon="12.9459188"><ele>62.83333333333333</ele><time>2026-04-19T08:42:40.466Z</time></trkpt><trkpt lat="43.8910296" lon="12.9460031"><ele>64.66666666666666</ele><time>2026-04-19T08:42:42.466Z</time></trkpt><trkpt lat="43.8909891" lon="12.9461057"><ele>66.5</ele><time>2026-04-19T08:42:44.474Z</time></trkpt><trkpt lat="43.8909354" lon="12.9461911"><ele>68.33333333333333</ele><time>2026-04-19T08:42:46.465Z</time></trkpt><trkpt lat="43.8909096" lon="12.9462916"><ele>70.16666666666667</ele><time>2026-04-19T08:42:48.467Z</time></trkpt><trkpt lat="43.8908737" lon="12.946364"><ele>72.0</ele><time>2026-04-19T08:42:50.474Z</time></trkpt><trkpt lat="43.8908267" lon="12.9464398"><ele>72.0</ele><time>2026-04-19T08:42:52.471Z</time></trkpt><trkpt lat="43.8907846" lon="12.9465157"><ele>72.0</ele><time>2026-04-19T08:42:54.472Z</time></trkpt><trkpt lat="43.8907451" lon="12.9465911"><ele>72.0</ele><time>2026-04-19T08:42:56.468Z</time></trkpt><trkpt lat="43.8907016" lon="12.9467017"><ele>72.0</ele><time>2026-04-19T08:42:58.469Z</time></trkpt><trkpt lat="43.8906523" lon="12.9467909"><ele>72.0</ele><time>2026-04-19T08:43:00.468Z</time></trkpt><trkpt lat="43.8905703" lon="12.9468909"><ele>72.0</ele><time>2026-04-19T08:43:02.469Z</time></trkpt><trkpt lat="43.8904813" lon="12.946965"><ele>68.0</ele><time>2026-04-19T08:43:04.464Z</time></trkpt><trkpt lat="43.890433" lon="12.9470804"><ele>64.0</ele><time>2026-04-19T08:43:06.471Z</time></trkpt><trkpt lat="43.8903471" lon="12.9471835"><ele>60.0</ele><time>2026-04-19T08:43:08.472Z</time></trkpt><trkpt lat="43.8902923" lon="12.9472991"><ele>56.0</ele><time>2026-04-19T08:43:11.47Z</time></trkpt><trkpt lat="43.8901746" lon="12.9473788"><ele>52.0</ele><time>2026-04-19T08:43:13.472Z</time></trkpt><trkpt lat="43.8901137" lon="12.9474206"><ele>52.400000000000006</ele><time>2026-04-19T08:43:14.467Z</time></trkpt><trkpt lat="43.8900092" lon="12.9474958"><ele>52.800000000000004</ele><time>2026-04-19T08:43:16.477Z</time></trkpt><trkpt lat="43.8899473" lon="12.9475438"><ele>53.2</ele><time>2026-04-19T08:43:17.467Z</time></trkpt><trkpt lat="43.8898526" lon="12.9476415"><ele>53.6</ele><time>2026-04-19T08:43:19.473Z</time></trkpt><trkpt lat="43.8897569" lon="12.9476802"><ele>54.0</ele><time>2026-04-19T08:43:20.479Z</time></trkpt><trkpt lat="43.8896575" lon="12.947772"><ele>54.0</ele><time>2026-04-19T08:43:22.466Z</time></trkpt><trkpt lat="43.8895623" lon="12.9478762"><ele>54.0</ele><time>2026-04-19T08:43:24.47Z</time></trkpt><trkpt lat="43.8894932" lon="12.947928"><ele>54.0</ele><time>2026-04-19T08:43:25.476Z</time></trkpt><trkpt lat="43.8894293" lon="12.9479802"><ele>54.0</ele><time>2026-04-19T08:43:26.471Z</time></trkpt><trkpt lat="43.8893674" lon="12.9480385"><ele>54.0</ele><time>2026-04-19T08:43:27.473Z</time></trkpt><trkpt lat="43.8892937" lon="12.9480869"><ele>54.0</ele><time>2026-04-19T08:43:28.472Z</time></trkpt><trkpt lat="43.8892377" lon="12.9481462"><ele>54.400000000000006</ele><time>2026-04-19T08:43:29.469Z</time></trkpt><trkpt lat="43.8891636" lon="12.9482068"><ele>54.800000000000004</ele><time>2026-04-19T08:43:30.471Z</time></trkpt><trkpt lat="43.8891044" lon="12.9482653"><ele>55.199999999999996</ele><time>2026-04-19T08:43:31.467Z</time></trkpt><trkpt lat="43.8890051" lon="12.9483985"><ele>55.599999999999994</ele><time>2026-04-19T08:43:33.472Z</time></trkpt><trkpt lat="43.8889612" lon="12.9484625"><ele>56.0</ele><time>2026-04-19T08:43:34.471Z</time></trkpt><trkpt lat="43.8888803" lon="12.9485752"><ele>56.0</ele><time>2026-04-19T08:43:36.466Z</time></trkpt><trkpt lat="43.8887933" lon="12.9486812"><ele>55.99999999999999</ele><time>2026-04-19T08:43:38.471Z</time></trkpt><trkpt lat="43.8887157" lon="12.9487938"><ele>55.99999999999999</ele><time>2026-04-19T08:43:40.472Z</time></trkpt><trkpt lat="43.8886485" lon="12.9488999"><ele>56.0</ele><time>2026-04-19T08:43:42.466Z</time></trkpt><trkpt lat="43.8885769" lon="12.9490027"><ele>56.0</ele><time>2026-04-19T08:43:44.473Z</time></trkpt><trkpt lat="43.8885277" lon="12.9490644"><ele>56.0</ele><time>2026-04-19T08:43:45.468Z</time></trkpt><trkpt lat="43.8884744" lon="12.9491711"><ele>55.99999999999999</ele><time>2026-04-19T08:43:47.472Z</time></trkpt><trkpt lat="43.8883928" lon="12.949282"><ele>55.99999999999999</ele><time>2026-04-19T08:43:49.468Z</time></trkpt><trkpt lat="43.8883291" lon="12.9493278"><ele>56.0</ele><time>2026-04-19T08:43:50.47Z</time></trkpt><trkpt lat="43.8882717" lon="12.9493812"><ele>56.0</ele><time>2026-04-19T08:43:51.468Z</time></trkpt><trkpt lat="43.8881976" lon="12.9494967"><ele>56.50000000000001</ele><time>2026-04-19T08:43:53.47Z</time></trkpt><trkpt lat="43.8881433" lon="12.9495456"><ele>57.0</ele><time>2026-04-19T08:43:54.476Z</time></trkpt><trkpt lat="43.888051" lon="12.9496515"><ele>57.5</ele><time>2026-04-19T08:43:56.47Z</time></trkpt><trkpt lat="43.8879929" lon="12.9497067"><ele>58.0</ele><time>2026-04-19T08:43:57.468Z</time></trkpt><trkpt lat="43.8879337" lon="12.9497683"><ele>58.50000000000001</ele><time>2026-04-19T08:43:58.466Z</time></trkpt><trkpt lat="43.8878552" lon="12.9498316"><ele>59.0</ele><time>2026-04-19T08:43:59.469Z</time></trkpt><trkpt lat="43.8877837" lon="12.9498992"><ele>59.00000000000001</ele><time>2026-04-19T08:44:00.471Z</time></trkpt><trkpt lat="43.8877422" lon="12.9499797"><ele>59.0</ele><time>2026-04-19T08:44:01.473Z</time></trkpt><trkpt lat="43.8876995" lon="12.950074"><ele>59.0</ele><time>2026-04-19T08:44:02.469Z</time></trkpt><trkpt lat="43.8876665" lon="12.9501742"><ele>59.0</ele><time>2026-04-19T08:44:03.464Z</time></trkpt><trkpt lat="43.8876216" lon="12.9502911"><ele>59.00000000000001</ele><time>2026-04-19T08:44:04.465Z</time></trkpt><trkpt lat="43.8875861" lon="12.9503997"><ele>59.0</ele><time>2026-04-19T08:44:05.475Z</time></trkpt><trkpt lat="43.8875323" lon="12.9505159"><ele>60.6</ele><time>2026-04-19T08:44:06.47Z</time></trkpt><trkpt lat="43.8874926" lon="12.9506428"><ele>62.2</ele><time>2026-04-19T08:44:07.468Z</time></trkpt><trkpt lat="43.8874637" lon="12.9507822"><ele>63.800000000000004</ele><time>2026-04-19T08:44:08.475Z</time></trkpt><trkpt lat="43.887427" lon="12.9509085"><ele>65.4</ele><time>2026-04-19T08:44:09.473Z</time></trkpt><trkpt lat="43.8873803" lon="12.9510416"><ele>67.0</ele><time>2026-04-19T08:44:10.467Z</time></trkpt><trkpt lat="43.887341" lon="12.951181"><ele>61.0</ele><time>2026-04-19T08:44:11.477Z</time></trkpt><trkpt lat="43.8872749" lon="12.9513162"><ele>55.0</ele><time>2026-04-19T08:44:12.468Z</time></trkpt><trkpt lat="43.887214" lon="12.9514489"><ele>49.0</ele><time>2026-04-19T08:44:13.471Z</time></trkpt><trkpt lat="43.887125" lon="12.9515826"><ele>43.0</ele><time>2026-04-19T08:44:14.472Z</time></trkpt><trkpt lat="43.8870385" lon="12.951696"><ele>44.25</ele><time>2026-04-19T08:44:15.474Z</time></trkpt><trkpt lat="43.8868984" lon="12.9518004"><ele>45.5</ele><time>2026-04-19T08:44:16.47Z</time></trkpt><trkpt lat="43.8868023" lon="12.9519033"><ele>46.75</ele><time>2026-04-19T08:44:17.468Z</time></trkpt><trkpt lat="43.8866885" lon="12.9520064"><ele>48.0</ele><time>2026-04-19T08:44:18.475Z</time></trkpt><trkpt lat="43.8865928" lon="12.9521094"><ele>48.0</ele><time>2026-04-19T08:44:19.467Z</time></trkpt><trkpt lat="43.8865022" lon="12.9522227"><ele>48.0</ele><time>2026-04-19T08:44:20.474Z</time></trkpt><trkpt lat="43.8864098" lon="12.9523285"><ele>48.0</ele><time>2026-04-19T08:44:21.47Z</time></trkpt><trkpt lat="43.8862932" lon="12.95244"><ele>48.0</ele><time>2026-04-19T08:44:22.467Z</time></trkpt><trkpt lat="43.8861901" lon="12.9525614"><ele>48.25</ele><time>2026-04-19T08:44:23.467Z</time></trkpt><trkpt lat="43.8860944" lon="12.9526829"><ele>48.5</ele><time>2026-04-19T08:44:24.463Z</time></trkpt><trkpt lat="43.8860188" lon="12.9528135"><ele>48.75</ele><time>2026-04-19T08:44:25.469Z</time></trkpt><trkpt lat="43.8859531" lon="12.9529405"><ele>49.0</ele><time>2026-04-19T08:44:26.463Z</time></trkpt><trkpt lat="43.8859146" lon="12.9530745"><ele>49.0</ele><time>2026-04-19T08:44:27.486Z</time></trkpt><trkpt lat="43.885854" lon="12.9532214"><ele>49.0</ele><time>2026-04-19T08:44:28.498Z</time></trkpt><trkpt lat="43.8857946" lon="12.9533548"><ele>49.0</ele><time>2026-04-19T08:44:29.475Z</time></trkpt><trkpt lat="43.8857428" lon="12.953508"><ele>49.0</ele><time>2026-04-19T08:44:30.467Z</time></trkpt><trkpt lat="43.8856798" lon="12.9536601"><ele>46.0</ele><time>2026-04-19T08:44:31.477Z</time></trkpt><trkpt lat="43.8856096" lon="12.9537899"><ele>43.0</ele><time>2026-04-19T08:44:32.469Z</time></trkpt><trkpt lat="43.8855484" lon="12.9539356"><ele>40.0</ele><time>2026-04-19T08:44:33.468Z</time></trkpt><trkpt lat="43.8854901" lon="12.9540665"><ele>37.0</ele><time>2026-04-19T08:44:34.471Z</time></trkpt><trkpt lat="43.8854256" lon="12.9541967"><ele>30.75</ele><time>2026-04-19T08:44:35.47Z</time></trkpt><trkpt lat="43.885353" lon="12.9543387"><ele>24.5</ele><time>2026-04-19T08:44:36.468Z</time></trkpt><trkpt lat="43.8852846" lon="12.9544898"><ele>18.25</ele><time>2026-04-19T08:44:37.485Z</time></trkpt><trkpt lat="43.8852205" lon="12.954641"><ele>12.0</ele><time>2026-04-19T08:44:38.475Z</time></trkpt><trkpt lat="43.8851516" lon="12.954801"><ele>14.0</ele><time>2026-04-19T08:44:39.473Z</time></trkpt><trkpt lat="43.8850827" lon="12.9549518"><ele>16.0</ele><time>2026-04-19T08:44:40.469Z</time></trkpt><trkpt lat="43.8850341" lon="12.9550926"><ele>18.0</ele><time>2026-04-19T08:44:41.466Z</time></trkpt><trkpt lat="43.8849602" lon="12.9552291"><ele>20.0</ele><time>2026-04-19T08:44:42.474Z</time></trkpt><trkpt lat="43.884899" lon="12.9553638"><ele>20.0</ele><time>2026-04-19T08:44:43.474Z</time></trkpt><trkpt lat="43.8848401" lon="12.9555042"><ele>20.0</ele><time>2026-04-19T08:44:44.471Z</time></trkpt><trkpt lat="43.8847783" lon="12.9556411"><ele>20.0</ele><time>2026-04-19T08:44:45.471Z</time></trkpt><trkpt lat="43.8847186" lon="12.9557877"><ele>20.0</ele><time>2026-04-19T08:44:46.467Z</time></trkpt><trkpt lat="43.8846472" lon="12.9559119"><ele>16.0</ele><time>2026-04-19T08:44:47.465Z</time></trkpt><trkpt lat="43.8845829" lon="12.9560373"><ele>12.0</ele><time>2026-04-19T08:44:48.476Z</time></trkpt><trkpt lat="43.8845071" lon="12.9561737"><ele>8.0</ele><time>2026-04-19T08:44:49.467Z</time></trkpt><trkpt lat="43.8843628" lon="12.9562817"><ele>4.0</ele><time>2026-04-19T08:44:50.47Z</time></trkpt><trkpt lat="43.8842821" lon="12.9563912"><ele>4.5</ele><time>2026-04-19T08:44:51.475Z</time></trkpt><trkpt lat="43.8841591" lon="12.9564821"><ele>5.0</ele><time>2026-04-19T08:44:52.464Z</time></trkpt><trkpt lat="43.8840756" lon="12.9565784"><ele>5.5</ele><time>2026-04-19T08:44:53.466Z</time></trkpt><trkpt lat="43.8839833" lon="12.9566798"><ele>6.0</ele><time>2026-04-19T08:44:54.468Z</time></trkpt><trkpt lat="43.8839072" lon="12.9567798"><ele>6.0</ele><time>2026-04-19T08:44:55.475Z</time></trkpt><trkpt lat="43.8838233" lon="12.9568742"><ele>6.0</ele><time>2026-04-19T08:44:56.468Z</time></trkpt><trkpt lat="43.8837551" lon="12.9569702"><ele>6.0</ele><time>2026-04-19T08:44:57.467Z</time></trkpt><trkpt lat="43.8836908" lon="12.9570618"><ele>6.0</ele><time>2026-04-19T08:44:58.476Z</time></trkpt><trkpt lat="43.8836253" lon="12.9571489"><ele>6.0</ele><time>2026-04-19T08:44:59.473Z</time></trkpt><trkpt lat="43.8835486" lon="12.9572341"><ele>6.0</ele><time>2026-04-19T08:45:00.465Z</time></trkpt><trkpt lat="43.8834896" lon="12.9573193"><ele>6.0</ele><time>2026-04-19T08:45:01.471Z</time></trkpt><trkpt lat="43.8834278" lon="12.9574054"><ele>6.0</ele><time>2026-04-19T08:45:02.47Z</time></trkpt><trkpt lat="43.8833631" lon="12.9574876"><ele>6.0</ele><time>2026-04-19T08:45:03.467Z</time></trkpt><trkpt lat="43.8833082" lon="12.9575663"><ele>6.0</ele><time>2026-04-19T08:45:04.473Z</time></trkpt><trkpt lat="43.8832481" lon="12.9576462"><ele>6.0</ele><time>2026-04-19T08:45:05.475Z</time></trkpt><trkpt lat="43.8831884" lon="12.9577235"><ele>6.833333333333333</ele><time>2026-04-19T08:45:06.469Z</time></trkpt><trkpt lat="43.8831201" lon="12.9577972"><ele>7.666666666666666</ele><time>2026-04-19T08:45:07.463Z</time></trkpt><trkpt lat="43.8830541" lon="12.9578801"><ele>8.5</ele><time>2026-04-19T08:45:08.473Z</time></trkpt><trkpt lat="43.8829858" lon="12.9579541"><ele>9.333333333333332</ele><time>2026-04-19T08:45:09.47Z</time></trkpt><trkpt lat="43.8829219" lon="12.9580233"><ele>10.166666666666666</ele><time>2026-04-19T08:45:10.466Z</time></trkpt><trkpt lat="43.882851" lon="12.9580841"><ele>11.0</ele><time>2026-04-19T08:45:11.477Z</time></trkpt><trkpt lat="43.8827741" lon="12.9581514"><ele>11.0</ele><time>2026-04-19T08:45:12.474Z</time></trkpt><trkpt lat="43.8826929" lon="12.9582175"><ele>11.0</ele><time>2026-04-19T08:45:13.469Z</time></trkpt><trkpt lat="43.8826171" lon="12.9582879"><ele>11.0</ele><time>2026-04-19T08:45:14.475Z</time></trkpt><trkpt lat="43.8825383" lon="12.9583521"><ele>11.0</ele><time>2026-04-19T08:45:15.475Z</time></trkpt><trkpt lat="43.8824542" lon="12.9584117"><ele>11.0</ele><time>2026-04-19T08:45:16.464Z</time></trkpt><trkpt lat="43.8823763" lon="12.958477"><ele>12.0</ele><time>2026-04-19T08:45:17.467Z</time></trkpt><trkpt lat="43.8822743" lon="12.9585429"><ele>13.0</ele><time>2026-04-19T08:45:18.47Z</time></trkpt><trkpt lat="43.882196" lon="12.9586196"><ele>14.000000000000002</ele><time>2026-04-19T08:45:19.465Z</time></trkpt><trkpt lat="43.8821177" lon="12.9586868"><ele>15.0</ele><time>2026-04-19T08:45:20.466Z</time></trkpt><trkpt lat="43.882038" lon="12.9587532"><ele>16.0</ele><time>2026-04-19T08:45:21.469Z</time></trkpt><trkpt lat="43.8819542" lon="12.9588158"><ele>16.0</ele><time>2026-04-19T08:45:22.468Z</time></trkpt><trkpt lat="43.8818673" lon="12.9588834"><ele>16.0</ele><time>2026-04-19T08:45:23.47Z</time></trkpt><trkpt lat="43.8817634" lon="12.9589506"><ele>16.0</ele><time>2026-04-19T08:45:24.476Z</time></trkpt><trkpt lat="43.8816781" lon="12.9590259"><ele>16.0</ele><time>2026-04-19T08:45:25.478Z</time></trkpt><trkpt lat="43.8815862" lon="12.9590942"><ele>16.0</ele><time>2026-04-19T08:45:26.469Z</time></trkpt><trkpt lat="43.8815098" lon="12.9591694"><ele>16.2</ele><time>2026-04-19T08:45:27.475Z</time></trkpt><trkpt lat="43.8814259" lon="12.9592388"><ele>16.400000000000002</ele><time>2026-04-19T08:45:28.465Z</time></trkpt><trkpt lat="43.8813319" lon="12.9593108"><ele>16.6</ele><time>2026-04-19T08:45:29.474Z</time></trkpt><trkpt lat="43.8812353" lon="12.9593747"><ele>16.8</ele><time>2026-04-19T08:45:30.464Z</time></trkpt><trkpt lat="43.8811533" lon="12.9594536"><ele>17.0</ele><time>2026-04-19T08:45:31.476Z</time></trkpt><trkpt lat="43.8810723" lon="12.9595352"><ele>17.0</ele><time>2026-04-19T08:45:32.47Z</time></trkpt><trkpt lat="43.8810063" lon="12.9596053"><ele>17.0</ele><time>2026-04-19T08:45:33.468Z</time></trkpt><trkpt lat="43.8809185" lon="12.9596832"><ele>17.0</ele><time>2026-04-19T08:45:34.472Z</time></trkpt><trkpt lat="43.8808281" lon="12.9597669"><ele>17.0</ele><time>2026-04-19T08:45:35.469Z</time></trkpt><trkpt lat="43.8807328" lon="12.9598603"><ele>17.0</ele><time>2026-04-19T08:45:36.468Z</time></trkpt><trkpt lat="43.8806514" lon="12.9599544"><ele>15.25</ele><time>2026-04-19T08:45:37.473Z</time></trkpt><trkpt lat="43.8805658" lon="12.9600566"><ele>13.5</ele><time>2026-04-19T08:45:38.475Z</time></trkpt><trkpt lat="43.8804623" lon="12.9601603"><ele>11.75</ele><time>2026-04-19T08:45:39.47Z</time></trkpt><trkpt lat="43.8803864" lon="12.9602635"><ele>10.0</ele><time>2026-04-19T08:45:40.471Z</time></trkpt><trkpt lat="43.8803103" lon="12.9603607"><ele>10.0</ele><time>2026-04-19T08:45:41.475Z</time></trkpt><trkpt lat="43.8802277" lon="12.9604557"><ele>10.0</ele><time>2026-04-19T08:45:42.472Z</time></trkpt><trkpt lat="43.8801576" lon="12.9605648"><ele>10.0</ele><time>2026-04-19T08:45:43.467Z</time></trkpt><trkpt lat="43.8800984" lon="12.9606818"><ele>10.0</ele><time>2026-04-19T08:45:44.467Z</time></trkpt><trkpt lat="43.8800511" lon="12.9608127"><ele>10.0</ele><time>2026-04-19T08:45:45.474Z</time></trkpt><trkpt lat="43.8800122" lon="12.9609505"><ele>8.8</ele><time>2026-04-19T08:45:46.477Z</time></trkpt><trkpt lat="43.8800208" lon="12.9610701"><ele>7.6</ele><time>2026-04-19T08:45:47.474Z</time></trkpt><trkpt lat="43.880028" lon="12.9612065"><ele>6.4</ele><time>2026-04-19T08:45:48.471Z</time></trkpt><trkpt lat="43.8800635" lon="12.9613195"><ele>5.2</ele><time>2026-04-19T08:45:49.468Z</time></trkpt><trkpt lat="43.8801314" lon="12.9614091"><ele>4.0</ele><time>2026-04-19T08:45:50.48Z</time></trkpt><trkpt lat="43.8801942" lon="12.9615034"><ele>3.833333333333333</ele><time>2026-04-19T08:45:51.471Z</time></trkpt><trkpt lat="43.8802593" lon="12.9615946"><ele>3.6666666666666665</ele><time>2026-04-19T08:45:52.465Z</time></trkpt><trkpt lat="43.8803146" lon="12.9616576"><ele>3.5</ele><time>2026-04-19T08:45:53.466Z</time></trkpt><trkpt lat="43.880354" lon="12.9617646"><ele>3.333333333333333</ele><time>2026-04-19T08:45:54.474Z</time></trkpt><trkpt lat="43.8804003" lon="12.9618799"><ele>3.1666666666666665</ele><time>2026-04-19T08:45:55.476Z</time></trkpt><trkpt lat="43.8804319" lon="12.9619703"><ele>3.0</ele><time>2026-04-19T08:45:56.475Z</time></trkpt><trkpt lat="43.8804471" lon="12.9620654"><ele>2.6666666666666665</ele><time>2026-04-19T08:45:57.476Z</time></trkpt><trkpt lat="43.8804533" lon="12.9621737"><ele>2.3333333333333335</ele><time>2026-04-19T08:45:58.464Z</time></trkpt><trkpt lat="43.8804491" lon="12.9622756"><ele>2.0</ele><time>2026-04-19T08:45:59.47Z</time></trkpt><trkpt lat="43.880436" lon="12.9623651"><ele>1.6666666666666665</ele><time>2026-04-19T08:46:00.471Z</time></trkpt><trkpt lat="43.8803547" lon="12.9624605"><ele>1.3333333333333333</ele><time>2026-04-19T08:46:02.47Z</time></trkpt><trkpt lat="43.8802769" lon="12.9625688"><ele>1.0</ele><time>2026-04-19T08:46:04.468Z</time></trkpt><trkpt lat="43.8802358" lon="12.9626674"><ele>0.8333333333333333</ele><time>2026-04-19T08:46:05.463Z</time></trkpt><trkpt lat="43.8801857" lon="12.9627888"><ele>0.6666666666666666</ele><time>2026-04-19T08:46:07.48Z</time></trkpt><trkpt lat="43.8801419" lon="12.9628961"><ele>0.5</ele><time>2026-04-19T08:46:09.465Z</time></trkpt><trkpt lat="43.8801021" lon="12.9629674"><ele>0.3333333333333333</ele><time>2026-04-19T08:46:11.468Z</time></trkpt><trkpt lat="43.8800668" lon="12.9630441"><ele>0.16666666666666666</ele><time>2026-04-19T08:46:14.466Z</time></trkpt><trkpt lat="43.8801106" lon="12.9631179"><ele>0.0</ele><time>2026-04-19T08:46:20.465Z</time></trkpt><trkpt lat="43.8801727" lon="12.9630813"><ele>0.0</ele><time>2026-04-19T08:46:22.476Z</time></trkpt><trkpt lat="43.8802461" lon="12.9629955"><ele>0.0</ele><time>2026-04-19T08:46:24.471Z</time></trkpt><trkpt lat="43.8803137" lon="12.9629119"><ele>0.0</ele><time>2026-04-19T08:46:26.47Z</time></trkpt><trkpt lat="43.8803736" lon="12.9628155"><ele>0.0</ele><time>2026-04-19T08:46:28.473Z</time></trkpt><trkpt lat="43.8804295" lon="12.9627036"><ele>0.0</ele><time>2026-04-19T08:46:30.475Z</time></trkpt><trkpt lat="43.8804789" lon="12.9625861"><ele>0.25</ele><time>2026-04-19T08:46:32.469Z</time></trkpt><trkpt lat="43.8805379" lon="12.9624779"><ele>0.5</ele><time>2026-04-19T08:46:34.469Z</time></trkpt><trkpt lat="43.8806176" lon="12.9623571"><ele>0.75</ele><time>2026-04-19T08:46:36.468Z</time></trkpt><trkpt lat="43.8806856" lon="12.9622054"><ele>1.0</ele><time>2026-04-19T08:46:38.474Z</time></trkpt><trkpt lat="43.8807617" lon="12.9620882"><ele>0.9999999999999999</ele><time>2026-04-19T08:46:40.464Z</time></trkpt><trkpt lat="43.8808158" lon="12.962019"><ele>1.0</ele><time>2026-04-19T08:46:42.471Z</time></trkpt><trkpt lat="43.8808771" lon="12.9620474"><ele>1.0</ele><time>2026-04-19T08:46:46.465Z</time></trkpt><trkpt lat="43.880941" lon="12.9620715"><ele>1.0</ele><time>2026-04-19T08:46:49.473Z</time></trkpt><trkpt lat="43.8810439" lon="12.9621825"><ele>0.9999999999999999</ele><time>2026-04-19T08:46:51.475Z</time></trkpt><trkpt lat="43.8810789" lon="12.9623086"><ele>1.0</ele><time>2026-04-19T08:46:53.472Z</time></trkpt><trkpt lat="43.8810924" lon="12.9625138"><ele>0.8333333333333333</ele><time>2026-04-19T08:46:55.473Z</time></trkpt><trkpt lat="43.8810602" lon="12.9626237"><ele>0.6666666666666666</ele><time>2026-04-19T08:46:57.474Z</time></trkpt><trkpt lat="43.8810202" lon="12.9627602"><ele>0.5</ele><time>2026-04-19T08:46:59.468Z</time></trkpt><trkpt lat="43.880966" lon="12.9628446"><ele>0.3333333333333333</ele><time>2026-04-19T08:47:01.479Z</time></trkpt><trkpt lat="43.8809234" lon="12.962916"><ele>0.16666666666666666</ele><time>2026-04-19T08:47:03.466Z</time></trkpt><trkpt lat="43.8808951" lon="12.9630042"><ele>0.0</ele><time>2026-04-19T08:47:06.475Z</time></trkpt><trkpt lat="43.880866" lon="12.9630941"><ele>0.0</ele><time>2026-04-19T08:47:09.475Z</time></trkpt><trkpt lat="43.8808231" lon="12.9632138"><ele>0.0</ele><time>2026-04-19T08:47:12.465Z</time></trkpt><trkpt lat="43.8807639" lon="12.9632982"><ele>0.0</ele><time>2026-04-19T08:47:14.474Z</time></trkpt><trkpt lat="43.88067" lon="12.9633848"><ele>0.0</ele><time>2026-04-19T08:47:16.471Z</time></trkpt><trkpt lat="43.8806164" lon="12.9634873"><ele>0.0</ele><time>2026-04-19T08:47:18.478Z</time></trkpt><trkpt lat="43.8805205" lon="12.9635812"><ele>0.0</ele><time>2026-04-19T08:47:20.473Z</time></trkpt><trkpt lat="43.8804372" lon="12.9636709"><ele>0.0</ele><time>2026-04-19T08:47:22.472Z</time></trkpt><trkpt lat="43.8803719" lon="12.963766"><ele>0.0</ele><time>2026-04-19T08:47:24.467Z</time></trkpt><trkpt lat="43.8802976" lon="12.963859"><ele>0.0</ele><time>2026-04-19T08:47:26.462Z</time></trkpt><trkpt lat="43.8802455" lon="12.9639491"><ele>0.0</ele><time>2026-04-19T08:47:28.472Z</time></trkpt><trkpt lat="43.8801883" lon="12.9640299"><ele>0.0</ele><time>2026-04-19T08:47:30.472Z</time></trkpt><trkpt lat="43.880118" lon="12.9641137"><ele>0.0</ele><time>2026-04-19T08:47:32.48Z</time></trkpt><trkpt lat="43.8800455" lon="12.964199"><ele>0.0</ele><time>2026-04-19T08:47:34.469Z</time></trkpt><trkpt lat="43.8799709" lon="12.9642852"><ele>0.0</ele><time>2026-04-19T08:47:36.469Z</time></trkpt><trkpt lat="43.8799161" lon="12.9643768"><ele>0.0</ele><time>2026-04-19T08:47:38.473Z</time></trkpt><trkpt lat="43.8798795" lon="12.964467"><ele>0.0</ele><time>2026-04-19T08:47:40.491Z</time></trkpt><trkpt lat="43.8798115" lon="12.9645459"><ele>0.0</ele><time>2026-04-19T08:47:42.471Z</time></trkpt><trkpt lat="43.8797647" lon="12.9646359"><ele>0.0</ele><time>2026-04-19T08:47:44.467Z</time></trkpt><trkpt lat="43.8797016" lon="12.9647303"><ele>0.0</ele><time>2026-04-19T08:47:46.49Z</time></trkpt><trkpt lat="43.8796484" lon="12.9648171"><ele>0.0</ele><time>2026-04-19T08:47:48.469Z</time></trkpt><trkpt lat="43.879585" lon="12.9648921"><ele>0.0</ele><time>2026-04-19T08:47:50.485Z</time></trkpt><trkpt lat="43.879516" lon="12.9649548"><ele>0.0</ele><time>2026-04-19T08:47:52.466Z</time></trkpt><trkpt lat="43.8794568" lon="12.9650087"><ele>0.0</ele><time>2026-04-19T08:47:54.473Z</time></trkpt><trkpt lat="43.8793763" lon="12.9650683"><ele>0.0</ele><time>2026-04-19T08:47:57.465Z</time></trkpt><trkpt lat="43.8793028" lon="12.9650956"><ele>0.0</ele><time>2026-04-19T08:48:00.476Z</time></trkpt><trkpt lat="43.8792408" lon="12.9651259"><ele>0.0</ele><time>2026-04-19T08:48:04.475Z</time></trkpt><trkpt lat="43.8793308" lon="12.9650973"><ele>0.0</ele><time>2026-04-19T08:48:15.466Z</time></trkpt><trkpt lat="43.8793864" lon="12.9650399"><ele>0.0</ele><time>2026-04-19T08:48:17.473Z</time></trkpt><trkpt lat="43.8794411" lon="12.9649686"><ele>0.0</ele><time>2026-04-19T08:48:19.472Z</time></trkpt><trkpt lat="43.8795005" lon="12.964898"><ele>0.0</ele><time>2026-04-19T08:48:21.471Z</time></trkpt><trkpt lat="43.8795604" lon="12.9648216"><ele>0.0</ele><time>2026-04-19T08:48:23.477Z</time></trkpt><trkpt lat="43.8796143" lon="12.9647578"><ele>0.0</ele><time>2026-04-19T08:48:25.482Z</time></trkpt><trkpt lat="43.8796754" lon="12.9646879"><ele>0.0</ele><time>2026-04-19T08:48:28.465Z</time></trkpt><trkpt lat="43.879718" lon="12.9646012"><ele>0.0</ele><time>2026-04-19T08:48:34.469Z</time></trkpt><trkpt lat="43.8797733" lon="12.9645317"><ele>0.0</ele><time>2026-04-19T08:48:39.47Z</time></trkpt><trkpt lat="43.8798361" lon="12.96444"><ele>0.0</ele><time>2026-04-19T08:48:43.471Z</time></trkpt><trkpt lat="43.8798965" lon="12.9643577"><ele>0.0</ele><time>2026-04-19T08:48:45.469Z</time></trkpt><trkpt lat="43.8799661" lon="12.9642599"><ele>0.0</ele><time>2026-04-19T08:48:47.469Z</time></trkpt><trkpt lat="43.880039" lon="12.9641597"><ele>0.0</ele><time>2026-04-19T08:48:49.465Z</time></trkpt><trkpt lat="43.8801056" lon="12.9640845"><ele>0.0</ele><time>2026-04-19T08:48:51.475Z</time></trkpt><trkpt lat="43.8801767" lon="12.9640122"><ele>0.0</ele><time>2026-04-19T08:48:53.471Z</time></trkpt><trkpt lat="43.8802449" lon="12.9639163"><ele>0.0</ele><time>2026-04-19T08:48:55.474Z</time></trkpt><trkpt lat="43.8802969" lon="12.9638472"><ele>0.0</ele><time>2026-04-19T08:48:57.467Z</time></trkpt><trkpt lat="43.8803474" lon="12.9637755"><ele>0.0</ele><time>2026-04-19T08:48:59.47Z</time></trkpt><trkpt lat="43.8804011" lon="12.9636947"><ele>0.0</ele><time>2026-04-19T08:49:01.469Z</time></trkpt><trkpt lat="43.8804624" lon="12.9636122"><ele>0.0</ele><time>2026-04-19T08:49:03.469Z</time></trkpt><trkpt lat="43.8805338" lon="12.9635127"><ele>0.0</ele><time>2026-04-19T08:49:05.465Z</time></trkpt><trkpt lat="43.8806092" lon="12.96341"><ele>0.0</ele><time>2026-04-19T08:49:07.471Z</time></trkpt><trkpt lat="43.8806719" lon="12.9633148"><ele>0.0</ele><time>2026-04-19T08:49:09.468Z</time></trkpt><trkpt lat="43.8807252" lon="12.9632094"><ele>0.0</ele><time>2026-04-19T08:49:11.476Z</time></trkpt><trkpt lat="43.8807756" lon="12.9631462"><ele>0.0</ele><time>2026-04-19T08:49:13.473Z</time></trkpt><trkpt lat="43.8808419" lon="12.9630714"><ele>0.0</ele><time>2026-04-19T08:49:16.475Z</time></trkpt><trkpt lat="43.880897" lon="12.9629871"><ele>0.0</ele><time>2026-04-19T08:49:18.482Z</time></trkpt><trkpt lat="43.8809553" lon="12.9628974"><ele>0.0</ele><time>2026-04-19T08:49:20.484Z</time></trkpt><trkpt lat="43.881014" lon="12.9628188"><ele>0.0</ele><time>2026-04-19T08:49:22.479Z</time></trkpt><trkpt lat="43.8810665" lon="12.9627515"><ele>0.0</ele><time>2026-04-19T08:49:24.47Z</time></trkpt><trkpt lat="43.8811102" lon="12.962675"><ele>0.0</ele><time>2026-04-19T08:49:26.478Z</time></trkpt><trkpt lat="43.8811523" lon="12.9626059"><ele>0.0</ele><time>2026-04-19T08:49:28.476Z</time></trkpt><trkpt lat="43.8812047" lon="12.9625369"><ele>0.0</ele><time>2026-04-19T08:49:30.463Z</time></trkpt><trkpt lat="43.8812581" lon="12.962473"><ele>0.0</ele><time>2026-04-19T08:49:32.462Z</time></trkpt><trkpt lat="43.8813133" lon="12.9623996"><ele>0.0</ele><time>2026-04-19T08:49:34.463Z</time></trkpt><trkpt lat="43.8813598" lon="12.9623291"><ele>0.0</ele><time>2026-04-19T08:49:36.47Z</time></trkpt><trkpt lat="43.8814256" lon="12.9623024"><ele>0.0</ele><time>2026-04-19T08:49:39.466Z</time></trkpt><trkpt lat="43.8815083" lon="12.9623082"><ele>0.0</ele><time>2026-04-19T08:49:42.471Z</time></trkpt><trkpt lat="43.8815702" lon="12.9622749"><ele>0.0</ele><time>2026-04-19T08:49:44.472Z</time></trkpt><trkpt lat="43.8816467" lon="12.9622219"><ele>0.0</ele><time>2026-04-19T08:49:46.461Z</time></trkpt><trkpt lat="43.8817096" lon="12.9621707"><ele>0.0</ele><time>2026-04-19T08:49:48.478Z</time></trkpt><trkpt lat="43.8817656" lon="12.9621236"><ele>0.0</ele><time>2026-04-19T08:49:50.477Z</time></trkpt><trkpt lat="43.8818422" lon="12.9620562"><ele>0.0</ele><time>2026-04-19T08:49:53.486Z</time></trkpt><trkpt lat="43.8818996" lon="12.9619557"><ele>0.0</ele><time>2026-04-19T08:49:56.484Z</time></trkpt><trkpt lat="43.8819397" lon="12.9618877"><ele>0.0</ele><time>2026-04-19T08:49:58.476Z</time></trkpt><trkpt lat="43.8819974" lon="12.9617822"><ele>0.0</ele><time>2026-04-19T08:50:01.485Z</time></trkpt><trkpt lat="43.8820264" lon="12.9616729"><ele>0.0</ele><time>2026-04-19T08:50:04.475Z</time></trkpt><trkpt lat="43.8820609" lon="12.9615936"><ele>0.0</ele><time>2026-04-19T08:50:06.48Z</time></trkpt><trkpt lat="43.8821144" lon="12.9615167"><ele>0.0</ele><time>2026-04-19T08:50:08.484Z</time></trkpt><trkpt lat="43.8821689" lon="12.9614413"><ele>0.0</ele><time>2026-04-19T08:50:10.479Z</time></trkpt><trkpt lat="43.8822139" lon="12.9613797"><ele>0.0</ele><time>2026-04-19T08:50:12.473Z</time></trkpt><trkpt lat="43.8822752" lon="12.9613011"><ele>0.0</ele><time>2026-04-19T08:50:15.466Z</time></trkpt><trkpt lat="43.8823266" lon="12.9612113"><ele>0.0</ele><time>2026-04-19T08:50:18.464Z</time></trkpt><trkpt lat="43.8823859" lon="12.961143"><ele>0.0</ele><time>2026-04-19T08:50:21.473Z</time></trkpt><trkpt lat="43.8824435" lon="12.9610667"><ele>0.0</ele><time>2026-04-19T08:50:24.5Z</time></trkpt><trkpt lat="43.8824906" lon="12.9610015"><ele>0.0</ele><time>2026-04-19T08:50:26.464Z</time></trkpt><trkpt lat="43.8825445" lon="12.9609401"><ele>0.0</ele><time>2026-04-19T08:50:28.47Z</time></trkpt><trkpt lat="43.8825967" lon="12.9608774"><ele>0.0</ele><time>2026-04-19T08:50:30.462Z</time></trkpt><trkpt lat="43.8826394" lon="12.9608117"><ele>0.0</ele><time>2026-04-19T08:50:32.47Z</time></trkpt><trkpt lat="43.8827103" lon="12.9607258"><ele>0.0</ele><time>2026-04-19T08:50:35.468Z</time></trkpt><trkpt lat="43.8827588" lon="12.9606607"><ele>0.0</ele><time>2026-04-19T08:50:37.488Z</time></trkpt><trkpt lat="43.882822" lon="12.960564"><ele>0.0</ele><time>2026-04-19T08:50:40.467Z</time></trkpt><trkpt lat="43.8828679" lon="12.9604948"><ele>0.0</ele><time>2026-04-19T08:50:42.469Z</time></trkpt><trkpt lat="43.8829174" lon="12.9604222"><ele>0.0</ele><time>2026-04-19T08:50:44.487Z</time></trkpt><trkpt lat="43.8829634" lon="12.9603553"><ele>0.0</ele><time>2026-04-19T08:50:46.468Z</time></trkpt><trkpt lat="43.8830095" lon="12.9602819"><ele>0.0</ele><time>2026-04-19T08:50:48.465Z</time></trkpt><trkpt lat="43.8830634" lon="12.9602058"><ele>0.0</ele><time>2026-04-19T08:50:50.471Z</time></trkpt><trkpt lat="43.8831131" lon="12.9601269"><ele>0.0</ele><time>2026-04-19T08:50:52.471Z</time></trkpt><trkpt lat="43.8831629" lon="12.9600611"><ele>0.0</ele><time>2026-04-19T08:50:54.468Z</time></trkpt><trkpt lat="43.8832207" lon="12.9599908"><ele>0.0</ele><time>2026-04-19T08:50:56.466Z</time></trkpt><trkpt lat="43.883282" lon="12.959913"><ele>0.0</ele><time>2026-04-19T08:50:58.473Z</time></trkpt><trkpt lat="43.883339" lon="12.9598388"><ele>0.0</ele><time>2026-04-19T08:51:00.494Z</time></trkpt><trkpt lat="43.8833928" lon="12.9597742"><ele>0.0</ele><time>2026-04-19T08:51:02.463Z</time></trkpt><trkpt lat="43.8834568" lon="12.9597063"><ele>0.0</ele><time>2026-04-19T08:51:04.484Z</time></trkpt><trkpt lat="43.883523" lon="12.9596115"><ele>0.0</ele><time>2026-04-19T08:51:06.47Z</time></trkpt><trkpt lat="43.883597" lon="12.9595017"><ele>0.0</ele><time>2026-04-19T08:51:08.474Z</time></trkpt><trkpt lat="43.8836758" lon="12.9593995"><ele>0.0</ele><time>2026-04-19T08:51:10.469Z</time></trkpt><trkpt lat="43.8837312" lon="12.9592915"><ele>0.0</ele><time>2026-04-19T08:51:12.465Z</time></trkpt><trkpt lat="43.883799" lon="12.9591994"><ele>0.0</ele><time>2026-04-19T08:51:14.465Z</time></trkpt><trkpt lat="43.8838792" lon="12.9591189"><ele>0.0</ele><time>2026-04-19T08:51:17.462Z</time></trkpt><trkpt lat="43.8839368" lon="12.9590393"><ele>0.0</ele><time>2026-04-19T08:51:19.469Z</time></trkpt><trkpt lat="43.8840072" lon="12.9589599"><ele>0.0</ele><time>2026-04-19T08:51:22.465Z</time></trkpt><trkpt lat="43.8840727" lon="12.9588784"><ele>0.0</ele><time>2026-04-19T08:51:25.468Z</time></trkpt><trkpt lat="43.8841266" lon="12.9588063"><ele>0.0</ele><time>2026-04-19T08:51:27.473Z</time></trkpt><trkpt lat="43.8841939" lon="12.9587227"><ele>0.0</ele><time>2026-04-19T08:51:29.479Z</time></trkpt><trkpt lat="43.8842589" lon="12.9586392"><ele>0.0</ele><time>2026-04-19T08:51:31.466Z</time></trkpt><trkpt lat="43.8843329" lon="12.9585545"><ele>0.0</ele><time>2026-04-19T08:51:33.477Z</time></trkpt><trkpt lat="43.8844012" lon="12.9584424"><ele>0.0</ele><time>2026-04-19T08:51:35.484Z</time></trkpt><trkpt lat="43.8844684" lon="12.9583457"><ele>0.0</ele><time>2026-04-19T08:51:37.466Z</time></trkpt><trkpt lat="43.8845362" lon="12.9582508"><ele>0.0</ele><time>2026-04-19T08:51:39.483Z</time></trkpt><trkpt lat="43.8846011" lon="12.9581711"><ele>0.0</ele><time>2026-04-19T08:51:41.478Z</time></trkpt><trkpt lat="43.8846645" lon="12.9580807"><ele>0.0</ele><time>2026-04-19T08:51:43.465Z</time></trkpt><trkpt lat="43.8847285" lon="12.9579878"><ele>0.0</ele><time>2026-04-19T08:51:45.48Z</time></trkpt><trkpt lat="43.8848074" lon="12.9578894"><ele>0.0</ele><time>2026-04-19T08:51:47.473Z</time></trkpt><trkpt lat="43.8848763" lon="12.9577816"><ele>0.0</ele><time>2026-04-19T08:51:49.475Z</time></trkpt><trkpt lat="43.8849458" lon="12.9576783"><ele>0.0</ele><time>2026-04-19T08:51:51.477Z</time></trkpt><trkpt lat="43.8850244" lon="12.9575912"><ele>0.0</ele><time>2026-04-19T08:51:53.475Z</time></trkpt><trkpt lat="43.8851007" lon="12.9574793"><ele>0.0</ele><time>2026-04-19T08:51:55.464Z</time></trkpt><trkpt lat="43.8851743" lon="12.9573612"><ele>0.0</ele><time>2026-04-19T08:51:57.475Z</time></trkpt><trkpt lat="43.8852522" lon="12.9572492"><ele>0.0</ele><time>2026-04-19T08:51:59.477Z</time></trkpt><trkpt lat="43.8853177" lon="12.9571561"><ele>0.0</ele><time>2026-04-19T08:52:01.464Z</time></trkpt><trkpt lat="43.8853859" lon="12.957061"><ele>0.0</ele><time>2026-04-19T08:52:03.474Z</time></trkpt><trkpt lat="43.885447" lon="12.956975"><ele>0.0</ele><time>2026-04-19T08:52:05.474Z</time></trkpt><trkpt lat="43.8855153" lon="12.9568943"><ele>0.0</ele><time>2026-04-19T08:52:07.472Z</time></trkpt><trkpt lat="43.8855754" lon="12.9567945"><ele>0.0</ele><time>2026-04-19T08:52:09.467Z</time></trkpt><trkpt lat="43.8856293" lon="12.9567262"><ele>0.0</ele><time>2026-04-19T08:52:11.475Z</time></trkpt><trkpt lat="43.8856973" lon="12.9566553"><ele>0.0</ele><time>2026-04-19T08:52:13.468Z</time></trkpt><trkpt lat="43.885761" lon="12.9565766"><ele>0.0</ele><time>2026-04-19T08:52:15.467Z</time></trkpt><trkpt lat="43.8858277" lon="12.9564528"><ele>0.0</ele><time>2026-04-19T08:52:17.474Z</time></trkpt><trkpt lat="43.8858873" lon="12.9563678"><ele>0.0</ele><time>2026-04-19T08:52:19.472Z</time></trkpt><trkpt lat="43.8859425" lon="12.9562838"><ele>0.0</ele><time>2026-04-19T08:52:21.476Z</time></trkpt><trkpt lat="43.8860024" lon="12.956192"><ele>0.0</ele><time>2026-04-19T08:52:23.474Z</time></trkpt><trkpt lat="43.8860529" lon="12.9561218"><ele>0.0</ele><time>2026-04-19T08:52:25.463Z</time></trkpt><trkpt lat="43.8861024" lon="12.9560398"><ele>0.0</ele><time>2026-04-19T08:52:27.476Z</time></trkpt><trkpt lat="43.8861798" lon="12.955962"><ele>0.0</ele><time>2026-04-19T08:52:30.476Z</time></trkpt><trkpt lat="43.8862004" lon="12.9558497"><ele>0.0</ele><time>2026-04-19T08:52:33.469Z</time></trkpt><trkpt lat="43.8861598" lon="12.9557763"><ele>0.0</ele><time>2026-04-19T08:52:35.479Z</time></trkpt><trkpt lat="43.8861125" lon="12.9556991"><ele>0.0</ele><time>2026-04-19T08:52:37.477Z</time></trkpt><trkpt lat="43.8860769" lon="12.9556083"><ele>0.0</ele><time>2026-04-19T08:52:39.464Z</time></trkpt><trkpt lat="43.8860427" lon="12.9555252"><ele>0.0</ele><time>2026-04-19T08:52:41.467Z</time></trkpt><trkpt lat="43.8860768" lon="12.9554158"><ele>0.0</ele><time>2026-04-19T08:52:44.476Z</time></trkpt><trkpt lat="43.8861268" lon="12.9553308"><ele>0.0</ele><time>2026-04-19T08:52:46.485Z</time></trkpt><trkpt lat="43.8861684" lon="12.9552349"><ele>0.0</ele><time>2026-04-19T08:52:48.475Z</time></trkpt><trkpt lat="43.8862201" lon="12.95516"><ele>0.0</ele><time>2026-04-19T08:52:50.464Z</time></trkpt><trkpt lat="43.8862976" lon="12.9550703"><ele>0.0</ele><time>2026-04-19T08:52:52.48Z</time></trkpt><trkpt lat="43.8863695" lon="12.954968"><ele>0.0</ele><time>2026-04-19T08:52:54.472Z</time></trkpt><trkpt lat="43.8864461" lon="12.9548672"><ele>0.0</ele><time>2026-04-19T08:52:56.479Z</time></trkpt><trkpt lat="43.8865244" lon="12.9547677"><ele>0.0</ele><time>2026-04-19T08:52:58.465Z</time></trkpt><trkpt lat="43.8865937" lon="12.9546828"><ele>0.0</ele><time>2026-04-19T08:53:00.465Z</time></trkpt><trkpt lat="43.8866663" lon="12.9546186"><ele>0.0</ele><time>2026-04-19T08:53:02.464Z</time></trkpt><trkpt lat="43.8867479" lon="12.9545829"><ele>0.0</ele><time>2026-04-19T08:53:04.474Z</time></trkpt><trkpt lat="43.886839" lon="12.9545256"><ele>0.0</ele><time>2026-04-19T08:53:06.485Z</time></trkpt><trkpt lat="43.886897" lon="12.9544563"><ele>0.0</ele><time>2026-04-19T08:53:08.465Z</time></trkpt><trkpt lat="43.8869665" lon="12.9543656"><ele>0.0</ele><time>2026-04-19T08:53:11.465Z</time></trkpt><trkpt lat="43.887" lon="12.9542747"><ele>0.0</ele><time>2026-04-19T08:53:13.467Z</time></trkpt><trkpt lat="43.8870478" lon="12.9541492"><ele>0.0</ele><time>2026-04-19T08:53:15.481Z</time></trkpt><trkpt lat="43.8871198" lon="12.9540513"><ele>0.0</ele><time>2026-04-19T08:53:17.475Z</time></trkpt><trkpt lat="43.8871919" lon="12.953958"><ele>0.0</ele><time>2026-04-19T08:53:19.479Z</time></trkpt><trkpt lat="43.8872636" lon="12.9538584"><ele>0.0</ele><time>2026-04-19T08:53:21.475Z</time></trkpt><trkpt lat="43.8873306" lon="12.9537736"><ele>0.0</ele><time>2026-04-19T08:53:23.467Z</time></trkpt><trkpt lat="43.8873969" lon="12.9536915"><ele>0.0</ele><time>2026-04-19T08:53:25.471Z</time></trkpt><trkpt lat="43.8874559" lon="12.9536148"><ele>0.0</ele><time>2026-04-19T08:53:27.463Z</time></trkpt><trkpt lat="43.8875177" lon="12.9535165"><ele>0.0</ele><time>2026-04-19T08:53:29.484Z</time></trkpt><trkpt lat="43.8875926" lon="12.9534257"><ele>0.0</ele><time>2026-04-19T08:53:31.468Z</time></trkpt><trkpt lat="43.8876552" lon="12.9533483"><ele>0.0</ele><time>2026-04-19T08:53:33.475Z</time></trkpt><trkpt lat="43.8877244" lon="12.9532485"><ele>0.0</ele><time>2026-04-19T08:53:35.471Z</time></trkpt><trkpt lat="43.8877899" lon="12.9531865"><ele>0.0</ele><time>2026-04-19T08:53:37.475Z</time></trkpt><trkpt lat="43.88785" lon="12.9531122"><ele>0.0</ele><time>2026-04-19T08:53:39.473Z</time></trkpt><trkpt lat="43.8879163" lon="12.9530141"><ele>0.0</ele><time>2026-04-19T08:53:41.462Z</time></trkpt><trkpt lat="43.8879849" lon="12.9529275"><ele>0.0</ele><time>2026-04-19T08:53:43.466Z</time></trkpt><trkpt lat="43.8880603" lon="12.9528435"><ele>0.0</ele><time>2026-04-19T08:53:45.484Z</time></trkpt><trkpt lat="43.8881352" lon="12.952747"><ele>0.0</ele><time>2026-04-19T08:53:47.465Z</time></trkpt><trkpt lat="43.8882083" lon="12.9526577"><ele>0.0</ele><time>2026-04-19T08:53:49.465Z</time></trkpt><trkpt lat="43.8882757" lon="12.9525744"><ele>0.0</ele><time>2026-04-19T08:53:51.479Z</time></trkpt><trkpt lat="43.8883532" lon="12.9524931"><ele>0.0</ele><time>2026-04-19T08:53:53.465Z</time></trkpt><trkpt lat="43.8884122" lon="12.9524035"><ele>0.0</ele><time>2026-04-19T08:53:55.463Z</time></trkpt><trkpt lat="43.8884875" lon="12.9523045"><ele>0.0</ele><time>2026-04-19T08:53:57.468Z</time></trkpt><trkpt lat="43.8885616" lon="12.9522156"><ele>0.0</ele><time>2026-04-19T08:53:59.478Z</time></trkpt><trkpt lat="43.8886386" lon="12.952117"><ele>0.0</ele><time>2026-04-19T08:54:01.478Z</time></trkpt><trkpt lat="43.8887284" lon="12.9520111"><ele>0.0</ele><time>2026-04-19T08:54:03.46Z</time></trkpt><trkpt lat="43.8888238" lon="12.9518977"><ele>0.0</ele><time>2026-04-19T08:54:05.493Z</time></trkpt><trkpt lat="43.8889071" lon="12.9517907"><ele>0.2</ele><time>2026-04-19T08:54:07.462Z</time></trkpt><trkpt lat="43.888942" lon="12.9516933"><ele>0.4</ele><time>2026-04-19T08:54:09.467Z</time></trkpt><trkpt lat="43.8889915" lon="12.9516332"><ele>0.6000000000000001</ele><time>2026-04-19T08:54:10.471Z</time></trkpt><trkpt lat="43.8890661" lon="12.9515247"><ele>0.8</ele><time>2026-04-19T08:54:12.476Z</time></trkpt><trkpt lat="43.8891576" lon="12.9514223"><ele>1.0</ele><time>2026-04-19T08:54:14.466Z</time></trkpt><trkpt lat="43.8892342" lon="12.9513151"><ele>0.8</ele><time>2026-04-19T08:54:16.48Z</time></trkpt><trkpt lat="43.8893166" lon="12.951206"><ele>0.6000000000000001</ele><time>2026-04-19T08:54:18.489Z</time></trkpt><trkpt lat="43.8893639" lon="12.9511482"><ele>0.4</ele><time>2026-04-19T08:54:19.464Z</time></trkpt><trkpt lat="43.889455" lon="12.9510632"><ele>0.2</ele><time>2026-04-19T08:54:21.466Z</time></trkpt><trkpt lat="43.8895279" lon="12.9509691"><ele>0.0</ele><time>2026-04-19T08:54:23.473Z</time></trkpt><trkpt lat="43.8896032" lon="12.9508865"><ele>0.0</ele><time>2026-04-19T08:54:25.464Z</time></trkpt><trkpt lat="43.8896799" lon="12.9507981"><ele>0.0</ele><time>2026-04-19T08:54:27.463Z</time></trkpt><trkpt lat="43.8897564" lon="12.950697"><ele>0.0</ele><time>2026-04-19T08:54:29.475Z</time></trkpt><trkpt lat="43.8898475" lon="12.9506059"><ele>0.0</ele><time>2026-04-19T08:54:31.484Z</time></trkpt><trkpt lat="43.8899221" lon="12.9504958"><ele>0.0</ele><time>2026-04-19T08:54:33.485Z</time></trkpt><trkpt lat="43.8899986" lon="12.9503887"><ele>0.0</ele><time>2026-04-19T08:54:35.477Z</time></trkpt><trkpt lat="43.8900733" lon="12.9502875"><ele>0.0</ele><time>2026-04-19T08:54:37.482Z</time></trkpt><trkpt lat="43.8901458" lon="12.9501997"><ele>0.0</ele><time>2026-04-19T08:54:39.481Z</time></trkpt><trkpt lat="43.8902232" lon="12.9501118"><ele>0.0</ele><time>2026-04-19T08:54:41.474Z</time></trkpt><trkpt lat="43.8902991" lon="12.9500169"><ele>0.0</ele><time>2026-04-19T08:54:43.462Z</time></trkpt><trkpt lat="43.8903735" lon="12.949925"><ele>0.0</ele><time>2026-04-19T08:54:45.483Z</time></trkpt><trkpt lat="43.8904423" lon="12.9498376"><ele>0.0</ele><time>2026-04-19T08:54:47.462Z</time></trkpt><trkpt lat="43.8905159" lon="12.9497487"><ele>0.0</ele><time>2026-04-19T08:54:49.468Z</time></trkpt><trkpt lat="43.8905966" lon="12.9496457"><ele>0.0</ele><time>2026-04-19T08:54:51.465Z</time></trkpt><trkpt lat="43.8906736" lon="12.9495563"><ele>0.0</ele><time>2026-04-19T08:54:53.467Z</time></trkpt><trkpt lat="43.8907481" lon="12.9494577"><ele>0.0</ele><time>2026-04-19T08:54:55.484Z</time></trkpt><trkpt lat="43.8908178" lon="12.9493694"><ele>0.0</ele><time>2026-04-19T08:54:57.47Z</time></trkpt><trkpt lat="43.8908977" lon="12.9492883"><ele>0.0</ele><time>2026-04-19T08:54:59.485Z</time></trkpt><trkpt lat="43.8909693" lon="12.9492066"><ele>0.0</ele><time>2026-04-19T08:55:01.5Z</time></trkpt><trkpt lat="43.8910431" lon="12.9491161"><ele>0.0</ele><time>2026-04-19T08:55:03.467Z</time></trkpt><trkpt lat="43.8911261" lon="12.9490161"><ele>0.0</ele><time>2026-04-19T08:55:05.473Z</time></trkpt><trkpt lat="43.8911708" lon="12.9489517"><ele>0.0</ele><time>2026-04-19T08:55:06.474Z</time></trkpt><trkpt lat="43.8912324" lon="12.9488752"><ele>0.0</ele><time>2026-04-19T08:55:08.48Z</time></trkpt><trkpt lat="43.8912965" lon="12.9487981"><ele>0.0</ele><time>2026-04-19T08:55:10.472Z</time></trkpt><trkpt lat="43.8913651" lon="12.9487261"><ele>0.0</ele><time>2026-04-19T08:55:12.477Z</time></trkpt><trkpt lat="43.8914326" lon="12.9486372"><ele>0.0</ele><time>2026-04-19T08:55:14.483Z</time></trkpt><trkpt lat="43.8915018" lon="12.9485637"><ele>0.0</ele><time>2026-04-19T08:55:16.495Z</time></trkpt><trkpt lat="43.8915739" lon="12.9484597"><ele>0.0</ele><time>2026-04-19T08:55:18.479Z</time></trkpt><trkpt lat="43.8916363" lon="12.9483692"><ele>0.0</ele><time>2026-04-19T08:55:20.475Z</time></trkpt><trkpt lat="43.8916991" lon="12.9482852"><ele>0.0</ele><time>2026-04-19T08:55:22.484Z</time></trkpt><trkpt lat="43.8917653" lon="12.9482034"><ele>0.0</ele><time>2026-04-19T08:55:24.465Z</time></trkpt><trkpt lat="43.8918257" lon="12.9481621"><ele>0.0</ele><time>2026-04-19T08:55:26.474Z</time></trkpt><trkpt lat="43.8918927" lon="12.9481117"><ele>0.0</ele><time>2026-04-19T08:55:28.478Z</time></trkpt><trkpt lat="43.8919723" lon="12.9480691"><ele>0.0</ele><time>2026-04-19T08:55:30.476Z</time></trkpt><trkpt lat="43.8920368" lon="12.9479761"><ele>0.0</ele><time>2026-04-19T08:55:32.484Z</time></trkpt><trkpt lat="43.8921041" lon="12.9478809"><ele>0.0</ele><time>2026-04-19T08:55:34.466Z</time></trkpt><trkpt lat="43.8921472" lon="12.9478114"><ele>0.0</ele><time>2026-04-19T08:55:35.475Z</time></trkpt><trkpt lat="43.8922221" lon="12.9477449"><ele>0.0</ele><time>2026-04-19T08:55:37.477Z</time></trkpt><trkpt lat="43.8923098" lon="12.9476312"><ele>0.0</ele><time>2026-04-19T08:55:39.486Z</time></trkpt><trkpt lat="43.8923888" lon="12.9475261"><ele>0.0</ele><time>2026-04-19T08:55:41.474Z</time></trkpt><trkpt lat="43.8924754" lon="12.9474207"><ele>0.0</ele><time>2026-04-19T08:55:43.465Z</time></trkpt><trkpt lat="43.8925644" lon="12.9473253"><ele>0.0</ele><time>2026-04-19T08:55:45.475Z</time></trkpt><trkpt lat="43.8926453" lon="12.9472268"><ele>0.0</ele><time>2026-04-19T08:55:47.473Z</time></trkpt><trkpt lat="43.8927249" lon="12.9471218"><ele>0.0</ele><time>2026-04-19T08:55:49.466Z</time></trkpt><trkpt lat="43.8927993" lon="12.9470235"><ele>0.0</ele><time>2026-04-19T08:55:51.466Z</time></trkpt><trkpt lat="43.892873" lon="12.9469327"><ele>0.0</ele><time>2026-04-19T08:55:53.472Z</time></trkpt><trkpt lat="43.8929548" lon="12.9468303"><ele>0.0</ele><time>2026-04-19T08:55:55.47Z</time></trkpt><trkpt lat="43.8930313" lon="12.9467399"><ele>0.0</ele><time>2026-04-19T08:55:57.468Z</time></trkpt><trkpt lat="43.8931011" lon="12.9466626"><ele>0.0</ele><time>2026-04-19T08:55:59.496Z</time></trkpt><trkpt lat="43.8931803" lon="12.9465673"><ele>0.0</ele><time>2026-04-19T08:56:01.466Z</time></trkpt><trkpt lat="43.8932518" lon="12.9464666"><ele>0.0</ele><time>2026-04-19T08:56:03.476Z</time></trkpt><trkpt lat="43.8933295" lon="12.9463749"><ele>0.0</ele><time>2026-04-19T08:56:05.486Z</time></trkpt><trkpt lat="43.8933991" lon="12.9462976"><ele>0.0</ele><time>2026-04-19T08:56:07.468Z</time></trkpt><trkpt lat="43.8934743" lon="12.9461984"><ele>0.0</ele><time>2026-04-19T08:56:09.475Z</time></trkpt><trkpt lat="43.8935601" lon="12.9461136"><ele>0.0</ele><time>2026-04-19T08:56:11.469Z</time></trkpt><trkpt lat="43.8936448" lon="12.9460218"><ele>0.0</ele><time>2026-04-19T08:56:13.483Z</time></trkpt><trkpt lat="43.8937233" lon="12.9459233"><ele>0.0</ele><time>2026-04-19T08:56:15.465Z</time></trkpt><trkpt lat="43.8937905" lon="12.9458262"><ele>0.0</ele><time>2026-04-19T08:56:17.465Z</time></trkpt><trkpt lat="43.8938666" lon="12.9457173"><ele>0.0</ele><time>2026-04-19T08:56:19.474Z</time></trkpt><trkpt lat="43.8939526" lon="12.9455935"><ele>0.0</ele><time>2026-04-19T08:56:21.463Z</time></trkpt><trkpt lat="43.8940385" lon="12.9454913"><ele>0.0</ele><time>2026-04-19T08:56:23.466Z</time></trkpt><trkpt lat="43.8941243" lon="12.9453857"><ele>0.0</ele><time>2026-04-19T08:56:25.476Z</time></trkpt><trkpt lat="43.8942061" lon="12.9452812"><ele>0.0</ele><time>2026-04-19T08:56:27.47Z</time></trkpt><trkpt lat="43.8942765" lon="12.9451736"><ele>0.0</ele><time>2026-04-19T08:56:29.477Z</time></trkpt><trkpt lat="43.8943537" lon="12.9450947"><ele>0.0</ele><time>2026-04-19T08:56:31.488Z</time></trkpt><trkpt lat="43.894438" lon="12.9449984"><ele>0.0</ele><time>2026-04-19T08:56:33.467Z</time></trkpt><trkpt lat="43.8945274" lon="12.9448918"><ele>0.0</ele><time>2026-04-19T08:56:35.467Z</time></trkpt><trkpt lat="43.8946076" lon="12.9447844"><ele>0.0</ele><time>2026-04-19T08:56:37.469Z</time></trkpt><trkpt lat="43.8946873" lon="12.9446782"><ele>0.0</ele><time>2026-04-19T08:56:39.479Z</time></trkpt><trkpt lat="43.8947368" lon="12.9446194"><ele>0.0</ele><time>2026-04-19T08:56:41.476Z</time></trkpt><trkpt lat="43.8948114" lon="12.9445189"><ele>0.0</ele><time>2026-04-19T08:56:44.476Z</time></trkpt><trkpt lat="43.8948656" lon="12.9444461"><ele>0.0</ele><time>2026-04-19T08:56:46.473Z</time></trkpt><trkpt lat="43.8949506" lon="12.9443654"><ele>0.0</ele><time>2026-04-19T08:56:48.478Z</time></trkpt><trkpt lat="43.8950255" lon="12.9442663"><ele>0.0</ele><time>2026-04-19T08:56:50.467Z</time></trkpt><trkpt lat="43.8951201" lon="12.9441634"><ele>0.0</ele><time>2026-04-19T08:56:52.482Z</time></trkpt><trkpt lat="43.8952082" lon="12.9440577"><ele>0.0</ele><time>2026-04-19T08:56:54.479Z</time></trkpt><trkpt lat="43.8952972" lon="12.9439532"><ele>0.0</ele><time>2026-04-19T08:56:56.471Z</time></trkpt><trkpt lat="43.8953785" lon="12.9438423"><ele>0.0</ele><time>2026-04-19T08:56:58.475Z</time></trkpt><trkpt lat="43.8954549" lon="12.9437362"><ele>0.0</ele><time>2026-04-19T08:57:00.465Z</time></trkpt><trkpt lat="43.8955205" lon="12.9436545"><ele>0.0</ele><time>2026-04-19T08:57:02.466Z</time></trkpt><trkpt lat="43.8955776" lon="12.9435793"><ele>0.0</ele><time>2026-04-19T08:57:04.461Z</time></trkpt><trkpt lat="43.8956236" lon="12.9434861"><ele>0.0</ele><time>2026-04-19T08:57:06.472Z</time></trkpt><trkpt lat="43.8956913" lon="12.9434192"><ele>0.0</ele><time>2026-04-19T08:57:08.472Z</time></trkpt><trkpt lat="43.8957632" lon="12.9433486"><ele>0.0</ele><time>2026-04-19T08:57:10.467Z</time></trkpt><trkpt lat="43.895842" lon="12.9432505"><ele>0.0</ele><time>2026-04-19T08:57:12.47Z</time></trkpt><trkpt lat="43.8959148" lon="12.9431453"><ele>0.0</ele><time>2026-04-19T08:57:14.481Z</time></trkpt><trkpt lat="43.8959953" lon="12.9430439"><ele>0.0</ele><time>2026-04-19T08:57:16.467Z</time></trkpt><trkpt lat="43.8960711" lon="12.942941"><ele>0.0</ele><time>2026-04-19T08:57:18.469Z</time></trkpt><trkpt lat="43.8961422" lon="12.942852"><ele>0.0</ele><time>2026-04-19T08:57:20.466Z</time></trkpt><trkpt lat="43.8962116" lon="12.9427832"><ele>0.0</ele><time>2026-04-19T08:57:22.473Z</time></trkpt><trkpt lat="43.8962832" lon="12.9427035"><ele>0.0</ele><time>2026-04-19T08:57:24.465Z</time></trkpt><trkpt lat="43.8963546" lon="12.9426211"><ele>0.0</ele><time>2026-04-19T08:57:26.467Z</time></trkpt><trkpt lat="43.8964273" lon="12.942555"><ele>0.0</ele><time>2026-04-19T08:57:28.471Z</time></trkpt><trkpt lat="43.8964875" lon="12.9424703"><ele>0.0</ele><time>2026-04-19T08:57:30.476Z</time></trkpt><trkpt lat="43.8965491" lon="12.9423975"><ele>0.0</ele><time>2026-04-19T08:57:32.469Z</time></trkpt><trkpt lat="43.8966123" lon="12.9423214"><ele>0.0</ele><time>2026-04-19T08:57:34.483Z</time></trkpt><trkpt lat="43.8966669" lon="12.9422374"><ele>0.0</ele><time>2026-04-19T08:57:36.473Z</time></trkpt><trkpt lat="43.8967222" lon="12.9421606"><ele>0.0</ele><time>2026-04-19T08:57:38.475Z</time></trkpt><trkpt lat="43.8967891" lon="12.9420895"><ele>0.0</ele><time>2026-04-19T08:57:40.466Z</time></trkpt><trkpt lat="43.8968654" lon="12.9419894"><ele>0.0</ele><time>2026-04-19T08:57:42.473Z</time></trkpt><trkpt lat="43.8969529" lon="12.9418926"><ele>0.0</ele><time>2026-04-19T08:57:44.474Z</time></trkpt><trkpt lat="43.8970257" lon="12.9418062"><ele>0.0</ele><time>2026-04-19T08:57:46.478Z</time></trkpt><trkpt lat="43.897103" lon="12.9417062"><ele>0.2</ele><time>2026-04-19T08:57:48.476Z</time></trkpt><trkpt lat="43.89718" lon="12.9416062"><ele>0.4</ele><time>2026-04-19T08:57:50.464Z</time></trkpt><trkpt lat="43.8972719" lon="12.941516"><ele>0.6000000000000001</ele><time>2026-04-19T08:57:52.463Z</time></trkpt><trkpt lat="43.8973448" lon="12.9414107"><ele>0.8</ele><time>2026-04-19T08:57:54.469Z</time></trkpt><trkpt lat="43.8974196" lon="12.9413161"><ele>1.0</ele><time>2026-04-19T08:57:56.478Z</time></trkpt><trkpt lat="43.8975021" lon="12.9412209"><ele>1.0</ele><time>2026-04-19T08:57:58.475Z</time></trkpt><trkpt lat="43.8975762" lon="12.9411313"><ele>1.0</ele><time>2026-04-19T08:58:00.463Z</time></trkpt><trkpt lat="43.8976417" lon="12.9410541"><ele>1.0</ele><time>2026-04-19T08:58:02.463Z</time></trkpt><trkpt lat="43.897705" lon="12.940987"><ele>1.0</ele><time>2026-04-19T08:58:04.465Z</time></trkpt><trkpt lat="43.8977804" lon="12.9408896"><ele>1.0</ele><time>2026-04-19T08:58:07.472Z</time></trkpt><trkpt lat="43.8978638" lon="12.9407896"><ele>0.8</ele><time>2026-04-19T08:58:09.459Z</time></trkpt><trkpt lat="43.8979362" lon="12.9406905"><ele>0.6000000000000001</ele><time>2026-04-19T08:58:11.468Z</time></trkpt><trkpt lat="43.8980223" lon="12.940594"><ele>0.4</ele><time>2026-04-19T08:58:13.474Z</time></trkpt><trkpt lat="43.8981077" lon="12.9405028"><ele>0.2</ele><time>2026-04-19T08:58:15.468Z</time></trkpt><trkpt lat="43.8981917" lon="12.9403954"><ele>0.0</ele><time>2026-04-19T08:58:17.477Z</time></trkpt><trkpt lat="43.8982751" lon="12.9402829"><ele>0.0</ele><time>2026-04-19T08:58:19.483Z</time></trkpt><trkpt lat="43.8983577" lon="12.9401789"><ele>0.0</ele><time>2026-04-19T08:58:21.476Z</time></trkpt><trkpt lat="43.8984332" lon="12.9400755"><ele>0.0</ele><time>2026-04-19T08:58:23.462Z</time></trkpt><trkpt lat="43.8985033" lon="12.939971"><ele>0.0</ele><time>2026-04-19T08:58:25.466Z</time></trkpt><trkpt lat="43.8985673" lon="12.9398838"><ele>0.0</ele><time>2026-04-19T08:58:27.465Z</time></trkpt><trkpt lat="43.8986385" lon="12.9397996"><ele>0.0</ele><time>2026-04-19T08:58:29.478Z</time></trkpt><trkpt lat="43.8987121" lon="12.9397287"><ele>0.0</ele><time>2026-04-19T08:58:31.475Z</time></trkpt><trkpt lat="43.8987704" lon="12.9396508"><ele>0.0</ele><time>2026-04-19T08:58:33.459Z</time></trkpt><trkpt lat="43.8988375" lon="12.9395801"><ele>0.0</ele><time>2026-04-19T08:58:35.468Z</time></trkpt><trkpt lat="43.8989129" lon="12.9394963"><ele>0.0</ele><time>2026-04-19T08:58:37.466Z</time></trkpt><trkpt lat="43.898982" lon="12.9394061"><ele>0.0</ele><time>2026-04-19T08:58:39.46Z</time></trkpt><trkpt lat="43.899051" lon="12.9393188"><ele>0.0</ele><time>2026-04-19T08:58:41.47Z</time></trkpt><trkpt lat="43.8991138" lon="12.9392112"><ele>0.0</ele><time>2026-04-19T08:58:43.474Z</time></trkpt><trkpt lat="43.8991565" lon="12.9391368"><ele>0.0</ele><time>2026-04-19T08:58:45.467Z</time></trkpt><trkpt lat="43.8991911" lon="12.9390544"><ele>0.0</ele><time>2026-04-19T08:58:47.46Z</time></trkpt><trkpt lat="43.8992378" lon="12.938952"><ele>0.0</ele><time>2026-04-19T08:58:50.469Z</time></trkpt><trkpt lat="43.8992988" lon="12.9388568"><ele>0.0</ele><time>2026-04-19T08:58:53.469Z</time></trkpt><trkpt lat="43.8993494" lon="12.9387932"><ele>0.0</ele><time>2026-04-19T08:58:55.469Z</time></trkpt><trkpt lat="43.8994057" lon="12.938704"><ele>0.0</ele><time>2026-04-19T08:58:58.475Z</time></trkpt><trkpt lat="43.8994646" lon="12.9386177"><ele>0.0</ele><time>2026-04-19T08:59:01.479Z</time></trkpt><trkpt lat="43.8995143" lon="12.9385369"><ele>0.0</ele><time>2026-04-19T08:59:03.465Z</time></trkpt><trkpt lat="43.899565" lon="12.938458"><ele>0.0</ele><time>2026-04-19T08:59:05.47Z</time></trkpt><trkpt lat="43.8996223" lon="12.9383718"><ele>0.0</ele><time>2026-04-19T08:59:07.472Z</time></trkpt><trkpt lat="43.8996919" lon="12.9382658"><ele>0.0</ele><time>2026-04-19T08:59:09.466Z</time></trkpt><trkpt lat="43.8997606" lon="12.9381709"><ele>0.0</ele><time>2026-04-19T08:59:11.473Z</time></trkpt><trkpt lat="43.8998282" lon="12.93807"><ele>0.0</ele><time>2026-04-19T08:59:13.479Z</time></trkpt><trkpt lat="43.8998916" lon="12.937974"><ele>0.0</ele><time>2026-04-19T08:59:15.464Z</time></trkpt><trkpt lat="43.8999493" lon="12.9378651"><ele>0.0</ele><time>2026-04-19T08:59:17.461Z</time></trkpt><trkpt lat="43.9000051" lon="12.9377713"><ele>0.0</ele><time>2026-04-19T08:59:19.467Z</time></trkpt><trkpt lat="43.9000608" lon="12.937693"><ele>0.0</ele><time>2026-04-19T08:59:21.475Z</time></trkpt><trkpt lat="43.9001178" lon="12.937596"><ele>0.0</ele><time>2026-04-19T08:59:23.465Z</time></trkpt><trkpt lat="43.9001904" lon="12.9374964"><ele>0.0</ele><time>2026-04-19T08:59:25.464Z</time></trkpt><trkpt lat="43.9002664" lon="12.9374111"><ele>0.0</ele><time>2026-04-19T08:59:27.487Z</time></trkpt><trkpt lat="43.900337" lon="12.9373183"><ele>0.0</ele><time>2026-04-19T08:59:29.466Z</time></trkpt><trkpt lat="43.9004116" lon="12.9372043"><ele>0.0</ele><time>2026-04-19T08:59:31.479Z</time></trkpt><trkpt lat="43.9004912" lon="12.9370965"><ele>0.0</ele><time>2026-04-19T08:59:33.466Z</time></trkpt><trkpt lat="43.9005657" lon="12.9369784"><ele>0.0</ele><time>2026-04-19T08:59:35.464Z</time></trkpt><trkpt lat="43.9006246" lon="12.9368815"><ele>0.0</ele><time>2026-04-19T08:59:37.46Z</time></trkpt><trkpt lat="43.9006839" lon="12.9368001"><ele>0.0</ele><time>2026-04-19T08:59:39.479Z</time></trkpt><trkpt lat="43.9007433" lon="12.9366986"><ele>0.0</ele><time>2026-04-19T08:59:41.476Z</time></trkpt><trkpt lat="43.9008117" lon="12.9366002"><ele>0.0</ele><time>2026-04-19T08:59:43.466Z</time></trkpt><trkpt lat="43.9008723" lon="12.9365246"><ele>0.0</ele><time>2026-04-19T08:59:45.462Z</time></trkpt><trkpt lat="43.9009355" lon="12.9364288"><ele>0.0</ele><time>2026-04-19T08:59:47.48Z</time></trkpt><trkpt lat="43.9009998" lon="12.9363364"><ele>0.0</ele><time>2026-04-19T08:59:49.481Z</time></trkpt><trkpt lat="43.9010569" lon="12.9362571"><ele>0.0</ele><time>2026-04-19T08:59:51.473Z</time></trkpt><trkpt lat="43.9011254" lon="12.9361797"><ele>0.0</ele><time>2026-04-19T08:59:53.475Z</time></trkpt><trkpt lat="43.9011972" lon="12.9360955"><ele>0.0</ele><time>2026-04-19T08:59:55.461Z</time></trkpt><trkpt lat="43.901261" lon="12.936024"><ele>0.0</ele><time>2026-04-19T08:59:57.477Z</time></trkpt><trkpt lat="43.9013176" lon="12.9359579"><ele>0.0</ele><time>2026-04-19T08:59:59.464Z</time></trkpt><trkpt lat="43.9013686" lon="12.9358958"><ele>0.0</ele><time>2026-04-19T09:00:01.469Z</time></trkpt><trkpt lat="43.9014226" lon="12.9358228"><ele>0.0</ele><time>2026-04-19T09:00:03.466Z</time></trkpt><trkpt lat="43.9014863" lon="12.9357292"><ele>0.0</ele><time>2026-04-19T09:00:05.464Z</time></trkpt><trkpt lat="43.9015549" lon="12.9356324"><ele>0.0</ele><time>2026-04-19T09:00:07.474Z</time></trkpt><trkpt lat="43.9016116" lon="12.9355333"><ele>0.0</ele><time>2026-04-19T09:00:09.463Z</time></trkpt><trkpt lat="43.9016594" lon="12.9354114"><ele>0.0</ele><time>2026-04-19T09:00:12.468Z</time></trkpt><trkpt lat="43.9016993" lon="12.9353319"><ele>0.0</ele><time>2026-04-19T09:00:14.469Z</time></trkpt><trkpt lat="43.9017431" lon="12.935263"><ele>0.0</ele><time>2026-04-19T09:00:16.466Z</time></trkpt><trkpt lat="43.9017958" lon="12.9351719"><ele>0.0</ele><time>2026-04-19T09:00:19.476Z</time></trkpt><trkpt lat="43.9018427" lon="12.935111"><ele>0.0</ele><time>2026-04-19T09:00:23.469Z</time></trkpt><trkpt lat="43.9018983" lon="12.9350409"><ele>0.0</ele><time>2026-04-19T09:00:31.481Z</time></trkpt><trkpt lat="43.9019197" lon="12.9349584"><ele>0.0</ele><time>2026-04-19T09:01:14.457Z</time></trkpt><trkpt lat="43.9019599" lon="12.9348454"><ele>0.0</ele><time>2026-04-19T09:01:17.481Z</time></trkpt><trkpt lat="43.9020222" lon="12.934762"><ele>0.0</ele><time>2026-04-19T09:01:19.469Z</time></trkpt><trkpt lat="43.9021056" lon="12.9346746"><ele>0.0</ele><time>2026-04-19T09:01:21.468Z</time></trkpt><trkpt lat="43.9021789" lon="12.9346111"><ele>0.0</ele><time>2026-04-19T09:01:23.469Z</time></trkpt><trkpt lat="43.9022407" lon="12.9345424"><ele>0.0</ele><time>2026-04-19T09:01:25.466Z</time></trkpt><trkpt lat="43.9023016" lon="12.934468"><ele>0.0</ele><time>2026-04-19T09:01:27.461Z</time></trkpt><trkpt lat="43.9023552" lon="12.9343961"><ele>0.0</ele><time>2026-04-19T09:01:29.475Z</time></trkpt><trkpt lat="43.9024157" lon="12.9343107"><ele>0.0</ele><time>2026-04-19T09:01:31.48Z</time></trkpt><trkpt lat="43.9024653" lon="12.9342356"><ele>0.0</ele><time>2026-04-19T09:01:33.46Z</time></trkpt><trkpt lat="43.902505" lon="12.9341498"><ele>0.0</ele><time>2026-04-19T09:01:35.464Z</time></trkpt><trkpt lat="43.9025614" lon="12.9340391"><ele>0.0</ele><time>2026-04-19T09:01:38.466Z</time></trkpt><trkpt lat="43.9026156" lon="12.9339733"><ele>0.0</ele><time>2026-04-19T09:01:40.461Z</time></trkpt><trkpt lat="43.9026682" lon="12.9339106"><ele>0.0</ele><time>2026-04-19T09:01:42.482Z</time></trkpt><trkpt lat="43.9027146" lon="12.9338484"><ele>0.0</ele><time>2026-04-19T09:01:44.482Z</time></trkpt><trkpt lat="43.9027552" lon="12.9337668"><ele>0.0</ele><time>2026-04-19T09:01:46.468Z</time></trkpt><trkpt lat="43.9028006" lon="12.9336959"><ele>0.0</ele><time>2026-04-19T09:01:48.461Z</time></trkpt><trkpt lat="43.9028755" lon="12.9335943"><ele>0.0</ele><time>2026-04-19T09:01:50.468Z</time></trkpt><trkpt lat="43.902939" lon="12.9335027"><ele>0.0</ele><time>2026-04-19T09:01:52.466Z</time></trkpt><trkpt lat="43.9030166" lon="12.9334155"><ele>0.16666666666666666</ele><time>2026-04-19T09:01:54.474Z</time></trkpt><trkpt lat="43.9030905" lon="12.9333245"><ele>0.3333333333333333</ele><time>2026-04-19T09:01:56.482Z</time></trkpt><trkpt lat="43.9031507" lon="12.9332461"><ele>0.5</ele><time>2026-04-19T09:01:58.473Z</time></trkpt><trkpt lat="43.9032009" lon="12.9331869"><ele>0.6666666666666666</ele><time>2026-04-19T09:02:00.473Z</time></trkpt><trkpt lat="43.9032556" lon="12.9331167"><ele>0.8333333333333333</ele><time>2026-04-19T09:02:02.476Z</time></trkpt><trkpt lat="43.9033114" lon="12.9330349"><ele>1.0</ele><time>2026-04-19T09:02:04.472Z</time></trkpt><trkpt lat="43.903408" lon="12.9329319"><ele>1.0</ele><time>2026-04-19T09:02:06.477Z</time></trkpt><trkpt lat="43.9034761" lon="12.9328582"><ele>0.9999999999999999</ele><time>2026-04-19T09:02:08.464Z</time></trkpt><trkpt lat="43.9035232" lon="12.9327994"><ele>1.0</ele><time>2026-04-19T09:02:10.465Z</time></trkpt><trkpt lat="43.903576" lon="12.9327222"><ele>1.0</ele><time>2026-04-19T09:02:12.478Z</time></trkpt><trkpt lat="43.9036351" lon="12.9326602"><ele>0.9999999999999999</ele><time>2026-04-19T09:02:14.475Z</time></trkpt><trkpt lat="43.9036882" lon="12.9326128"><ele>1.0</ele><time>2026-04-19T09:02:16.478Z</time></trkpt><trkpt lat="43.9037478" lon="12.9325593"><ele>1.0</ele><time>2026-04-19T09:02:18.471Z</time></trkpt><trkpt lat="43.9037991" lon="12.9325063"><ele>0.9999999999999999</ele><time>2026-04-19T09:02:20.463Z</time></trkpt><trkpt lat="43.9038543" lon="12.9324287"><ele>1.0</ele><time>2026-04-19T09:02:23.47Z</time></trkpt><trkpt lat="43.903906" lon="12.9323545"><ele>1.0</ele><time>2026-04-19T09:02:26.469Z</time></trkpt><trkpt lat="43.903955" lon="12.932289"><ele>1.0</ele><time>2026-04-19T09:02:29.482Z</time></trkpt><trkpt lat="43.9040146" lon="12.9322233"><ele>0.9999999999999999</ele><time>2026-04-19T09:02:31.465Z</time></trkpt><trkpt lat="43.9040759" lon="12.9321501"><ele>1.0</ele><time>2026-04-19T09:02:33.478Z</time></trkpt><trkpt lat="43.9041256" lon="12.9320773"><ele>1.0</ele><time>2026-04-19T09:02:36.482Z</time></trkpt><trkpt lat="43.9041689" lon="12.9319921"><ele>0.9999999999999999</ele><time>2026-04-19T09:02:40.474Z</time></trkpt><trkpt lat="43.9042023" lon="12.9318998"><ele>1.0</ele><time>2026-04-19T09:02:46.468Z</time></trkpt><trkpt lat="43.9042072" lon="12.931809"><ele>1.0</ele><time>2026-04-19T09:02:49.469Z</time></trkpt><trkpt lat="43.9042485" lon="12.9317425"><ele>0.9999999999999999</ele><time>2026-04-19T09:02:51.479Z</time></trkpt><trkpt lat="43.9043035" lon="12.9316855"><ele>1.0</ele><time>2026-04-19T09:02:53.469Z</time></trkpt><trkpt lat="43.9043652" lon="12.9315763"><ele>1.0</ele><time>2026-04-19T09:02:55.478Z</time></trkpt><trkpt lat="43.9044053" lon="12.9314995"><ele>0.8571428571428571</ele><time>2026-04-19T09:02:56.468Z</time></trkpt><trkpt lat="43.9044697" lon="12.931414"><ele>0.7142857142857142</ele><time>2026-04-19T09:02:58.465Z</time></trkpt><trkpt lat="43.9045055" lon="12.9313356"><ele>0.5714285714285714</ele><time>2026-04-19T09:02:59.457Z</time></trkpt><trkpt lat="43.9045687" lon="12.9312456"><ele>0.42857142857142855</ele><time>2026-04-19T09:03:01.478Z</time></trkpt><trkpt lat="43.9046162" lon="12.9311872"><ele>0.2857142857142857</ele><time>2026-04-19T09:03:02.458Z</time></trkpt><trkpt lat="43.9046636" lon="12.9311203"><ele>0.14285714285714285</ele><time>2026-04-19T09:03:03.472Z</time></trkpt><trkpt lat="43.9047084" lon="12.9310502"><ele>0.0</ele><time>2026-04-19T09:03:04.478Z</time></trkpt><trkpt lat="43.9047693" lon="12.9309704"><ele>0.0</ele><time>2026-04-19T09:03:05.468Z</time></trkpt><trkpt lat="43.9048229" lon="12.9308945"><ele>0.0</ele><time>2026-04-19T09:03:06.465Z</time></trkpt><trkpt lat="43.9048993" lon="12.9307942"><ele>0.0</ele><time>2026-04-19T09:03:08.477Z</time></trkpt><trkpt lat="43.9049842" lon="12.9306785"><ele>0.0</ele><time>2026-04-19T09:03:10.466Z</time></trkpt><trkpt lat="43.9050636" lon="12.9305735"><ele>0.0</ele><time>2026-04-19T09:03:12.473Z</time></trkpt><trkpt lat="43.9051399" lon="12.9304815"><ele>0.0</ele><time>2026-04-19T09:03:14.462Z</time></trkpt><trkpt lat="43.9052202" lon="12.9303809"><ele>0.0</ele><time>2026-04-19T09:03:16.467Z</time></trkpt><trkpt lat="43.9052844" lon="12.9302743"><ele>0.0</ele><time>2026-04-19T09:03:18.468Z</time></trkpt><trkpt lat="43.9053528" lon="12.9301743"><ele>0.0</ele><time>2026-04-19T09:03:20.471Z</time></trkpt><trkpt lat="43.9054094" lon="12.9300928"><ele>0.0</ele><time>2026-04-19T09:03:22.474Z</time></trkpt><trkpt lat="43.9054659" lon="12.9300089"><ele>0.16666666666666666</ele><time>2026-04-19T09:03:24.461Z</time></trkpt><trkpt lat="43.905511" lon="12.9299384"><ele>0.3333333333333333</ele><time>2026-04-19T09:03:26.477Z</time></trkpt><trkpt lat="43.9055547" lon="12.9298536"><ele>0.5</ele><time>2026-04-19T09:03:28.476Z</time></trkpt><trkpt lat="43.9056055" lon="12.929771"><ele>0.6666666666666666</ele><time>2026-04-19T09:03:30.476Z</time></trkpt><trkpt lat="43.905669" lon="12.9296628"><ele>0.8333333333333333</ele><time>2026-04-19T09:03:32.474Z</time></trkpt><trkpt lat="43.9057318" lon="12.9295539"><ele>1.0</ele><time>2026-04-19T09:03:34.457Z</time></trkpt><trkpt lat="43.905786" lon="12.9294508"><ele>0.9999999999999999</ele><time>2026-04-19T09:03:36.482Z</time></trkpt><trkpt lat="43.9058287" lon="12.9293569"><ele>1.0</ele><time>2026-04-19T09:03:38.472Z</time></trkpt><trkpt lat="43.9058935" lon="12.9292451"><ele>1.0</ele><time>2026-04-19T09:03:40.476Z</time></trkpt><trkpt lat="43.9059288" lon="12.9291678"><ele>1.0</ele><time>2026-04-19T09:03:41.464Z</time></trkpt><trkpt lat="43.9059844" lon="12.929043"><ele>0.9999999999999999</ele><time>2026-04-19T09:03:43.488Z</time></trkpt><trkpt lat="43.9060323" lon="12.928936"><ele>1.0</ele><time>2026-04-19T09:03:45.468Z</time></trkpt><trkpt lat="43.9060937" lon="12.9288239"><ele>0.9999999999999999</ele><time>2026-04-19T09:03:47.473Z</time></trkpt><trkpt lat="43.9061355" lon="12.9287455"><ele>1.0</ele><time>2026-04-19T09:03:49.485Z</time></trkpt><trkpt lat="43.9061825" lon="12.9286324"><ele>1.0</ele><time>2026-04-19T09:03:51.477Z</time></trkpt><trkpt lat="43.9062251" lon="12.928567"><ele>1.0</ele><time>2026-04-19T09:03:53.464Z</time></trkpt><trkpt lat="43.9062817" lon="12.9284742"><ele>0.9999999999999999</ele><time>2026-04-19T09:03:55.464Z</time></trkpt><trkpt lat="43.9063439" lon="12.9283762"><ele>1.0</ele><time>2026-04-19T09:03:57.463Z</time></trkpt><trkpt lat="43.9063756" lon="12.9282902"><ele>0.9999999999999999</ele><time>2026-04-19T09:04:00.468Z</time></trkpt><trkpt lat="43.9064259" lon="12.9281822"><ele>1.0</ele><time>2026-04-19T09:04:03.465Z</time></trkpt><trkpt lat="43.9064686" lon="12.9280706"><ele>1.0</ele><time>2026-04-19T09:04:05.47Z</time></trkpt><trkpt lat="43.9065363" lon="12.9279562"><ele>1.0</ele><time>2026-04-19T09:04:07.477Z</time></trkpt><trkpt lat="43.9065911" lon="12.9278861"><ele>0.9999999999999999</ele><time>2026-04-19T09:04:09.47Z</time></trkpt><trkpt lat="43.9066621" lon="12.9278223"><ele>1.0</ele><time>2026-04-19T09:04:11.477Z</time></trkpt><trkpt lat="43.9067378" lon="12.9277459"><ele>1.0</ele><time>2026-04-19T09:04:14.464Z</time></trkpt><trkpt lat="43.906822" lon="12.9276286"><ele>1.0</ele><time>2026-04-19T09:04:16.464Z</time></trkpt><trkpt lat="43.9068822" lon="12.9275385"><ele>1.0</ele><time>2026-04-19T09:04:18.464Z</time></trkpt><trkpt lat="43.9069617" lon="12.9274542"><ele>1.0</ele><time>2026-04-19T09:04:20.465Z</time></trkpt><trkpt lat="43.9070274" lon="12.9273474"><ele>1.0</ele><time>2026-04-19T09:04:22.467Z</time></trkpt><trkpt lat="43.9070533" lon="12.9272631"><ele>2.2</ele><time>2026-04-19T09:04:25.459Z</time></trkpt><trkpt lat="43.9071033" lon="12.9271624"><ele>3.4</ele><time>2026-04-19T09:04:27.478Z</time></trkpt><trkpt lat="43.9071813" lon="12.9270915"><ele>4.6</ele><time>2026-04-19T09:04:29.458Z</time></trkpt><trkpt lat="43.9072433" lon="12.9270097"><ele>5.8</ele><time>2026-04-19T09:04:31.48Z</time></trkpt><trkpt lat="43.907313" lon="12.9269232"><ele>7.0</ele><time>2026-04-19T09:04:33.46Z</time></trkpt><trkpt lat="43.9073884" lon="12.9268432"><ele>7.000000000000001</ele><time>2026-04-19T09:04:36.467Z</time></trkpt><trkpt lat="43.9074458" lon="12.9267727"><ele>7.0</ele><time>2026-04-19T09:04:38.469Z</time></trkpt><trkpt lat="43.9075135" lon="12.9267017"><ele>7.0</ele><time>2026-04-19T09:04:40.463Z</time></trkpt><trkpt lat="43.9075691" lon="12.9266397"><ele>7.0</ele><time>2026-04-19T09:04:42.47Z</time></trkpt><trkpt lat="43.907631" lon="12.9265574"><ele>7.000000000000001</ele><time>2026-04-19T09:04:45.464Z</time></trkpt><trkpt lat="43.9076879" lon="12.9264851"><ele>7.0</ele><time>2026-04-19T09:04:47.467Z</time></trkpt><trkpt lat="43.9077307" lon="12.9264203"><ele>6.166666666666667</ele><time>2026-04-19T09:04:49.467Z</time></trkpt><trkpt lat="43.907778" lon="12.9263384"><ele>5.333333333333334</ele><time>2026-04-19T09:04:52.476Z</time></trkpt><trkpt lat="43.9078335" lon="12.9262748"><ele>4.5</ele><time>2026-04-19T09:04:56.478Z</time></trkpt><trkpt lat="43.9077534" lon="12.9263033"><ele>3.666666666666667</ele><time>2026-04-19T09:05:02.464Z</time></trkpt><trkpt lat="43.907669" lon="12.9264022"><ele>2.833333333333333</ele><time>2026-04-19T09:05:05.474Z</time></trkpt><trkpt lat="43.9076171" lon="12.9264618"><ele>2.0</ele><time>2026-04-19T09:05:06.474Z</time></trkpt><trkpt lat="43.9075287" lon="12.9265431"><ele>1.9999999999999998</ele><time>2026-04-19T09:05:08.467Z</time></trkpt><trkpt lat="43.9074725" lon="12.9266283"><ele>2.0</ele><time>2026-04-19T09:05:10.463Z</time></trkpt><trkpt lat="43.9074311" lon="12.9267106"><ele>2.0</ele><time>2026-04-19T09:05:12.47Z</time></trkpt><trkpt lat="43.907386" lon="12.926777"><ele>2.0</ele><time>2026-04-19T09:05:14.472Z</time></trkpt><trkpt lat="43.9073425" lon="12.9268503"><ele>1.9999999999999998</ele><time>2026-04-19T09:05:16.478Z</time></trkpt><trkpt lat="43.9073214" lon="12.9269575"><ele>2.0</ele><time>2026-04-19T09:05:21.473Z</time></trkpt><trkpt lat="43.9073981" lon="12.9269003"><ele>1.9999999999999998</ele><time>2026-04-19T09:05:31.473Z</time></trkpt><trkpt lat="43.9074411" lon="12.9268321"><ele>2.0</ele><time>2026-04-19T09:05:36.48Z</time></trkpt><trkpt lat="43.9075191" lon="12.9268749"><ele>2.0</ele><time>2026-04-19T09:07:19.478Z</time></trkpt><trkpt lat="43.907525" lon="12.9267733"><ele>2.0</ele><time>2026-04-19T09:07:43.476Z</time></trkpt><trkpt lat="43.907563" lon="12.926684"><ele>1.9999999999999998</ele><time>2026-04-19T09:07:45.483Z</time></trkpt><trkpt lat="43.9076035" lon="12.926614"><ele>2.0</ele><time>2026-04-19T09:07:46.47Z</time></trkpt><trkpt lat="43.9076719" lon="12.9265062"><ele>1.8</ele><time>2026-04-19T09:07:48.467Z</time></trkpt><trkpt lat="43.9077395" lon="12.9263875"><ele>1.6</ele><time>2026-04-19T09:07:50.471Z</time></trkpt><trkpt lat="43.9078022" lon="12.9262691"><ele>1.4000000000000001</ele><time>2026-04-19T09:07:52.473Z</time></trkpt><trkpt lat="43.9078673" lon="12.9261765"><ele>1.2000000000000002</ele><time>2026-04-19T09:07:54.469Z</time></trkpt><trkpt lat="43.9079122" lon="12.9260986"><ele>1.0</ele><time>2026-04-19T09:07:56.471Z</time></trkpt><trkpt lat="43.9079805" lon="12.9260101"><ele>0.9999999999999999</ele><time>2026-04-19T09:07:58.481Z</time></trkpt><trkpt lat="43.9080311" lon="12.9259446"><ele>1.0</ele><time>2026-04-19T09:08:00.468Z</time></trkpt><trkpt lat="43.9080697" lon="12.9258659"><ele>1.0</ele><time>2026-04-19T09:08:02.479Z</time></trkpt><trkpt lat="43.9081214" lon="12.9257823"><ele>1.0</ele><time>2026-04-19T09:08:04.468Z</time></trkpt><trkpt lat="43.9082168" lon="12.9256719"><ele>0.9999999999999999</ele><time>2026-04-19T09:08:06.476Z</time></trkpt><trkpt lat="43.9082851" lon="12.9255787"><ele>1.0</ele><time>2026-04-19T09:08:08.458Z</time></trkpt><trkpt lat="43.9083434" lon="12.9254753"><ele>1.0</ele><time>2026-04-19T09:08:10.471Z</time></trkpt><trkpt lat="43.908413" lon="12.9253844"><ele>1.0</ele><time>2026-04-19T09:08:12.465Z</time></trkpt><trkpt lat="43.908464" lon="12.9253208"><ele>1.0</ele><time>2026-04-19T09:08:14.477Z</time></trkpt><trkpt lat="43.9085296" lon="12.9252399"><ele>1.0</ele><time>2026-04-19T09:08:16.47Z</time></trkpt><trkpt lat="43.9085897" lon="12.925135"><ele>1.0</ele><time>2026-04-19T09:08:18.464Z</time></trkpt><trkpt lat="43.9086456" lon="12.9250018"><ele>2.8</ele><time>2026-04-19T09:08:20.464Z</time></trkpt><trkpt lat="43.9087473" lon="12.9249409"><ele>4.6</ele><time>2026-04-19T09:08:21.478Z</time></trkpt><trkpt lat="43.908813" lon="12.9248229"><ele>6.4</ele><time>2026-04-19T09:08:23.484Z</time></trkpt><trkpt lat="43.9088551" lon="12.9247527"><ele>8.2</ele><time>2026-04-19T09:08:24.478Z</time></trkpt><trkpt lat="43.9089541" lon="12.9246492"><ele>10.0</ele><time>2026-04-19T09:08:26.494Z</time></trkpt><trkpt lat="43.9090332" lon="12.9245353"><ele>10.0</ele><time>2026-04-19T09:08:28.462Z</time></trkpt><trkpt lat="43.9091215" lon="12.9244158"><ele>10.0</ele><time>2026-04-19T09:08:30.465Z</time></trkpt><trkpt lat="43.9092042" lon="12.9242983"><ele>10.0</ele><time>2026-04-19T09:08:32.475Z</time></trkpt><trkpt lat="43.9092747" lon="12.9241974"><ele>10.0</ele><time>2026-04-19T09:08:34.476Z</time></trkpt><trkpt lat="43.9093447" lon="12.9241044"><ele>10.0</ele><time>2026-04-19T09:08:36.482Z</time></trkpt><trkpt lat="43.9094013" lon="12.9240292"><ele>8.333333333333334</ele><time>2026-04-19T09:08:38.458Z</time></trkpt><trkpt lat="43.9094585" lon="12.9239488"><ele>6.666666666666667</ele><time>2026-04-19T09:08:40.476Z</time></trkpt><trkpt lat="43.9095178" lon="12.9238633"><ele>5.0</ele><time>2026-04-19T09:08:42.463Z</time></trkpt><trkpt lat="43.9095913" lon="12.9237689"><ele>3.3333333333333335</ele><time>2026-04-19T09:08:44.474Z</time></trkpt><trkpt lat="43.9096562" lon="12.923669"><ele>1.6666666666666667</ele><time>2026-04-19T09:08:46.479Z</time></trkpt><trkpt lat="43.9097098" lon="12.9235792"><ele>0.0</ele><time>2026-04-19T09:08:48.483Z</time></trkpt><trkpt lat="43.9097911" lon="12.9234704"><ele>0.0</ele><time>2026-04-19T09:08:51.468Z</time></trkpt><trkpt lat="43.9098549" lon="12.9234046"><ele>0.0</ele><time>2026-04-19T09:08:53.473Z</time></trkpt><trkpt lat="43.9099252" lon="12.923325"><ele>0.0</ele><time>2026-04-19T09:08:55.461Z</time></trkpt><trkpt lat="43.9100031" lon="12.9232418"><ele>0.0</ele><time>2026-04-19T09:08:57.468Z</time></trkpt><trkpt lat="43.9100629" lon="12.9231285"><ele>0.0</ele><time>2026-04-19T09:08:59.464Z</time></trkpt><trkpt lat="43.9101267" lon="12.9230263"><ele>0.5</ele><time>2026-04-19T09:09:02.477Z</time></trkpt><trkpt lat="43.9101755" lon="12.9229478"><ele>1.0</ele><time>2026-04-19T09:09:04.475Z</time></trkpt><trkpt lat="43.910224" lon="12.9228586"><ele>1.5</ele><time>2026-04-19T09:09:06.471Z</time></trkpt><trkpt lat="43.9102925" lon="12.9227756"><ele>2.0</ele><time>2026-04-19T09:09:09.487Z</time></trkpt><trkpt lat="43.9103474" lon="12.9227079"><ele>2.5</ele><time>2026-04-19T09:09:11.484Z</time></trkpt><trkpt lat="43.9104012" lon="12.9226184"><ele>3.0</ele><time>2026-04-19T09:09:13.478Z</time></trkpt><trkpt lat="43.9104519" lon="12.9225242"><ele>3.4</ele><time>2026-04-19T09:09:15.474Z</time></trkpt><trkpt lat="43.910517" lon="12.9224188"><ele>3.8</ele><time>2026-04-19T09:09:17.475Z</time></trkpt><trkpt lat="43.9105661" lon="12.9223282"><ele>4.2</ele><time>2026-04-19T09:09:19.484Z</time></trkpt><trkpt lat="43.9106361" lon="12.9222933"><ele>4.6</ele><time>2026-04-19T09:09:20.482Z</time></trkpt><trkpt lat="43.9107271" lon="12.9221976"><ele>5.0</ele><time>2026-04-19T09:09:22.473Z</time></trkpt><trkpt lat="43.9108003" lon="12.9220922"><ele>5.0</ele><time>2026-04-19T09:09:24.467Z</time></trkpt><trkpt lat="43.9108772" lon="12.9219965"><ele>5.0</ele><time>2026-04-19T09:09:26.47Z</time></trkpt><trkpt lat="43.9109275" lon="12.921902"><ele>5.0</ele><time>2026-04-19T09:09:28.48Z</time></trkpt><trkpt lat="43.9110031" lon="12.9218103"><ele>5.0</ele><time>2026-04-19T09:09:30.46Z</time></trkpt><trkpt lat="43.9110697" lon="12.9217147"><ele>5.0</ele><time>2026-04-19T09:09:32.46Z</time></trkpt><trkpt lat="43.9111467" lon="12.9216136"><ele>4.5</ele><time>2026-04-19T09:09:34.477Z</time></trkpt><trkpt lat="43.9112233" lon="12.9215155"><ele>4.0</ele><time>2026-04-19T09:09:36.465Z</time></trkpt><trkpt lat="43.9112771" lon="12.9214308"><ele>3.5</ele><time>2026-04-19T09:09:38.471Z</time></trkpt><trkpt lat="43.9113377" lon="12.9213433"><ele>3.0</ele><time>2026-04-19T09:09:40.464Z</time></trkpt><trkpt lat="43.911383" lon="12.9212766"><ele>2.5</ele><time>2026-04-19T09:09:42.458Z</time></trkpt><trkpt lat="43.9114454" lon="12.9212276"><ele>2.0</ele><time>2026-04-19T09:09:45.479Z</time></trkpt><trkpt lat="43.9115194" lon="12.9212141"><ele>1.9999999999999998</ele><time>2026-04-19T09:09:47.47Z</time></trkpt><trkpt lat="43.9116005" lon="12.9211982"><ele>2.0</ele><time>2026-04-19T09:09:49.471Z</time></trkpt><trkpt lat="43.9116804" lon="12.9211975"><ele>2.0</ele><time>2026-04-19T09:09:51.466Z</time></trkpt><trkpt lat="43.9117526" lon="12.9212397"><ele>2.0</ele><time>2026-04-19T09:09:53.464Z</time></trkpt><trkpt lat="43.9118201" lon="12.9213018"><ele>1.9999999999999998</ele><time>2026-04-19T09:09:55.465Z</time></trkpt><trkpt lat="43.9118824" lon="12.9213596"><ele>2.0</ele><time>2026-04-19T09:09:57.465Z</time></trkpt><trkpt lat="43.9119347" lon="12.9214105"><ele>1.6</ele><time>2026-04-19T09:09:59.478Z</time></trkpt><trkpt lat="43.911999" lon="12.9214407"><ele>1.2000000000000002</ele><time>2026-04-19T09:10:03.464Z</time></trkpt><trkpt lat="43.9120613" lon="12.9214115"><ele>0.8</ele><time>2026-04-19T09:10:05.472Z</time></trkpt><trkpt lat="43.9121602" lon="12.9213483"><ele>0.4</ele><time>2026-04-19T09:10:07.471Z</time></trkpt><trkpt lat="43.9122432" lon="12.921272"><ele>0.0</ele><time>2026-04-19T09:10:09.471Z</time></trkpt><trkpt lat="43.9123337" lon="12.9211854"><ele>0.0</ele><time>2026-04-19T09:10:11.467Z</time></trkpt><trkpt lat="43.9124182" lon="12.9210937"><ele>0.0</ele><time>2026-04-19T09:10:13.48Z</time></trkpt><trkpt lat="43.9125046" lon="12.9209889"><ele>0.0</ele><time>2026-04-19T09:10:15.456Z</time></trkpt><trkpt lat="43.9125745" lon="12.9208934"><ele>0.0</ele><time>2026-04-19T09:10:17.479Z</time></trkpt><trkpt lat="43.9126481" lon="12.9207976"><ele>0.0</ele><time>2026-04-19T09:10:19.466Z</time></trkpt><trkpt lat="43.9127144" lon="12.9207063"><ele>0.0</ele><time>2026-04-19T09:10:21.462Z</time></trkpt><trkpt lat="43.9127837" lon="12.9206064"><ele>0.0</ele><time>2026-04-19T09:10:23.474Z</time></trkpt><trkpt lat="43.9128622" lon="12.9205043"><ele>0.0</ele><time>2026-04-19T09:10:25.474Z</time></trkpt><trkpt lat="43.912932" lon="12.9204013"><ele>0.0</ele><time>2026-04-19T09:10:27.478Z</time></trkpt><trkpt lat="43.9130005" lon="12.920276"><ele>0.0</ele><time>2026-04-19T09:10:29.48Z</time></trkpt><trkpt lat="43.9130755" lon="12.920189"><ele>0.0</ele><time>2026-04-19T09:10:31.48Z</time></trkpt><trkpt lat="43.9131452" lon="12.9200956"><ele>0.0</ele><time>2026-04-19T09:10:33.466Z</time></trkpt><trkpt lat="43.9132096" lon="12.9200167"><ele>0.0</ele><time>2026-04-19T09:10:35.459Z</time></trkpt><trkpt lat="43.9132652" lon="12.9199473"><ele>0.0</ele><time>2026-04-19T09:10:37.456Z</time></trkpt><trkpt lat="43.9133363" lon="12.9198743"><ele>0.0</ele><time>2026-04-19T09:10:39.456Z</time></trkpt><trkpt lat="43.9133991" lon="12.9198016"><ele>0.0</ele><time>2026-04-19T09:10:41.454Z</time></trkpt><trkpt lat="43.9134571" lon="12.9197226"><ele>0.0</ele><time>2026-04-19T09:10:43.474Z</time></trkpt><trkpt lat="43.9135222" lon="12.9196458"><ele>0.0</ele><time>2026-04-19T09:10:45.466Z</time></trkpt><trkpt lat="43.9135867" lon="12.9195817"><ele>0.0</ele><time>2026-04-19T09:10:47.463Z</time></trkpt><trkpt lat="43.9136571" lon="12.9195135"><ele>0.0</ele><time>2026-04-19T09:10:49.458Z</time></trkpt><trkpt lat="43.9137233" lon="12.9194485"><ele>0.0</ele><time>2026-04-19T09:10:51.465Z</time></trkpt><trkpt lat="43.9137784" lon="12.919372"><ele>0.0</ele><time>2026-04-19T09:10:53.457Z</time></trkpt><trkpt lat="43.9138346" lon="12.9192832"><ele>0.0</ele><time>2026-04-19T09:10:56.46Z</time></trkpt><trkpt lat="43.9138809" lon="12.919221"><ele>0.0</ele><time>2026-04-19T09:11:00.466Z</time></trkpt><trkpt lat="43.9139499" lon="12.91921"><ele>0.0</ele><time>2026-04-19T09:11:05.467Z</time></trkpt><trkpt lat="43.9140235" lon="12.9192284"><ele>0.0</ele><time>2026-04-19T09:11:08.469Z</time></trkpt><trkpt lat="43.9140896" lon="12.9192566"><ele>0.0</ele><time>2026-04-19T09:11:11.464Z</time></trkpt><trkpt lat="43.9141704" lon="12.9192708"><ele>0.0</ele><time>2026-04-19T09:11:14.475Z</time></trkpt><trkpt lat="43.9142516" lon="12.9192748"><ele>0.0</ele><time>2026-04-19T09:11:17.473Z</time></trkpt><trkpt lat="43.9143259" lon="12.9192631"><ele>0.0</ele><time>2026-04-19T09:11:21.469Z</time></trkpt><trkpt lat="43.9143997" lon="12.9192241"><ele>0.0</ele><time>2026-04-19T09:11:25.475Z</time></trkpt><trkpt lat="43.9144666" lon="12.9191785"><ele>0.0</ele><time>2026-04-19T09:11:28.468Z</time></trkpt><trkpt lat="43.91453" lon="12.9191227"><ele>0.0</ele><time>2026-04-19T09:11:31.465Z</time></trkpt><trkpt lat="43.9145882" lon="12.9190676"><ele>0.0</ele><time>2026-04-19T09:11:34.476Z</time></trkpt><trkpt lat="43.9146419" lon="12.918979"><ele>0.0</ele><time>2026-04-19T09:11:37.464Z</time></trkpt><trkpt lat="43.9146727" lon="12.9188997"><ele>0.0</ele><time>2026-04-19T09:11:39.466Z</time></trkpt><trkpt lat="43.9147159" lon="12.9188213"><ele>0.0</ele><time>2026-04-19T09:11:41.475Z</time></trkpt><trkpt lat="43.9147438" lon="12.9187428"><ele>0.0</ele><time>2026-04-19T09:11:43.469Z</time></trkpt><trkpt lat="43.9147604" lon="12.9186426"><ele>0.0</ele><time>2026-04-19T09:11:46.468Z</time></trkpt><trkpt lat="43.9147473" lon="12.9185361"><ele>0.0</ele><time>2026-04-19T09:11:49.461Z</time></trkpt><trkpt lat="43.9147433" lon="12.9184463"><ele>0.0</ele><time>2026-04-19T09:11:52.479Z</time></trkpt><trkpt lat="43.9148021" lon="12.9183579"><ele>0.0</ele><time>2026-04-19T09:11:55.465Z</time></trkpt><trkpt lat="43.9148633" lon="12.9182815"><ele>0.0</ele><time>2026-04-19T09:11:57.457Z</time></trkpt><trkpt lat="43.9149266" lon="12.9182064"><ele>0.0</ele><time>2026-04-19T09:11:59.473Z</time></trkpt><trkpt lat="43.9149947" lon="12.9181411"><ele>0.0</ele><time>2026-04-19T09:12:01.478Z</time></trkpt><trkpt lat="43.9150672" lon="12.9180722"><ele>0.0</ele><time>2026-04-19T09:12:03.472Z</time></trkpt><trkpt lat="43.9151361" lon="12.9180071"><ele>0.0</ele><time>2026-04-19T09:12:05.459Z</time></trkpt><trkpt lat="43.9152034" lon="12.9179417"><ele>0.0</ele><time>2026-04-19T09:12:07.478Z</time></trkpt><trkpt lat="43.9152695" lon="12.9178783"><ele>0.0</ele><time>2026-04-19T09:12:09.482Z</time></trkpt><trkpt lat="43.9153323" lon="12.917821"><ele>0.0</ele><time>2026-04-19T09:12:11.476Z</time></trkpt><trkpt lat="43.9153924" lon="12.9177772"><ele>0.0</ele><time>2026-04-19T09:12:13.467Z</time></trkpt><trkpt lat="43.9154539" lon="12.9177483"><ele>0.0</ele><time>2026-04-19T09:12:15.464Z</time></trkpt><trkpt lat="43.9155333" lon="12.9176953"><ele>0.0</ele><time>2026-04-19T09:12:18.479Z</time></trkpt><trkpt lat="43.9155948" lon="12.9176358"><ele>0.0</ele><time>2026-04-19T09:12:21.457Z</time></trkpt><trkpt lat="43.9156367" lon="12.9175423"><ele>0.0</ele><time>2026-04-19T09:12:24.459Z</time></trkpt><trkpt lat="43.9156207" lon="12.9174341"><ele>0.0</ele><time>2026-04-19T09:12:27.471Z</time></trkpt><trkpt lat="43.9155738" lon="12.9173686"><ele>0.0</ele><time>2026-04-19T09:12:32.484Z</time></trkpt><trkpt lat="43.9155201" lon="12.9172746"><ele>0.0</ele><time>2026-04-19T09:12:37.462Z</time></trkpt><trkpt lat="43.9154986" lon="12.9171781"><ele>0.0</ele><time>2026-04-19T09:12:40.469Z</time></trkpt><trkpt lat="43.9155214" lon="12.9170593"><ele>0.0</ele><time>2026-04-19T09:12:43.469Z</time></trkpt><trkpt lat="43.9155251" lon="12.9169562"><ele>0.0</ele><time>2026-04-19T09:12:45.474Z</time></trkpt><trkpt lat="43.9155254" lon="12.9168504"><ele>0.0</ele><time>2026-04-19T09:12:47.466Z</time></trkpt><trkpt lat="43.9155614" lon="12.9167611"><ele>0.0</ele><time>2026-04-19T09:12:49.476Z</time></trkpt><trkpt lat="43.9156068" lon="12.916679"><ele>0.0</ele><time>2026-04-19T09:12:52.459Z</time></trkpt><trkpt lat="43.9156425" lon="12.9166048"><ele>0.0</ele><time>2026-04-19T09:12:55.456Z</time></trkpt><trkpt lat="43.91568" lon="12.9165209"><ele>0.0</ele><time>2026-04-19T09:13:01.458Z</time></trkpt><trkpt lat="43.9157238" lon="12.9164523"><ele>0.0</ele><time>2026-04-19T09:13:05.463Z</time></trkpt><trkpt lat="43.9157755" lon="12.9163902"><ele>0.0</ele><time>2026-04-19T09:13:09.471Z</time></trkpt><trkpt lat="43.9158332" lon="12.916326"><ele>0.14285714285714285</ele><time>2026-04-19T09:13:12.481Z</time></trkpt><trkpt lat="43.9158861" lon="12.9162575"><ele>0.2857142857142857</ele><time>2026-04-19T09:13:15.466Z</time></trkpt><trkpt lat="43.9158904" lon="12.916155"><ele>0.42857142857142855</ele><time>2026-04-19T09:13:19.468Z</time></trkpt><trkpt lat="43.9158486" lon="12.9160833"><ele>0.5714285714285714</ele><time>2026-04-19T09:13:22.475Z</time></trkpt><trkpt lat="43.9157951" lon="12.9160111"><ele>0.7142857142857142</ele><time>2026-04-19T09:13:26.474Z</time></trkpt><trkpt lat="43.9157299" lon="12.9159392"><ele>0.8571428571428571</ele><time>2026-04-19T09:13:30.474Z</time></trkpt><trkpt lat="43.9156704" lon="12.9158949"><ele>1.0</ele><time>2026-04-19T09:13:32.467Z</time></trkpt><trkpt lat="43.9156002" lon="12.9158657"><ele>0.9999999999999999</ele><time>2026-04-19T09:13:34.469Z</time></trkpt><trkpt lat="43.91553" lon="12.9157989"><ele>1.0</ele><time>2026-04-19T09:13:37.467Z</time></trkpt><trkpt lat="43.915504" lon="12.9157034"><ele>1.0</ele><time>2026-04-19T09:13:40.473Z</time></trkpt><trkpt lat="43.915536" lon="12.9156088"><ele>1.0</ele><time>2026-04-19T09:13:42.46Z</time></trkpt><trkpt lat="43.9155871" lon="12.9154934"><ele>0.9999999999999999</ele><time>2026-04-19T09:13:44.475Z</time></trkpt><trkpt lat="43.9156404" lon="12.91542"><ele>1.0</ele><time>2026-04-19T09:13:45.459Z</time></trkpt><trkpt lat="43.9157084" lon="12.9153028"><ele>1.0</ele><time>2026-04-19T09:13:47.468Z</time></trkpt><trkpt lat="43.9157771" lon="12.9151859"><ele>1.0</ele><time>2026-04-19T09:13:49.47Z</time></trkpt><trkpt lat="43.9158361" lon="12.9151061"><ele>1.0</ele><time>2026-04-19T09:13:51.475Z</time></trkpt><trkpt lat="43.9159079" lon="12.9149826"><ele>1.0</ele><time>2026-04-19T09:13:53.464Z</time></trkpt><trkpt lat="43.9159911" lon="12.9148688"><ele>1.0</ele><time>2026-04-19T09:13:55.477Z</time></trkpt><trkpt lat="43.9160767" lon="12.9147553"><ele>1.0</ele><time>2026-04-19T09:13:57.462Z</time></trkpt><trkpt lat="43.9161586" lon="12.9146395"><ele>1.0</ele><time>2026-04-19T09:13:59.474Z</time></trkpt><trkpt lat="43.9162295" lon="12.9145274"><ele>1.0</ele><time>2026-04-19T09:14:01.464Z</time></trkpt><trkpt lat="43.9162947" lon="12.9144084"><ele>1.0</ele><time>2026-04-19T09:14:03.464Z</time></trkpt><trkpt lat="43.9163696" lon="12.9142898"><ele>1.0</ele><time>2026-04-19T09:14:05.475Z</time></trkpt><trkpt lat="43.9164572" lon="12.9141802"><ele>0.75</ele><time>2026-04-19T09:14:07.475Z</time></trkpt><trkpt lat="43.9165459" lon="12.9140684"><ele>0.5</ele><time>2026-04-19T09:14:09.464Z</time></trkpt><trkpt lat="43.9166236" lon="12.913945"><ele>0.25</ele><time>2026-04-19T09:14:11.468Z</time></trkpt><trkpt lat="43.9166995" lon="12.9138281"><ele>0.0</ele><time>2026-04-19T09:14:13.465Z</time></trkpt><trkpt lat="43.916772" lon="12.9137231"><ele>0.0</ele><time>2026-04-19T09:14:15.474Z</time></trkpt><trkpt lat="43.9168455" lon="12.9136034"><ele>0.0</ele><time>2026-04-19T09:14:17.458Z</time></trkpt><trkpt lat="43.9169201" lon="12.9135184"><ele>0.0</ele><time>2026-04-19T09:14:19.454Z</time></trkpt><trkpt lat="43.9169906" lon="12.9134036"><ele>0.0</ele><time>2026-04-19T09:14:21.457Z</time></trkpt><trkpt lat="43.91706" lon="12.9133057"><ele>0.0</ele><time>2026-04-19T09:14:23.478Z</time></trkpt><trkpt lat="43.9171242" lon="12.9132106"><ele>-0.16666666666666666</ele><time>2026-04-19T09:14:25.473Z</time></trkpt><trkpt lat="43.9171933" lon="12.9131345"><ele>-0.3333333333333333</ele><time>2026-04-19T09:14:27.476Z</time></trkpt><trkpt lat="43.9172642" lon="12.9130514"><ele>-0.5</ele><time>2026-04-19T09:14:29.466Z</time></trkpt><trkpt lat="43.9173242" lon="12.9129709"><ele>-0.6666666666666666</ele><time>2026-04-19T09:14:31.471Z</time></trkpt><trkpt lat="43.9173783" lon="12.912891"><ele>-0.8333333333333333</ele><time>2026-04-19T09:14:33.455Z</time></trkpt><trkpt lat="43.9174245" lon="12.9128203"><ele>-1.0</ele><time>2026-04-19T09:14:35.477Z</time></trkpt><trkpt lat="43.9174768" lon="12.9127382"><ele>-1.0</ele><time>2026-04-19T09:14:37.465Z</time></trkpt><trkpt lat="43.9175604" lon="12.912635"><ele>-1.0</ele><time>2026-04-19T09:14:39.469Z</time></trkpt><trkpt lat="43.9176348" lon="12.9125399"><ele>-1.0</ele><time>2026-04-19T09:14:41.474Z</time></trkpt><trkpt lat="43.9177183" lon="12.9124202"><ele>-1.0</ele><time>2026-04-19T09:14:43.466Z</time></trkpt><trkpt lat="43.9178054" lon="12.9123155"><ele>-1.0</ele><time>2026-04-19T09:14:45.462Z</time></trkpt><trkpt lat="43.9178816" lon="12.9121959"><ele>-0.25</ele><time>2026-04-19T09:14:47.468Z</time></trkpt><trkpt lat="43.9179632" lon="12.9120843"><ele>0.5</ele><time>2026-04-19T09:14:49.475Z</time></trkpt><trkpt lat="43.9180446" lon="12.9119753"><ele>1.25</ele><time>2026-04-19T09:14:51.46Z</time></trkpt><trkpt lat="43.9181324" lon="12.9118653"><ele>2.0</ele><time>2026-04-19T09:14:53.468Z</time></trkpt><trkpt lat="43.9181997" lon="12.9117545"><ele>2.0</ele><time>2026-04-19T09:14:55.461Z</time></trkpt><trkpt lat="43.9182759" lon="12.9116489"><ele>2.0</ele><time>2026-04-19T09:14:57.471Z</time></trkpt><trkpt lat="43.9183569" lon="12.9115345"><ele>2.0</ele><time>2026-04-19T09:14:59.475Z</time></trkpt><trkpt lat="43.9184314" lon="12.9114193"><ele>2.0</ele><time>2026-04-19T09:15:01.459Z</time></trkpt><trkpt lat="43.9185056" lon="12.9113207"><ele>2.0</ele><time>2026-04-19T09:15:03.459Z</time></trkpt><trkpt lat="43.918583" lon="12.9112123"><ele>1.6</ele><time>2026-04-19T09:15:05.459Z</time></trkpt><trkpt lat="43.9186466" lon="12.9111203"><ele>1.2000000000000002</ele><time>2026-04-19T09:15:07.468Z</time></trkpt><trkpt lat="43.9187312" lon="12.9110134"><ele>0.8</ele><time>2026-04-19T09:15:09.458Z</time></trkpt><trkpt lat="43.9188039" lon="12.9108912"><ele>0.4</ele><time>2026-04-19T09:15:11.457Z</time></trkpt><trkpt lat="43.9188812" lon="12.9107809"><ele>0.0</ele><time>2026-04-19T09:15:13.456Z</time></trkpt><trkpt lat="43.91896" lon="12.9106681"><ele>0.0</ele><time>2026-04-19T09:15:15.469Z</time></trkpt><trkpt lat="43.9190031" lon="12.9106016"><ele>0.0</ele><time>2026-04-19T09:15:16.476Z</time></trkpt><trkpt lat="43.919088" lon="12.9104904"><ele>0.0</ele><time>2026-04-19T09:15:18.477Z</time></trkpt><trkpt lat="43.9191776" lon="12.9103726"><ele>0.0</ele><time>2026-04-19T09:15:20.465Z</time></trkpt><trkpt lat="43.9192655" lon="12.9102522"><ele>0.0</ele><time>2026-04-19T09:15:22.466Z</time></trkpt><trkpt lat="43.9193088" lon="12.9101865"><ele>0.0</ele><time>2026-04-19T09:15:23.473Z</time></trkpt><trkpt lat="43.9193905" lon="12.9100675"><ele>0.0</ele><time>2026-04-19T09:15:25.465Z</time></trkpt><trkpt lat="43.9194643" lon="12.9099635"><ele>0.0</ele><time>2026-04-19T09:15:27.468Z</time></trkpt><trkpt lat="43.9195467" lon="12.9098476"><ele>0.0</ele><time>2026-04-19T09:15:29.484Z</time></trkpt><trkpt lat="43.9196295" lon="12.9097352"><ele>0.0</ele><time>2026-04-19T09:15:31.455Z</time></trkpt><trkpt lat="43.9197138" lon="12.909621"><ele>0.0</ele><time>2026-04-19T09:15:33.457Z</time></trkpt><trkpt lat="43.9197816" lon="12.9095227"><ele>0.0</ele><time>2026-04-19T09:15:35.476Z</time></trkpt><trkpt lat="43.919864" lon="12.9094094"><ele>0.0</ele><time>2026-04-19T09:15:37.455Z</time></trkpt><trkpt lat="43.9199486" lon="12.9092916"><ele>0.0</ele><time>2026-04-19T09:15:39.467Z</time></trkpt><trkpt lat="43.9200439" lon="12.9091791"><ele>0.0</ele><time>2026-04-19T09:15:41.458Z</time></trkpt><trkpt lat="43.9201272" lon="12.9090626"><ele>0.0</ele><time>2026-04-19T09:15:43.466Z</time></trkpt><trkpt lat="43.9202125" lon="12.9089525"><ele>0.0</ele><time>2026-04-19T09:15:45.46Z</time></trkpt><trkpt lat="43.9202946" lon="12.9088476"><ele>0.0</ele><time>2026-04-19T09:15:47.468Z</time></trkpt><trkpt lat="43.9203718" lon="12.9087345"><ele>0.0</ele><time>2026-04-19T09:15:49.487Z</time></trkpt><trkpt lat="43.9204514" lon="12.9086162"><ele>0.0</ele><time>2026-04-19T09:15:51.467Z</time></trkpt><trkpt lat="43.9204918" lon="12.908545"><ele>0.0</ele><time>2026-04-19T09:15:52.467Z</time></trkpt><trkpt lat="43.9205404" lon="12.9084883"><ele>0.0</ele><time>2026-04-19T09:15:53.468Z</time></trkpt><trkpt lat="43.920622" lon="12.9083735"><ele>-0.2</ele><time>2026-04-19T09:15:55.456Z</time></trkpt><trkpt lat="43.9207188" lon="12.9082555"><ele>-0.4</ele><time>2026-04-19T09:15:57.463Z</time></trkpt><trkpt lat="43.9207659" lon="12.9081927"><ele>-0.6000000000000001</ele><time>2026-04-19T09:15:58.476Z</time></trkpt><trkpt lat="43.9208447" lon="12.9080813"><ele>-0.8</ele><time>2026-04-19T09:16:00.464Z</time></trkpt><trkpt lat="43.9209225" lon="12.9079701"><ele>-1.0</ele><time>2026-04-19T09:16:02.471Z</time></trkpt><trkpt lat="43.9209898" lon="12.907871"><ele>-0.8333333333333333</ele><time>2026-04-19T09:16:04.46Z</time></trkpt><trkpt lat="43.9210336" lon="12.9077835"><ele>-0.6666666666666666</ele><time>2026-04-19T09:16:07.472Z</time></trkpt><trkpt lat="43.9210891" lon="12.9077198"><ele>-0.5</ele><time>2026-04-19T09:16:10.465Z</time></trkpt><trkpt lat="43.9211352" lon="12.9076505"><ele>-0.3333333333333333</ele><time>2026-04-19T09:16:12.459Z</time></trkpt><trkpt lat="43.9211924" lon="12.9075642"><ele>-0.16666666666666666</ele><time>2026-04-19T09:16:14.454Z</time></trkpt><trkpt lat="43.9212762" lon="12.9074648"><ele>0.0</ele><time>2026-04-19T09:16:16.477Z</time></trkpt><trkpt lat="43.921349" lon="12.9073555"><ele>0.0</ele><time>2026-04-19T09:16:18.458Z</time></trkpt><trkpt lat="43.9214372" lon="12.9072394"><ele>0.0</ele><time>2026-04-19T09:16:20.457Z</time></trkpt><trkpt lat="43.9215223" lon="12.9071216"><ele>0.0</ele><time>2026-04-19T09:16:22.468Z</time></trkpt><trkpt lat="43.9215647" lon="12.9070555"><ele>0.0</ele><time>2026-04-19T09:16:23.46Z</time></trkpt><trkpt lat="43.9216443" lon="12.9069295"><ele>0.0</ele><time>2026-04-19T09:16:25.455Z</time></trkpt><trkpt lat="43.9217275" lon="12.9068132"><ele>0.0</ele><time>2026-04-19T09:16:27.461Z</time></trkpt><trkpt lat="43.9218079" lon="12.9067005"><ele>0.0</ele><time>2026-04-19T09:16:29.462Z</time></trkpt><trkpt lat="43.921888" lon="12.906593"><ele>0.0</ele><time>2026-04-19T09:16:31.463Z</time></trkpt><trkpt lat="43.9219619" lon="12.906485"><ele>0.0</ele><time>2026-04-19T09:16:33.464Z</time></trkpt><trkpt lat="43.9220362" lon="12.9063864"><ele>0.0</ele><time>2026-04-19T09:16:35.453Z</time></trkpt><trkpt lat="43.9221128" lon="12.9063005"><ele>0.0</ele><time>2026-04-19T09:16:37.478Z</time></trkpt><trkpt lat="43.922192" lon="12.9062465"><ele>0.0</ele><time>2026-04-19T09:16:39.475Z</time></trkpt><trkpt lat="43.922274" lon="12.9062399"><ele>0.0</ele><time>2026-04-19T09:16:41.467Z</time></trkpt><trkpt lat="43.9223534" lon="12.9063094"><ele>0.0</ele><time>2026-04-19T09:16:43.453Z</time></trkpt><trkpt lat="43.9224153" lon="12.9063978"><ele>0.0</ele><time>2026-04-19T09:16:45.456Z</time></trkpt><trkpt lat="43.9224693" lon="12.906492"><ele>0.0</ele><time>2026-04-19T09:16:47.467Z</time></trkpt><trkpt lat="43.9225204" lon="12.9065855"><ele>0.0</ele><time>2026-04-19T09:16:49.456Z</time></trkpt><trkpt lat="43.9225782" lon="12.9066714"><ele>0.0</ele><time>2026-04-19T09:16:51.458Z</time></trkpt><trkpt lat="43.9226546" lon="12.9067676"><ele>0.0</ele><time>2026-04-19T09:16:53.453Z</time></trkpt><trkpt lat="43.9227453" lon="12.9068216"><ele>0.0</ele><time>2026-04-19T09:16:55.456Z</time></trkpt><trkpt lat="43.9228419" lon="12.9068362"><ele>0.0</ele><time>2026-04-19T09:16:57.463Z</time></trkpt><trkpt lat="43.9229292" lon="12.9068357"><ele>0.0</ele><time>2026-04-19T09:16:59.456Z</time></trkpt><trkpt lat="43.9230081" lon="12.9068219"><ele>0.0</ele><time>2026-04-19T09:17:01.455Z</time></trkpt><trkpt lat="43.9230922" lon="12.9067691"><ele>0.0</ele><time>2026-04-19T09:17:03.465Z</time></trkpt><trkpt lat="43.923151" lon="12.9066895"><ele>0.0</ele><time>2026-04-19T09:17:05.464Z</time></trkpt><trkpt lat="43.9232213" lon="12.9066016"><ele>0.0</ele><time>2026-04-19T09:17:07.474Z</time></trkpt><trkpt lat="43.9232984" lon="12.9065079"><ele>0.0</ele><time>2026-04-19T09:17:09.457Z</time></trkpt><trkpt lat="43.9233912" lon="12.9064857"><ele>0.0</ele><time>2026-04-19T09:17:11.473Z</time></trkpt><trkpt lat="43.9234826" lon="12.9064934"><ele>0.0</ele><time>2026-04-19T09:17:13.467Z</time></trkpt><trkpt lat="43.9235729" lon="12.906495"><ele>0.0</ele><time>2026-04-19T09:17:15.464Z</time></trkpt><trkpt lat="43.9236582" lon="12.9065212"><ele>0.0</ele><time>2026-04-19T09:17:17.458Z</time></trkpt><trkpt lat="43.9237588" lon="12.9065479"><ele>-0.6</ele><time>2026-04-19T09:17:19.464Z</time></trkpt><trkpt lat="43.9238549" lon="12.9065798"><ele>-1.2</ele><time>2026-04-19T09:17:21.453Z</time></trkpt><trkpt lat="43.9239521" lon="12.9066084"><ele>-1.7999999999999998</ele><time>2026-04-19T09:17:23.46Z</time></trkpt><trkpt lat="43.9240455" lon="12.9066428"><ele>-2.4</ele><time>2026-04-19T09:17:25.475Z</time></trkpt><trkpt lat="43.9241274" lon="12.9066622"><ele>-3.0</ele><time>2026-04-19T09:17:27.467Z</time></trkpt><trkpt lat="43.9242098" lon="12.9066925"><ele>-2.571428571428571</ele><time>2026-04-19T09:17:29.454Z</time></trkpt><trkpt lat="43.9242828" lon="12.9067244"><ele>-2.142857142857143</ele><time>2026-04-19T09:17:31.457Z</time></trkpt><trkpt lat="43.924356" lon="12.9067496"><ele>-1.7142857142857142</ele><time>2026-04-19T09:17:33.453Z</time></trkpt><trkpt lat="43.9244203" lon="12.9067701"><ele>-1.2857142857142856</ele><time>2026-04-19T09:17:35.468Z</time></trkpt><trkpt lat="43.9244964" lon="12.9067919"><ele>-0.8571428571428571</ele><time>2026-04-19T09:17:38.455Z</time></trkpt><trkpt lat="43.9245239" lon="12.9067058"><ele>-0.42857142857142855</ele><time>2026-04-19T09:17:42.456Z</time></trkpt><trkpt lat="43.9244629" lon="12.9066783"><ele>0.0</ele><time>2026-04-19T09:17:45.463Z</time></trkpt><trkpt lat="43.9243889" lon="12.9066566"><ele>0.0</ele><time>2026-04-19T09:17:48.455Z</time></trkpt><trkpt lat="43.9243259" lon="12.9066438"><ele>0.0</ele><time>2026-04-19T09:17:50.477Z</time></trkpt><trkpt lat="43.9242512" lon="12.9066329"><ele>0.0</ele><time>2026-04-19T09:17:52.462Z</time></trkpt><trkpt lat="43.9241678" lon="12.9066142"><ele>0.0</ele><time>2026-04-19T09:17:54.454Z</time></trkpt><trkpt lat="43.9240682" lon="12.9066161"><ele>0.0</ele><time>2026-04-19T09:17:56.463Z</time></trkpt><trkpt lat="43.9239747" lon="12.906577"><ele>0.0</ele><time>2026-04-19T09:17:58.455Z</time></trkpt><trkpt lat="43.9238826" lon="12.906548"><ele>-0.6</ele><time>2026-04-19T09:18:00.466Z</time></trkpt><trkpt lat="43.9237904" lon="12.9065231"><ele>-1.2</ele><time>2026-04-19T09:18:02.462Z</time></trkpt><trkpt lat="43.9237063" lon="12.9065041"><ele>-1.7999999999999998</ele><time>2026-04-19T09:18:04.461Z</time></trkpt><trkpt lat="43.9236199" lon="12.9064973"><ele>-2.4</ele><time>2026-04-19T09:18:06.454Z</time></trkpt><trkpt lat="43.9235275" lon="12.9064773"><ele>-3.0</ele><time>2026-04-19T09:18:08.452Z</time></trkpt><trkpt lat="43.9234344" lon="12.9064529"><ele>-2.5</ele><time>2026-04-19T09:18:10.457Z</time></trkpt><trkpt lat="43.9233489" lon="12.906444"><ele>-2.0</ele><time>2026-04-19T09:18:12.461Z</time></trkpt><trkpt lat="43.9232722" lon="12.9064658"><ele>-1.5</ele><time>2026-04-19T09:18:14.461Z</time></trkpt><trkpt lat="43.9232143" lon="12.9065338"><ele>-1.0</ele><time>2026-04-19T09:18:16.455Z</time></trkpt><trkpt lat="43.9231657" lon="12.9066073"><ele>-0.5</ele><time>2026-04-19T09:18:18.46Z</time></trkpt><trkpt lat="43.9231142" lon="12.9066682"><ele>0.0</ele><time>2026-04-19T09:18:20.464Z</time></trkpt><trkpt lat="43.9230399" lon="12.9067329"><ele>0.0</ele><time>2026-04-19T09:18:23.461Z</time></trkpt><trkpt lat="43.9229761" lon="12.9067689"><ele>0.0</ele><time>2026-04-19T09:18:25.465Z</time></trkpt><trkpt lat="43.9229039" lon="12.906795"><ele>0.0</ele><time>2026-04-19T09:18:27.467Z</time></trkpt><trkpt lat="43.9228134" lon="12.9067877"><ele>0.0</ele><time>2026-04-19T09:18:29.468Z</time></trkpt><trkpt lat="43.9227193" lon="12.9067553"><ele>0.0</ele><time>2026-04-19T09:18:31.455Z</time></trkpt><trkpt lat="43.9226489" lon="12.9066895"><ele>0.0</ele><time>2026-04-19T09:18:33.463Z</time></trkpt><trkpt lat="43.922588" lon="12.9065987"><ele>0.0</ele><time>2026-04-19T09:18:35.453Z</time></trkpt><trkpt lat="43.9225389" lon="12.9064841"><ele>0.0</ele><time>2026-04-19T09:18:37.455Z</time></trkpt><trkpt lat="43.9224748" lon="12.9063743"><ele>0.0</ele><time>2026-04-19T09:18:39.454Z</time></trkpt><trkpt lat="43.9224135" lon="12.9062783"><ele>0.0</ele><time>2026-04-19T09:18:41.479Z</time></trkpt><trkpt lat="43.9223266" lon="12.9062357"><ele>0.0</ele><time>2026-04-19T09:18:43.457Z</time></trkpt><trkpt lat="43.9222232" lon="12.9062143"><ele>0.0</ele><time>2026-04-19T09:18:45.458Z</time></trkpt><trkpt lat="43.9221173" lon="12.9062544"><ele>0.0</ele><time>2026-04-19T09:18:47.457Z</time></trkpt><trkpt lat="43.9220316" lon="12.9063406"><ele>0.0</ele><time>2026-04-19T09:18:49.454Z</time></trkpt><trkpt lat="43.9219657" lon="12.9064433"><ele>0.0</ele><time>2026-04-19T09:18:51.459Z</time></trkpt><trkpt lat="43.9218998" lon="12.9065507"><ele>0.0</ele><time>2026-04-19T09:18:53.454Z</time></trkpt><trkpt lat="43.9218294" lon="12.9066621"><ele>0.0</ele><time>2026-04-19T09:18:55.455Z</time></trkpt><trkpt lat="43.9217584" lon="12.9067737"><ele>0.0</ele><time>2026-04-19T09:18:57.455Z</time></trkpt><trkpt lat="43.9216824" lon="12.9068916"><ele>0.0</ele><time>2026-04-19T09:18:59.454Z</time></trkpt><trkpt lat="43.9216009" lon="12.9069941"><ele>0.0</ele><time>2026-04-19T09:19:01.465Z</time></trkpt><trkpt lat="43.9215189" lon="12.9071057"><ele>0.0</ele><time>2026-04-19T09:19:03.459Z</time></trkpt><trkpt lat="43.9214371" lon="12.9072167"><ele>0.0</ele><time>2026-04-19T09:19:05.458Z</time></trkpt><trkpt lat="43.9213676" lon="12.9073173"><ele>0.0</ele><time>2026-04-19T09:19:07.457Z</time></trkpt><trkpt lat="43.9212894" lon="12.9074293"><ele>0.0</ele><time>2026-04-19T09:19:09.456Z</time></trkpt><trkpt lat="43.921211" lon="12.9075335"><ele>0.0</ele><time>2026-04-19T09:19:11.46Z</time></trkpt><trkpt lat="43.9211442" lon="12.9076295"><ele>0.0</ele><time>2026-04-19T09:19:13.453Z</time></trkpt><trkpt lat="43.9210464" lon="12.9076466"><ele>0.4</ele><time>2026-04-19T09:19:15.462Z</time></trkpt><trkpt lat="43.9209527" lon="12.907585"><ele>0.8</ele><time>2026-04-19T09:19:17.474Z</time></trkpt><trkpt lat="43.9208513" lon="12.9074951"><ele>1.2000000000000002</ele><time>2026-04-19T09:19:19.461Z</time></trkpt><trkpt lat="43.920796" lon="12.9074497"><ele>1.6</ele><time>2026-04-19T09:19:20.468Z</time></trkpt><trkpt lat="43.9206978" lon="12.9073588"><ele>2.0</ele><time>2026-04-19T09:19:22.452Z</time></trkpt><trkpt lat="43.920601" lon="12.9072752"><ele>2.0</ele><time>2026-04-19T09:19:24.461Z</time></trkpt><trkpt lat="43.9205036" lon="12.9071993"><ele>2.0</ele><time>2026-04-19T09:19:26.458Z</time></trkpt><trkpt lat="43.9204059" lon="12.9071529"><ele>2.0</ele><time>2026-04-19T09:19:28.466Z</time></trkpt><trkpt lat="43.920331" lon="12.9070995"><ele>2.0</ele><time>2026-04-19T09:19:30.457Z</time></trkpt><trkpt lat="43.9202193" lon="12.9070447"><ele>2.0</ele><time>2026-04-19T09:19:32.471Z</time></trkpt><trkpt lat="43.9201225" lon="12.9070088"><ele>1.6</ele><time>2026-04-19T09:19:34.458Z</time></trkpt><trkpt lat="43.9200485" lon="12.9069801"><ele>1.2000000000000002</ele><time>2026-04-19T09:19:36.456Z</time></trkpt><trkpt lat="43.9199608" lon="12.9069615"><ele>0.8</ele><time>2026-04-19T09:19:38.459Z</time></trkpt><trkpt lat="43.9198609" lon="12.9069346"><ele>0.4</ele><time>2026-04-19T09:19:40.457Z</time></trkpt><trkpt lat="43.9197481" lon="12.9068854"><ele>0.0</ele><time>2026-04-19T09:19:42.46Z</time></trkpt><trkpt lat="43.9196855" lon="12.9068662"><ele>0.0</ele><time>2026-04-19T09:19:43.463Z</time></trkpt><trkpt lat="43.9195775" lon="12.9068248"><ele>0.0</ele><time>2026-04-19T09:19:45.463Z</time></trkpt><trkpt lat="43.9194632" lon="12.9067989"><ele>0.0</ele><time>2026-04-19T09:19:47.459Z</time></trkpt><trkpt lat="43.9193407" lon="12.9067777"><ele>0.0</ele><time>2026-04-19T09:19:49.453Z</time></trkpt><trkpt lat="43.9192467" lon="12.9067649"><ele>0.0</ele><time>2026-04-19T09:19:51.454Z</time></trkpt><trkpt lat="43.9191806" lon="12.9067586"><ele>0.0</ele><time>2026-04-19T09:19:52.451Z</time></trkpt><trkpt lat="43.919076" lon="12.9067186"><ele>0.0</ele><time>2026-04-19T09:19:54.454Z</time></trkpt><trkpt lat="43.9189876" lon="12.9066996"><ele>0.0</ele><time>2026-04-19T09:19:57.459Z</time></trkpt><trkpt lat="43.918876" lon="12.9066576"><ele>0.0</ele><time>2026-04-19T09:19:59.46Z</time></trkpt><trkpt lat="43.9187256" lon="12.9066053"><ele>0.0</ele><time>2026-04-19T09:20:01.474Z</time></trkpt><trkpt lat="43.9186364" lon="12.9065527"><ele>0.0</ele><time>2026-04-19T09:20:03.454Z</time></trkpt><trkpt lat="43.9185431" lon="12.9065226"><ele>0.0</ele><time>2026-04-19T09:20:05.467Z</time></trkpt><trkpt lat="43.9184741" lon="12.9065173"><ele>0.0</ele><time>2026-04-19T09:20:07.465Z</time></trkpt><trkpt lat="43.9183614" lon="12.9064746"><ele>0.0</ele><time>2026-04-19T09:20:09.458Z</time></trkpt><trkpt lat="43.918246" lon="12.9064558"><ele>0.0</ele><time>2026-04-19T09:20:11.452Z</time></trkpt><trkpt lat="43.9181592" lon="12.9064431"><ele>0.0</ele><time>2026-04-19T09:20:13.457Z</time></trkpt><trkpt lat="43.9180598" lon="12.9064152"><ele>0.0</ele><time>2026-04-19T09:20:15.465Z</time></trkpt><trkpt lat="43.917951" lon="12.9063857"><ele>0.0</ele><time>2026-04-19T09:20:17.452Z</time></trkpt><trkpt lat="43.9178374" lon="12.9063429"><ele>0.0</ele><time>2026-04-19T09:20:19.464Z</time></trkpt><trkpt lat="43.9177264" lon="12.9063016"><ele>0.0</ele><time>2026-04-19T09:20:21.457Z</time></trkpt><trkpt lat="43.9176114" lon="12.9062789"><ele>0.0</ele><time>2026-04-19T09:20:23.457Z</time></trkpt><trkpt lat="43.9174996" lon="12.906236"><ele>0.0</ele><time>2026-04-19T09:20:25.461Z</time></trkpt><trkpt lat="43.9173919" lon="12.9062102"><ele>0.0</ele><time>2026-04-19T09:20:27.476Z</time></trkpt><trkpt lat="43.9173048" lon="12.9061775"><ele>0.0</ele><time>2026-04-19T09:20:29.473Z</time></trkpt><trkpt lat="43.9172053" lon="12.9061277"><ele>0.2</ele><time>2026-04-19T09:20:31.46Z</time></trkpt><trkpt lat="43.9171123" lon="12.9060434"><ele>0.4</ele><time>2026-04-19T09:20:33.473Z</time></trkpt><trkpt lat="43.9170391" lon="12.9059458"><ele>0.6000000000000001</ele><time>2026-04-19T09:20:35.456Z</time></trkpt><trkpt lat="43.9169558" lon="12.9058355"><ele>0.8</ele><time>2026-04-19T09:20:37.463Z</time></trkpt><trkpt lat="43.9169042" lon="12.9057748"><ele>1.0</ele><time>2026-04-19T09:20:38.457Z</time></trkpt><trkpt lat="43.9168253" lon="12.9056503"><ele>1.6</ele><time>2026-04-19T09:20:40.454Z</time></trkpt><trkpt lat="43.9167456" lon="12.905534"><ele>2.2</ele><time>2026-04-19T09:20:42.468Z</time></trkpt><trkpt lat="43.9166682" lon="12.9054314"><ele>2.8000000000000003</ele><time>2026-04-19T09:20:44.454Z</time></trkpt><trkpt lat="43.9165989" lon="12.9053228"><ele>3.4000000000000004</ele><time>2026-04-19T09:20:46.46Z</time></trkpt><trkpt lat="43.9165399" lon="12.9052194"><ele>4.0</ele><time>2026-04-19T09:20:48.468Z</time></trkpt><trkpt lat="43.9164872" lon="12.9051288"><ele>3.8571428571428568</ele><time>2026-04-19T09:20:50.475Z</time></trkpt><trkpt lat="43.916447" lon="12.9050411"><ele>3.714285714285714</ele><time>2026-04-19T09:20:53.46Z</time></trkpt><trkpt lat="43.9164278" lon="12.9049542"><ele>3.571428571428571</ele><time>2026-04-19T09:20:55.472Z</time></trkpt><trkpt lat="43.916403" lon="12.9048686"><ele>3.4285714285714284</ele><time>2026-04-19T09:20:58.459Z</time></trkpt><trkpt lat="43.9163632" lon="12.9047956"><ele>3.2857142857142856</ele><time>2026-04-19T09:21:00.46Z</time></trkpt><trkpt lat="43.9163164" lon="12.9047136"><ele>3.1428571428571423</ele><time>2026-04-19T09:21:02.453Z</time></trkpt><trkpt lat="43.9162756" lon="12.9046189"><ele>3.0</ele><time>2026-04-19T09:21:04.465Z</time></trkpt><trkpt lat="43.9162412" lon="12.9045095"><ele>3.0</ele><time>2026-04-19T09:21:06.468Z</time></trkpt><trkpt lat="43.9162292" lon="12.9043809"><ele>3.0</ele><time>2026-04-19T09:21:08.479Z</time></trkpt><trkpt lat="43.9162301" lon="12.9042665"><ele>3.0</ele><time>2026-04-19T09:21:10.465Z</time></trkpt><trkpt lat="43.9162235" lon="12.9041375"><ele>3.0</ele><time>2026-04-19T09:21:12.459Z</time></trkpt><trkpt lat="43.9162294" lon="12.9040196"><ele>3.0</ele><time>2026-04-19T09:21:14.474Z</time></trkpt><trkpt lat="43.9162235" lon="12.9038911"><ele>3.0</ele><time>2026-04-19T09:21:16.459Z</time></trkpt><trkpt lat="43.9162376" lon="12.9037418"><ele>2.4</ele><time>2026-04-19T09:21:18.461Z</time></trkpt><trkpt lat="43.9162477" lon="12.9035905"><ele>1.7999999999999998</ele><time>2026-04-19T09:21:20.463Z</time></trkpt><trkpt lat="43.9162491" lon="12.9034558"><ele>1.2</ele><time>2026-04-19T09:21:22.471Z</time></trkpt><trkpt lat="43.9162536" lon="12.9033246"><ele>0.6</ele><time>2026-04-19T09:21:24.468Z</time></trkpt><trkpt lat="43.9162608" lon="12.9032079"><ele>0.0</ele><time>2026-04-19T09:21:26.463Z</time></trkpt><trkpt lat="43.916263" lon="12.903096"><ele>0.0</ele><time>2026-04-19T09:21:28.477Z</time></trkpt><trkpt lat="43.9162735" lon="12.9029967"><ele>0.0</ele><time>2026-04-19T09:21:32.466Z</time></trkpt><trkpt lat="43.9162675" lon="12.9028986"><ele>0.0</ele><time>2026-04-19T09:21:36.455Z</time></trkpt><trkpt lat="43.9162525" lon="12.9027784"><ele>0.0</ele><time>2026-04-19T09:21:39.456Z</time></trkpt><trkpt lat="43.9161889" lon="12.9026887"><ele>0.0</ele><time>2026-04-19T09:21:42.456Z</time></trkpt><trkpt lat="43.9161152" lon="12.902673"><ele>0.0</ele><time>2026-04-19T09:21:44.475Z</time></trkpt><trkpt lat="43.9159965" lon="12.9026625"><ele>0.0</ele><time>2026-04-19T09:21:47.459Z</time></trkpt><trkpt lat="43.9159106" lon="12.902662"><ele>0.0</ele><time>2026-04-19T09:21:49.478Z</time></trkpt><trkpt lat="43.9158012" lon="12.9026659"><ele>0.0</ele><time>2026-04-19T09:21:51.478Z</time></trkpt><trkpt lat="43.9156958" lon="12.9026578"><ele>0.0</ele><time>2026-04-19T09:21:53.453Z</time></trkpt><trkpt lat="43.9155819" lon="12.9026436"><ele>0.0</ele><time>2026-04-19T09:21:55.475Z</time></trkpt><trkpt lat="43.9154957" lon="12.9026291"><ele>0.2</ele><time>2026-04-19T09:21:57.475Z</time></trkpt><trkpt lat="43.9154363" lon="12.9026628"><ele>0.4</ele><time>2026-04-19T09:25:25.457Z</time></trkpt><trkpt lat="43.9153298" lon="12.9026819"><ele>0.6000000000000001</ele><time>2026-04-19T09:25:27.458Z</time></trkpt><trkpt lat="43.9152521" lon="12.9026813"><ele>0.8</ele><time>2026-04-19T09:25:29.453Z</time></trkpt><trkpt lat="43.9151145" lon="12.9027021"><ele>1.0</ele><time>2026-04-19T09:25:31.453Z</time></trkpt><trkpt lat="43.9149865" lon="12.902608"><ele>1.0</ele><time>2026-04-19T09:25:33.449Z</time></trkpt><trkpt lat="43.9148752" lon="12.9025825"><ele>1.0</ele><time>2026-04-19T09:25:34.473Z</time></trkpt><trkpt lat="43.9147325" lon="12.9025898"><ele>1.0</ele><time>2026-04-19T09:25:36.45Z</time></trkpt><trkpt lat="43.9146421" lon="12.9026142"><ele>1.0</ele><time>2026-04-19T09:25:38.465Z</time></trkpt><trkpt lat="43.9145196" lon="12.9026274"><ele>1.0</ele><time>2026-04-19T09:25:40.458Z</time></trkpt><trkpt lat="43.914404" lon="12.9026358"><ele>1.0</ele><time>2026-04-19T09:25:42.475Z</time></trkpt><trkpt lat="43.9142866" lon="12.9026369"><ele>1.0</ele><time>2026-04-19T09:25:44.461Z</time></trkpt><trkpt lat="43.9141597" lon="12.902608"><ele>1.0</ele><time>2026-04-19T09:25:46.457Z</time></trkpt><trkpt lat="43.9140576" lon="12.9025661"><ele>1.5</ele><time>2026-04-19T09:25:48.475Z</time></trkpt><trkpt lat="43.9139736" lon="12.9025193"><ele>2.0</ele><time>2026-04-19T09:25:49.463Z</time></trkpt><trkpt lat="43.913904" lon="12.90251"><ele>2.5</ele><time>2026-04-19T09:25:50.451Z</time></trkpt><trkpt lat="43.9138384" lon="12.9025106"><ele>3.0</ele><time>2026-04-19T09:25:51.458Z</time></trkpt><trkpt lat="43.9137753" lon="12.9025096"><ele>3.4999999999999996</ele><time>2026-04-19T09:25:52.462Z</time></trkpt><trkpt lat="43.9137021" lon="12.9025163"><ele>4.0</ele><time>2026-04-19T09:25:53.479Z</time></trkpt><trkpt lat="43.9135989" lon="12.9025055"><ele>4.0</ele><time>2026-04-19T09:25:55.464Z</time></trkpt><trkpt lat="43.9134617" lon="12.9024826"><ele>4.0</ele><time>2026-04-19T09:25:57.464Z</time></trkpt><trkpt lat="43.9133382" lon="12.9024611"><ele>4.0</ele><time>2026-04-19T09:25:59.454Z</time></trkpt><trkpt lat="43.9132336" lon="12.9025033"><ele>4.0</ele><time>2026-04-19T09:26:01.459Z</time></trkpt><trkpt lat="43.9131209" lon="12.9025007"><ele>3.75</ele><time>2026-04-19T09:26:03.468Z</time></trkpt><trkpt lat="43.9130197" lon="12.9024698"><ele>3.5</ele><time>2026-04-19T09:26:05.453Z</time></trkpt><trkpt lat="43.912933" lon="12.9024271"><ele>3.25</ele><time>2026-04-19T09:26:06.452Z</time></trkpt><trkpt lat="43.9128089" lon="12.9023706"><ele>3.0</ele><time>2026-04-19T09:26:08.466Z</time></trkpt><trkpt lat="43.9126925" lon="12.9023098"><ele>3.0</ele><time>2026-04-19T09:26:10.453Z</time></trkpt><trkpt lat="43.912635" lon="12.9022727"><ele>3.0</ele><time>2026-04-19T09:26:11.452Z</time></trkpt><trkpt lat="43.9125665" lon="12.9022178"><ele>3.0</ele><time>2026-04-19T09:26:12.457Z</time></trkpt><trkpt lat="43.9124614" lon="12.9021435"><ele>3.0</ele><time>2026-04-19T09:26:14.456Z</time></trkpt><trkpt lat="43.9123553" lon="12.902084"><ele>3.0</ele><time>2026-04-19T09:26:16.463Z</time></trkpt><trkpt lat="43.9122533" lon="12.9020057"><ele>3.0</ele><time>2026-04-19T09:26:18.462Z</time></trkpt><trkpt lat="43.9121523" lon="12.9019377"><ele>3.0</ele><time>2026-04-19T09:26:20.471Z</time></trkpt><trkpt lat="43.9120404" lon="12.9018917"><ele>3.0</ele><time>2026-04-19T09:26:22.456Z</time></trkpt><trkpt lat="43.9119811" lon="12.9018369"><ele>3.0</ele><time>2026-04-19T09:26:23.467Z</time></trkpt><trkpt lat="43.9118932" lon="12.9017636"><ele>3.0</ele><time>2026-04-19T09:26:25.457Z</time></trkpt><trkpt lat="43.9118093" lon="12.9017098"><ele>3.1666666666666665</ele><time>2026-04-19T09:26:27.456Z</time></trkpt><trkpt lat="43.9117443" lon="12.9016415"><ele>3.333333333333333</ele><time>2026-04-19T09:26:29.465Z</time></trkpt><trkpt lat="43.9116823" lon="12.90155"><ele>3.5</ele><time>2026-04-19T09:26:31.459Z</time></trkpt><trkpt lat="43.9116271" lon="12.9014726"><ele>3.6666666666666665</ele><time>2026-04-19T09:26:33.453Z</time></trkpt><trkpt lat="43.9115618" lon="12.9013723"><ele>3.833333333333333</ele><time>2026-04-19T09:26:35.453Z</time></trkpt><trkpt lat="43.9114951" lon="12.9013128"><ele>4.0</ele><time>2026-04-19T09:26:37.457Z</time></trkpt><trkpt lat="43.9114257" lon="12.9012286"><ele>4.4</ele><time>2026-04-19T09:26:39.468Z</time></trkpt><trkpt lat="43.9113579" lon="12.9010861"><ele>4.800000000000001</ele><time>2026-04-19T09:26:41.47Z</time></trkpt><trkpt lat="43.9113075" lon="12.9009335"><ele>5.199999999999999</ele><time>2026-04-19T09:26:43.461Z</time></trkpt><trkpt lat="43.9112629" lon="12.9007793"><ele>5.6</ele><time>2026-04-19T09:26:45.459Z</time></trkpt><trkpt lat="43.911223" lon="12.9006899"><ele>6.0</ele><time>2026-04-19T09:26:46.478Z</time></trkpt><trkpt lat="43.9111887" lon="12.9006014"><ele>6.199999999999999</ele><time>2026-04-19T09:26:47.451Z</time></trkpt><trkpt lat="43.9111408" lon="12.9004435"><ele>6.3999999999999995</ele><time>2026-04-19T09:26:49.458Z</time></trkpt><trkpt lat="43.9111002" lon="12.9002832"><ele>6.6</ele><time>2026-04-19T09:26:51.462Z</time></trkpt><trkpt lat="43.9110606" lon="12.9001182"><ele>6.8</ele><time>2026-04-19T09:26:53.477Z</time></trkpt><trkpt lat="43.9110409" lon="12.9000293"><ele>7.0</ele><time>2026-04-19T09:26:54.464Z</time></trkpt><trkpt lat="43.9110191" lon="12.8999469"><ele>7.0</ele><time>2026-04-19T09:26:55.454Z</time></trkpt><trkpt lat="43.9109734" lon="12.8997885"><ele>7.0</ele><time>2026-04-19T09:26:57.464Z</time></trkpt><trkpt lat="43.9109335" lon="12.8996301"><ele>7.0</ele><time>2026-04-19T09:26:59.465Z</time></trkpt><trkpt lat="43.9109021" lon="12.8994804"><ele>7.0</ele><time>2026-04-19T09:27:01.448Z</time></trkpt><trkpt lat="43.91087" lon="12.899323"><ele>6.3999999999999995</ele><time>2026-04-19T09:27:03.454Z</time></trkpt><trkpt lat="43.9108449" lon="12.8991717"><ele>5.799999999999999</ele><time>2026-04-19T09:27:05.455Z</time></trkpt><trkpt lat="43.9108235" lon="12.8990261"><ele>5.2</ele><time>2026-04-19T09:27:07.457Z</time></trkpt><trkpt lat="43.9108099" lon="12.8989294"><ele>4.6</ele><time>2026-04-19T09:27:08.467Z</time></trkpt><trkpt lat="43.9107947" lon="12.8987617"><ele>4.0</ele><time>2026-04-19T09:27:10.471Z</time></trkpt><trkpt lat="43.9107814" lon="12.898599"><ele>4.0</ele><time>2026-04-19T09:27:12.453Z</time></trkpt><trkpt lat="43.9107785" lon="12.8985112"><ele>4.0</ele><time>2026-04-19T09:27:13.467Z</time></trkpt><trkpt lat="43.9107768" lon="12.8983603"><ele>4.0</ele><time>2026-04-19T09:27:15.454Z</time></trkpt><trkpt lat="43.9107706" lon="12.8981992"><ele>4.0</ele><time>2026-04-19T09:27:17.455Z</time></trkpt><trkpt lat="43.910764" lon="12.8980379"><ele>4.0</ele><time>2026-04-19T09:27:19.459Z</time></trkpt><trkpt lat="43.9107621" lon="12.8979017"><ele>4.2</ele><time>2026-04-19T09:27:21.462Z</time></trkpt><trkpt lat="43.9107575" lon="12.8977439"><ele>4.4</ele><time>2026-04-19T09:27:23.46Z</time></trkpt><trkpt lat="43.9107607" lon="12.8976106"><ele>4.6</ele><time>2026-04-19T09:27:25.457Z</time></trkpt><trkpt lat="43.9107554" lon="12.8974521"><ele>4.8</ele><time>2026-04-19T09:27:27.456Z</time></trkpt><trkpt lat="43.9107522" lon="12.8973595"><ele>5.0</ele><time>2026-04-19T09:27:28.458Z</time></trkpt><trkpt lat="43.9107449" lon="12.8972016"><ele>5.2</ele><time>2026-04-19T09:27:30.46Z</time></trkpt><trkpt lat="43.910741" lon="12.8970412"><ele>5.4</ele><time>2026-04-19T09:27:32.458Z</time></trkpt><trkpt lat="43.9107343" lon="12.8968612"><ele>5.6</ele><time>2026-04-19T09:27:34.456Z</time></trkpt><trkpt lat="43.9107302" lon="12.8967707"><ele>5.8</ele><time>2026-04-19T09:27:35.467Z</time></trkpt><trkpt lat="43.9107229" lon="12.8965884"><ele>6.0</ele><time>2026-04-19T09:27:37.461Z</time></trkpt><trkpt lat="43.910722" lon="12.8964192"><ele>6.0</ele><time>2026-04-19T09:27:39.457Z</time></trkpt><trkpt lat="43.9107243" lon="12.8962656"><ele>6.0</ele><time>2026-04-19T09:27:41.456Z</time></trkpt><trkpt lat="43.9107175" lon="12.8961649"><ele>6.0</ele><time>2026-04-19T09:27:43.457Z</time></trkpt><trkpt lat="43.910718" lon="12.8960093"><ele>6.0</ele><time>2026-04-19T09:27:45.458Z</time></trkpt><trkpt lat="43.9107173" lon="12.8958512"><ele>6.0</ele><time>2026-04-19T09:27:47.458Z</time></trkpt><trkpt lat="43.9107111" lon="12.8956996"><ele>6.0</ele><time>2026-04-19T09:27:49.458Z</time></trkpt><trkpt lat="43.9107093" lon="12.8955666"><ele>6.0</ele><time>2026-04-19T09:27:51.457Z</time></trkpt><trkpt lat="43.9107108" lon="12.8954201"><ele>6.0</ele><time>2026-04-19T09:27:53.459Z</time></trkpt><trkpt lat="43.9107013" lon="12.8952607"><ele>6.0</ele><time>2026-04-19T09:27:55.46Z</time></trkpt><trkpt lat="43.9106958" lon="12.8950955"><ele>6.0</ele><time>2026-04-19T09:27:57.458Z</time></trkpt><trkpt lat="43.910685" lon="12.8949382"><ele>6.25</ele><time>2026-04-19T09:27:59.453Z</time></trkpt><trkpt lat="43.9106754" lon="12.8947785"><ele>6.5</ele><time>2026-04-19T09:28:01.462Z</time></trkpt><trkpt lat="43.9106721" lon="12.8946155"><ele>6.75</ele><time>2026-04-19T09:28:03.461Z</time></trkpt><trkpt lat="43.9106772" lon="12.8944693"><ele>7.0</ele><time>2026-04-19T09:28:05.463Z</time></trkpt><trkpt lat="43.9106701" lon="12.8943051"><ele>7.3999999999999995</ele><time>2026-04-19T09:28:07.471Z</time></trkpt><trkpt lat="43.9106607" lon="12.894137"><ele>7.799999999999999</ele><time>2026-04-19T09:28:09.47Z</time></trkpt><trkpt lat="43.9106612" lon="12.89398"><ele>8.2</ele><time>2026-04-19T09:28:11.467Z</time></trkpt><trkpt lat="43.9106594" lon="12.8938368"><ele>8.6</ele><time>2026-04-19T09:28:13.455Z</time></trkpt><trkpt lat="43.9106585" lon="12.8936928"><ele>9.0</ele><time>2026-04-19T09:28:15.452Z</time></trkpt><trkpt lat="43.9106529" lon="12.8935419"><ele>9.0</ele><time>2026-04-19T09:28:17.47Z</time></trkpt><trkpt lat="43.910663" lon="12.893392"><ele>9.0</ele><time>2026-04-19T09:28:19.454Z</time></trkpt><trkpt lat="43.9106533" lon="12.893269"><ele>9.0</ele><time>2026-04-19T09:28:21.451Z</time></trkpt><trkpt lat="43.910648" lon="12.893117"><ele>9.0</ele><time>2026-04-19T09:28:23.461Z</time></trkpt><trkpt lat="43.9106388" lon="12.8929908"><ele>9.0</ele><time>2026-04-19T09:28:25.478Z</time></trkpt><trkpt lat="43.910632" lon="12.8928945"><ele>9.0</ele><time>2026-04-19T09:28:26.467Z</time></trkpt><trkpt lat="43.9106349" lon="12.8927376"><ele>9.0</ele><time>2026-04-19T09:28:28.464Z</time></trkpt><trkpt lat="43.9106247" lon="12.8925923"><ele>9.0</ele><time>2026-04-19T09:28:30.473Z</time></trkpt><trkpt lat="43.9106271" lon="12.8924597"><ele>9.0</ele><time>2026-04-19T09:28:32.459Z</time></trkpt><trkpt lat="43.9106204" lon="12.8923591"><ele>9.0</ele><time>2026-04-19T09:28:33.456Z</time></trkpt><trkpt lat="43.9106223" lon="12.8922667"><ele>9.0</ele><time>2026-04-19T09:28:34.462Z</time></trkpt><trkpt lat="43.9106162" lon="12.8921477"><ele>9.0</ele><time>2026-04-19T09:28:35.464Z</time></trkpt><trkpt lat="43.9106211" lon="12.891984"><ele>9.0</ele><time>2026-04-19T09:28:37.46Z</time></trkpt><trkpt lat="43.9106081" lon="12.8918533"><ele>9.0</ele><time>2026-04-19T09:28:39.471Z</time></trkpt><trkpt lat="43.9106042" lon="12.8917004"><ele>9.0</ele><time>2026-04-19T09:28:41.454Z</time></trkpt><trkpt lat="43.9105975" lon="12.8915512"><ele>9.6</ele><time>2026-04-19T09:28:43.476Z</time></trkpt><trkpt lat="43.9105954" lon="12.8914165"><ele>10.2</ele><time>2026-04-19T09:28:45.464Z</time></trkpt><trkpt lat="43.9105911" lon="12.8912781"><ele>10.799999999999999</ele><time>2026-04-19T09:28:47.455Z</time></trkpt><trkpt lat="43.9105894" lon="12.8911346"><ele>11.4</ele><time>2026-04-19T09:28:49.452Z</time></trkpt><trkpt lat="43.9105826" lon="12.8910076"><ele>12.0</ele><time>2026-04-19T09:28:51.479Z</time></trkpt><trkpt lat="43.9105756" lon="12.8908629"><ele>12.5</ele><time>2026-04-19T09:28:53.455Z</time></trkpt><trkpt lat="43.9105756" lon="12.8907103"><ele>13.0</ele><time>2026-04-19T09:28:55.467Z</time></trkpt><trkpt lat="43.910579" lon="12.8905387"><ele>13.5</ele><time>2026-04-19T09:28:57.468Z</time></trkpt><trkpt lat="43.9105775" lon="12.8903673"><ele>14.0</ele><time>2026-04-19T09:28:59.448Z</time></trkpt><trkpt lat="43.9105771" lon="12.8902075"><ele>13.799999999999999</ele><time>2026-04-19T09:29:01.454Z</time></trkpt><trkpt lat="43.9105649" lon="12.8900758"><ele>13.599999999999998</ele><time>2026-04-19T09:29:03.458Z</time></trkpt><trkpt lat="43.9105615" lon="12.889976"><ele>13.4</ele><time>2026-04-19T09:29:04.456Z</time></trkpt><trkpt lat="43.9105628" lon="12.8898242"><ele>13.2</ele><time>2026-04-19T09:29:06.46Z</time></trkpt><trkpt lat="43.9105619" lon="12.8896622"><ele>13.0</ele><time>2026-04-19T09:29:08.456Z</time></trkpt><trkpt lat="43.910568" lon="12.8895097"><ele>13.0</ele><time>2026-04-19T09:29:10.473Z</time></trkpt><trkpt lat="43.9105729" lon="12.8893687"><ele>13.0</ele><time>2026-04-19T09:29:12.474Z</time></trkpt><trkpt lat="43.9105666" lon="12.8892139"><ele>13.0</ele><time>2026-04-19T09:29:14.464Z</time></trkpt><trkpt lat="43.9105622" lon="12.8890566"><ele>13.0</ele><time>2026-04-19T09:29:16.473Z</time></trkpt><trkpt lat="43.9105659" lon="12.8889062"><ele>13.0</ele><time>2026-04-19T09:29:18.454Z</time></trkpt><trkpt lat="43.9105576" lon="12.8887597"><ele>13.2</ele><time>2026-04-19T09:29:20.452Z</time></trkpt><trkpt lat="43.9105443" lon="12.8886005"><ele>13.4</ele><time>2026-04-19T09:29:22.456Z</time></trkpt><trkpt lat="43.9105335" lon="12.8884589"><ele>13.599999999999998</ele><time>2026-04-19T09:29:24.47Z</time></trkpt><trkpt lat="43.9105276" lon="12.8883031"><ele>13.799999999999999</ele><time>2026-04-19T09:29:26.472Z</time></trkpt><trkpt lat="43.9105204" lon="12.888145"><ele>14.0</ele><time>2026-04-19T09:29:28.456Z</time></trkpt><trkpt lat="43.9105045" lon="12.887996"><ele>14.333333333333334</ele><time>2026-04-19T09:29:30.467Z</time></trkpt><trkpt lat="43.9104951" lon="12.8879071"><ele>14.666666666666668</ele><time>2026-04-19T09:29:31.463Z</time></trkpt><trkpt lat="43.9104817" lon="12.8877417"><ele>15.0</ele><time>2026-04-19T09:29:33.457Z</time></trkpt><trkpt lat="43.9104659" lon="12.88757"><ele>15.333333333333332</ele><time>2026-04-19T09:29:35.461Z</time></trkpt><trkpt lat="43.9104606" lon="12.8874767"><ele>15.666666666666666</ele><time>2026-04-19T09:29:36.467Z</time></trkpt><trkpt lat="43.9104569" lon="12.8873838"><ele>16.0</ele><time>2026-04-19T09:29:37.468Z</time></trkpt><trkpt lat="43.9104531" lon="12.8872819"><ele>16.0</ele><time>2026-04-19T09:29:38.471Z</time></trkpt><trkpt lat="43.910454" lon="12.8871825"><ele>15.999999999999998</ele><time>2026-04-19T09:29:39.469Z</time></trkpt><trkpt lat="43.9104547" lon="12.8870922"><ele>16.0</ele><time>2026-04-19T09:29:40.46Z</time></trkpt><trkpt lat="43.910455" lon="12.8869994"><ele>16.0</ele><time>2026-04-19T09:29:41.46Z</time></trkpt><trkpt lat="43.9104591" lon="12.8869"><ele>15.999999999999998</ele><time>2026-04-19T09:29:42.457Z</time></trkpt><trkpt lat="43.9104619" lon="12.8867976"><ele>16.0</ele><time>2026-04-19T09:29:43.454Z</time></trkpt><trkpt lat="43.9104707" lon="12.8867074"><ele>16.0</ele><time>2026-04-19T09:29:44.462Z</time></trkpt><trkpt lat="43.9104676" lon="12.8866192"><ele>15.8</ele><time>2026-04-19T09:29:45.466Z</time></trkpt><trkpt lat="43.9104747" lon="12.8864327"><ele>15.600000000000001</ele><time>2026-04-19T09:29:47.476Z</time></trkpt><trkpt lat="43.9104805" lon="12.886327"><ele>15.4</ele><time>2026-04-19T09:29:48.468Z</time></trkpt><trkpt lat="43.9104902" lon="12.8862348"><ele>15.2</ele><time>2026-04-19T09:29:49.458Z</time></trkpt><trkpt lat="43.9105155" lon="12.886062"><ele>15.0</ele><time>2026-04-19T09:29:51.474Z</time></trkpt><trkpt lat="43.9105186" lon="12.8859714"><ele>14.833333333333334</ele><time>2026-04-19T09:29:52.455Z</time></trkpt><trkpt lat="43.9105207" lon="12.8858825"><ele>14.666666666666668</ele><time>2026-04-19T09:29:53.454Z</time></trkpt><trkpt lat="43.9105369" lon="12.8857226"><ele>14.5</ele><time>2026-04-19T09:29:55.456Z</time></trkpt><trkpt lat="43.9105686" lon="12.8855669"><ele>14.333333333333334</ele><time>2026-04-19T09:29:57.475Z</time></trkpt><trkpt lat="43.9105758" lon="12.8854661"><ele>14.166666666666668</ele><time>2026-04-19T09:29:58.453Z</time></trkpt><trkpt lat="43.9105858" lon="12.8853751"><ele>14.0</ele><time>2026-04-19T09:29:59.456Z</time></trkpt><trkpt lat="43.9105995" lon="12.8852199"><ele>13.166666666666668</ele><time>2026-04-19T09:30:01.45Z</time></trkpt><trkpt lat="43.9106241" lon="12.8850571"><ele>12.333333333333334</ele><time>2026-04-19T09:30:03.448Z</time></trkpt><trkpt lat="43.9106379" lon="12.8849708"><ele>11.5</ele><time>2026-04-19T09:30:04.474Z</time></trkpt><trkpt lat="43.9106488" lon="12.8848795"><ele>10.666666666666668</ele><time>2026-04-19T09:30:05.461Z</time></trkpt><trkpt lat="43.9106585" lon="12.8847909"><ele>9.833333333333334</ele><time>2026-04-19T09:30:06.465Z</time></trkpt><trkpt lat="43.9106785" lon="12.8847059"><ele>9.0</ele><time>2026-04-19T09:30:07.467Z</time></trkpt><trkpt lat="43.91069" lon="12.884608"><ele>9.0</ele><time>2026-04-19T09:30:08.475Z</time></trkpt><trkpt lat="43.9107107" lon="12.8844353"><ele>9.0</ele><time>2026-04-19T09:30:10.456Z</time></trkpt><trkpt lat="43.9107195" lon="12.8843459"><ele>9.0</ele><time>2026-04-19T09:30:11.46Z</time></trkpt><trkpt lat="43.910751" lon="12.8841089"><ele>9.0</ele><time>2026-04-19T09:30:13.464Z</time></trkpt><trkpt lat="43.9107684" lon="12.8839873"><ele>9.2</ele><time>2026-04-19T09:30:15.476Z</time></trkpt><trkpt lat="43.9107889" lon="12.8838443"><ele>9.4</ele><time>2026-04-19T09:30:17.468Z</time></trkpt><trkpt lat="43.9108142" lon="12.883697"><ele>9.6</ele><time>2026-04-19T09:30:19.478Z</time></trkpt><trkpt lat="43.9108396" lon="12.883531"><ele>9.8</ele><time>2026-04-19T09:30:21.459Z</time></trkpt><trkpt lat="43.910855" lon="12.8834389"><ele>10.0</ele><time>2026-04-19T09:30:22.457Z</time></trkpt><trkpt lat="43.9108663" lon="12.8833521"><ele>9.6</ele><time>2026-04-19T09:30:23.464Z</time></trkpt><trkpt lat="43.9108838" lon="12.8831844"><ele>9.2</ele><time>2026-04-19T09:30:25.461Z</time></trkpt><trkpt lat="43.9108935" lon="12.8830967"><ele>8.8</ele><time>2026-04-19T09:30:26.455Z</time></trkpt><trkpt lat="43.9109077" lon="12.8830036"><ele>8.4</ele><time>2026-04-19T09:30:27.464Z</time></trkpt><trkpt lat="43.9109238" lon="12.882842"><ele>8.0</ele><time>2026-04-19T09:30:29.46Z</time></trkpt><trkpt lat="43.9109369" lon="12.8826752"><ele>11.2</ele><time>2026-04-19T09:30:31.464Z</time></trkpt><trkpt lat="43.9109455" lon="12.8825092"><ele>14.4</ele><time>2026-04-19T09:30:33.476Z</time></trkpt><trkpt lat="43.9109486" lon="12.8824142"><ele>17.599999999999998</ele><time>2026-04-19T09:30:34.468Z</time></trkpt><trkpt lat="43.9109458" lon="12.882258"><ele>20.8</ele><time>2026-04-19T09:30:36.465Z</time></trkpt><trkpt lat="43.9109477" lon="12.8821706"><ele>24.0</ele><time>2026-04-19T09:30:37.454Z</time></trkpt><trkpt lat="43.9109412" lon="12.8820376"><ele>24.0</ele><time>2026-04-19T09:30:39.466Z</time></trkpt><trkpt lat="43.9109377" lon="12.8818746"><ele>24.0</ele><time>2026-04-19T09:30:41.476Z</time></trkpt><trkpt lat="43.9109335" lon="12.8817384"><ele>24.0</ele><time>2026-04-19T09:30:43.486Z</time></trkpt><trkpt lat="43.9109153" lon="12.8815825"><ele>24.0</ele><time>2026-04-19T09:30:45.452Z</time></trkpt><trkpt lat="43.9108968" lon="12.8814508"><ele>24.0</ele><time>2026-04-19T09:30:47.468Z</time></trkpt><trkpt lat="43.9108819" lon="12.8812914"><ele>21.25</ele><time>2026-04-19T09:30:49.462Z</time></trkpt><trkpt lat="43.9108691" lon="12.8811299"><ele>18.5</ele><time>2026-04-19T09:30:51.476Z</time></trkpt><trkpt lat="43.9108557" lon="12.8809596"><ele>15.75</ele><time>2026-04-19T09:30:53.468Z</time></trkpt><trkpt lat="43.9108388" lon="12.8807851"><ele>13.0</ele><time>2026-04-19T09:30:55.454Z</time></trkpt><trkpt lat="43.9108235" lon="12.8806632"><ele>13.0</ele><time>2026-04-19T09:30:57.46Z</time></trkpt><trkpt lat="43.9108135" lon="12.8805755"><ele>13.0</ele><time>2026-04-19T09:30:58.462Z</time></trkpt><trkpt lat="43.9108025" lon="12.8804878"><ele>13.0</ele><time>2026-04-19T09:30:59.474Z</time></trkpt><trkpt lat="43.9107815" lon="12.8803219"><ele>13.0</ele><time>2026-04-19T09:31:01.478Z</time></trkpt><trkpt lat="43.9107548" lon="12.8801692"><ele>13.0</ele><time>2026-04-19T09:31:03.478Z</time></trkpt><trkpt lat="43.9107396" lon="12.8799827"><ele>14.0</ele><time>2026-04-19T09:31:05.464Z</time></trkpt><trkpt lat="43.9107257" lon="12.8798237"><ele>15.0</ele><time>2026-04-19T09:31:07.471Z</time></trkpt><trkpt lat="43.9107145" lon="12.8796562"><ele>16.0</ele><time>2026-04-19T09:31:09.46Z</time></trkpt><trkpt lat="43.9107144" lon="12.8795636"><ele>17.0</ele><time>2026-04-19T09:31:10.466Z</time></trkpt><trkpt lat="43.9107133" lon="12.8794042"><ele>18.0</ele><time>2026-04-19T09:31:12.458Z</time></trkpt><trkpt lat="43.9107042" lon="12.8792188"><ele>18.2</ele><time>2026-04-19T09:31:14.468Z</time></trkpt><trkpt lat="43.9107081" lon="12.8790638"><ele>18.4</ele><time>2026-04-19T09:31:16.475Z</time></trkpt><trkpt lat="43.9107077" lon="12.8789355"><ele>18.599999999999998</ele><time>2026-04-19T09:31:18.471Z</time></trkpt><trkpt lat="43.9107033" lon="12.8787805"><ele>18.8</ele><time>2026-04-19T09:31:20.477Z</time></trkpt><trkpt lat="43.9106942" lon="12.8786227"><ele>19.0</ele><time>2026-04-19T09:31:22.468Z</time></trkpt><trkpt lat="43.9106822" lon="12.8784337"><ele>19.0</ele><time>2026-04-19T09:31:24.467Z</time></trkpt><trkpt lat="43.910656" lon="12.8782522"><ele>19.0</ele><time>2026-04-19T09:31:26.469Z</time></trkpt><trkpt lat="43.9106968" lon="12.8781572"><ele>19.0</ele><time>2026-04-19T09:31:29.463Z</time></trkpt><trkpt lat="43.9106758" lon="12.8780223"><ele>19.0</ele><time>2026-04-19T09:31:30.475Z</time></trkpt><trkpt lat="43.9106761" lon="12.8778562"><ele>19.0</ele><time>2026-04-19T09:31:32.47Z</time></trkpt><trkpt lat="43.9106749" lon="12.8777431"><ele>19.0</ele><time>2026-04-19T09:31:34.464Z</time></trkpt><trkpt lat="43.9106815" lon="12.8776476"><ele>19.0</ele><time>2026-04-19T09:31:37.452Z</time></trkpt><trkpt lat="43.910676" lon="12.8775496"><ele>19.0</ele><time>2026-04-19T09:31:42.464Z</time></trkpt><trkpt lat="43.91067" lon="12.8774048"><ele>19.0</ele><time>2026-04-19T09:32:01.462Z</time></trkpt><trkpt lat="43.9106556" lon="12.8772813"><ele>19.0</ele><time>2026-04-19T09:32:03.45Z</time></trkpt><trkpt lat="43.9106415" lon="12.8771056"><ele>18.8</ele><time>2026-04-19T09:32:05.457Z</time></trkpt><trkpt lat="43.9106309" lon="12.8769703"><ele>18.599999999999998</ele><time>2026-04-19T09:32:07.461Z</time></trkpt><trkpt lat="43.9106424" lon="12.876855"><ele>18.4</ele><time>2026-04-19T09:32:08.458Z</time></trkpt><trkpt lat="43.9106453" lon="12.8766956"><ele>18.2</ele><time>2026-04-19T09:32:10.451Z</time></trkpt><trkpt lat="43.9106422" lon="12.8765417"><ele>18.0</ele><time>2026-04-19T09:32:12.457Z</time></trkpt><trkpt lat="43.9106292" lon="12.8764535"><ele>17.6</ele><time>2026-04-19T09:32:13.477Z</time></trkpt><trkpt lat="43.9106176" lon="12.8763065"><ele>17.200000000000003</ele><time>2026-04-19T09:32:15.449Z</time></trkpt><trkpt lat="43.9106021" lon="12.8761401"><ele>16.8</ele><time>2026-04-19T09:32:17.456Z</time></trkpt><trkpt lat="43.9105869" lon="12.8760252"><ele>16.400000000000002</ele><time>2026-04-19T09:32:18.456Z</time></trkpt><trkpt lat="43.9105921" lon="12.8758544"><ele>16.0</ele><time>2026-04-19T09:32:20.454Z</time></trkpt><trkpt lat="43.9106346" lon="12.8757142"><ele>15.75</ele><time>2026-04-19T09:32:22.469Z</time></trkpt><trkpt lat="43.9106865" lon="12.8755579"><ele>15.5</ele><time>2026-04-19T09:32:24.456Z</time></trkpt><trkpt lat="43.9107285" lon="12.8754079"><ele>15.25</ele><time>2026-04-19T09:32:26.484Z</time></trkpt><trkpt lat="43.9107568" lon="12.8752814"><ele>15.0</ele><time>2026-04-19T09:32:28.476Z</time></trkpt><trkpt lat="43.9108029" lon="12.8751295"><ele>14.8</ele><time>2026-04-19T09:32:30.481Z</time></trkpt><trkpt lat="43.9108198" lon="12.875029"><ele>14.6</ele><time>2026-04-19T09:32:31.457Z</time></trkpt><trkpt lat="43.9108708" lon="12.8748782"><ele>14.399999999999999</ele><time>2026-04-19T09:32:33.473Z</time></trkpt><trkpt lat="43.9109135" lon="12.8747285"><ele>14.2</ele><time>2026-04-19T09:32:35.455Z</time></trkpt><trkpt lat="43.9109502" lon="12.8745655"><ele>14.0</ele><time>2026-04-19T09:32:37.459Z</time></trkpt><trkpt lat="43.9109905" lon="12.8744198"><ele>16.25</ele><time>2026-04-19T09:32:39.471Z</time></trkpt><trkpt lat="43.9110279" lon="12.8742542"><ele>18.5</ele><time>2026-04-19T09:32:41.48Z</time></trkpt><trkpt lat="43.911073" lon="12.8741002"><ele>20.75</ele><time>2026-04-19T09:32:43.463Z</time></trkpt><trkpt lat="43.9111281" lon="12.8739537"><ele>23.0</ele><time>2026-04-19T09:32:45.448Z</time></trkpt><trkpt lat="43.9111988" lon="12.8738142"><ele>23.0</ele><time>2026-04-19T09:32:47.455Z</time></trkpt><trkpt lat="43.9112503" lon="12.873759"><ele>23.0</ele><time>2026-04-19T09:32:48.465Z</time></trkpt><trkpt lat="43.9113237" lon="12.8736448"><ele>23.0</ele><time>2026-04-19T09:32:50.459Z</time></trkpt><trkpt lat="43.9113601" lon="12.8735727"><ele>23.0</ele><time>2026-04-19T09:32:51.455Z</time></trkpt><trkpt lat="43.9113963" lon="12.873452"><ele>23.0</ele><time>2026-04-19T09:32:53.478Z</time></trkpt><trkpt lat="43.9114411" lon="12.8733719"><ele>23.0</ele><time>2026-04-19T09:32:54.47Z</time></trkpt><trkpt lat="43.9115096" lon="12.8732335"><ele>22.4</ele><time>2026-04-19T09:32:56.456Z</time></trkpt><trkpt lat="43.9115684" lon="12.8731082"><ele>21.799999999999997</ele><time>2026-04-19T09:32:58.473Z</time></trkpt><trkpt lat="43.9116406" lon="12.8729743"><ele>21.2</ele><time>2026-04-19T09:33:00.473Z</time></trkpt><trkpt lat="43.9117006" lon="12.8728505"><ele>20.6</ele><time>2026-04-19T09:33:02.474Z</time></trkpt><trkpt lat="43.9117548" lon="12.8727198"><ele>20.0</ele><time>2026-04-19T09:33:04.477Z</time></trkpt><trkpt lat="43.9118192" lon="12.8726098"><ele>21.6</ele><time>2026-04-19T09:33:06.456Z</time></trkpt><trkpt lat="43.9118744" lon="12.8724985"><ele>23.2</ele><time>2026-04-19T09:33:08.465Z</time></trkpt><trkpt lat="43.9119339" lon="12.8723709"><ele>24.799999999999997</ele><time>2026-04-19T09:33:10.463Z</time></trkpt><trkpt lat="43.9119949" lon="12.8722575"><ele>26.4</ele><time>2026-04-19T09:33:12.464Z</time></trkpt><trkpt lat="43.9120458" lon="12.8721501"><ele>28.0</ele><time>2026-04-19T09:33:14.471Z</time></trkpt><trkpt lat="43.9121252" lon="12.8720226"><ele>28.0</ele><time>2026-04-19T09:33:16.459Z</time></trkpt><trkpt lat="43.9121833" lon="12.8719009"><ele>28.0</ele><time>2026-04-19T09:33:18.475Z</time></trkpt><trkpt lat="43.9122504" lon="12.8717433"><ele>28.0</ele><time>2026-04-19T09:33:20.458Z</time></trkpt><trkpt lat="43.9123046" lon="12.8716125"><ele>28.0</ele><time>2026-04-19T09:33:22.46Z</time></trkpt><trkpt lat="43.912366" lon="12.8714907"><ele>27.599999999999998</ele><time>2026-04-19T09:33:24.466Z</time></trkpt><trkpt lat="43.9124304" lon="12.8713541"><ele>27.199999999999996</ele><time>2026-04-19T09:33:26.477Z</time></trkpt><trkpt lat="43.9124901" lon="12.8712386"><ele>26.8</ele><time>2026-04-19T09:33:28.458Z</time></trkpt><trkpt lat="43.9125453" lon="12.8711075"><ele>26.4</ele><time>2026-04-19T09:33:30.459Z</time></trkpt><trkpt lat="43.9126091" lon="12.8709813"><ele>26.0</ele><time>2026-04-19T09:33:32.467Z</time></trkpt><trkpt lat="43.9126719" lon="12.8709045"><ele>28.6</ele><time>2026-04-19T09:33:34.467Z</time></trkpt><trkpt lat="43.9127333" lon="12.8707719"><ele>31.200000000000003</ele><time>2026-04-19T09:33:36.449Z</time></trkpt><trkpt lat="43.9127973" lon="12.8706544"><ele>33.8</ele><time>2026-04-19T09:33:38.458Z</time></trkpt><trkpt lat="43.912861" lon="12.8705179"><ele>36.4</ele><time>2026-04-19T09:33:40.454Z</time></trkpt><trkpt lat="43.9129144" lon="12.870399"><ele>39.0</ele><time>2026-04-19T09:33:42.449Z</time></trkpt><trkpt lat="43.9129702" lon="12.8702616"><ele>37.8</ele><time>2026-04-19T09:33:44.457Z</time></trkpt><trkpt lat="43.9130169" lon="12.8701082"><ele>36.599999999999994</ele><time>2026-04-19T09:33:46.468Z</time></trkpt><trkpt lat="43.9130447" lon="12.8699777"><ele>35.4</ele><time>2026-04-19T09:33:48.471Z</time></trkpt><trkpt lat="43.9130976" lon="12.8699131"><ele>34.199999999999996</ele><time>2026-04-19T09:33:49.459Z</time></trkpt><trkpt lat="43.9131557" lon="12.8697905"><ele>33.0</ele><time>2026-04-19T09:33:51.458Z</time></trkpt><trkpt lat="43.9131909" lon="12.8697127"><ele>33.0</ele><time>2026-04-19T09:33:53.46Z</time></trkpt><trkpt lat="43.9132492" lon="12.869574"><ele>33.0</ele><time>2026-04-19T09:33:55.457Z</time></trkpt><trkpt lat="43.9132969" lon="12.8694604"><ele>33.0</ele><time>2026-04-19T09:33:57.473Z</time></trkpt><trkpt lat="43.9132995" lon="12.8693134"><ele>33.0</ele><time>2026-04-19T09:33:59.479Z</time></trkpt><trkpt lat="43.9132317" lon="12.8692676"><ele>33.0</ele><time>2026-04-19T09:34:01.453Z</time></trkpt><trkpt lat="43.9131572" lon="12.8691948"><ele>32.166666666666664</ele><time>2026-04-19T09:34:03.46Z</time></trkpt><trkpt lat="43.9130661" lon="12.8690849"><ele>31.333333333333336</ele><time>2026-04-19T09:34:05.454Z</time></trkpt><trkpt lat="43.9130095" lon="12.8690155"><ele>30.5</ele><time>2026-04-19T09:34:06.458Z</time></trkpt><trkpt lat="43.912956" lon="12.8689408"><ele>29.666666666666668</ele><time>2026-04-19T09:34:07.453Z</time></trkpt><trkpt lat="43.912908" lon="12.868875"><ele>28.833333333333336</ele><time>2026-04-19T09:34:08.461Z</time></trkpt><trkpt lat="43.9128556" lon="12.8687969"><ele>28.0</ele><time>2026-04-19T09:34:09.453Z</time></trkpt><trkpt lat="43.9128066" lon="12.868731"><ele>28.0</ele><time>2026-04-19T09:34:10.45Z</time></trkpt><trkpt lat="43.9127581" lon="12.8686595"><ele>27.999999999999996</ele><time>2026-04-19T09:34:11.45Z</time></trkpt><trkpt lat="43.9126732" lon="12.8685427"><ele>27.999999999999996</ele><time>2026-04-19T09:34:13.461Z</time></trkpt><trkpt lat="43.9126035" lon="12.8684515"><ele>28.0</ele><time>2026-04-19T09:34:15.465Z</time></trkpt><trkpt lat="43.9125455" lon="12.8684"><ele>28.0</ele><time>2026-04-19T09:34:16.452Z</time></trkpt><trkpt lat="43.9124815" lon="12.8682591"><ele>26.4</ele><time>2026-04-19T09:34:18.452Z</time></trkpt><trkpt lat="43.9124181" lon="12.8681726"><ele>24.799999999999997</ele><time>2026-04-19T09:34:20.458Z</time></trkpt><trkpt lat="43.9123593" lon="12.8680847"><ele>23.2</ele><time>2026-04-19T09:34:22.458Z</time></trkpt><trkpt lat="43.9122991" lon="12.8680118"><ele>21.6</ele><time>2026-04-19T09:34:24.478Z</time></trkpt><trkpt lat="43.9122216" lon="12.8679368"><ele>20.0</ele><time>2026-04-19T09:34:26.459Z</time></trkpt><trkpt lat="43.9121474" lon="12.8678253"><ele>20.0</ele><time>2026-04-19T09:34:28.465Z</time></trkpt><trkpt lat="43.9120672" lon="12.8677177"><ele>20.0</ele><time>2026-04-19T09:34:30.478Z</time></trkpt><trkpt lat="43.9119987" lon="12.8676148"><ele>20.0</ele><time>2026-04-19T09:34:32.459Z</time></trkpt><trkpt lat="43.9119303" lon="12.8674962"><ele>20.0</ele><time>2026-04-19T09:34:34.463Z</time></trkpt><trkpt lat="43.9118437" lon="12.8673889"><ele>20.0</ele><time>2026-04-19T09:34:36.473Z</time></trkpt><trkpt lat="43.9117606" lon="12.8672809"><ele>19.8</ele><time>2026-04-19T09:34:38.46Z</time></trkpt><trkpt lat="43.9116799" lon="12.8672047"><ele>19.6</ele><time>2026-04-19T09:34:40.476Z</time></trkpt><trkpt lat="43.9116103" lon="12.8671419"><ele>19.4</ele><time>2026-04-19T09:34:42.469Z</time></trkpt><trkpt lat="43.9115212" lon="12.8671712"><ele>19.2</ele><time>2026-04-19T09:34:43.471Z</time></trkpt><trkpt lat="43.9114432" lon="12.8671976"><ele>19.0</ele><time>2026-04-19T09:34:44.467Z</time></trkpt><trkpt lat="43.9113718" lon="12.8673016"><ele>19.0</ele><time>2026-04-19T09:34:46.453Z</time></trkpt><trkpt lat="43.9113062" lon="12.8674512"><ele>19.0</ele><time>2026-04-19T09:34:48.465Z</time></trkpt><trkpt lat="43.9112703" lon="12.867532"><ele>19.0</ele><time>2026-04-19T09:34:49.449Z</time></trkpt><trkpt lat="43.9112043" lon="12.8676513"><ele>19.0</ele><time>2026-04-19T09:34:51.457Z</time></trkpt><trkpt lat="43.9111295" lon="12.8677696"><ele>19.0</ele><time>2026-04-19T09:34:53.48Z</time></trkpt><trkpt lat="43.9110467" lon="12.8678913"><ele>19.0</ele><time>2026-04-19T09:34:55.455Z</time></trkpt><trkpt lat="43.9109785" lon="12.8680054"><ele>19.0</ele><time>2026-04-19T09:34:57.455Z</time></trkpt><trkpt lat="43.9109024" lon="12.868138"><ele>19.0</ele><time>2026-04-19T09:34:59.455Z</time></trkpt><trkpt lat="43.9108451" lon="12.8682527"><ele>19.0</ele><time>2026-04-19T09:35:01.455Z</time></trkpt><trkpt lat="43.9107969" lon="12.8683403"><ele>19.0</ele><time>2026-04-19T09:35:03.466Z</time></trkpt><trkpt lat="43.9107428" lon="12.8684431"><ele>18.4</ele><time>2026-04-19T09:35:05.467Z</time></trkpt><trkpt lat="43.9106839" lon="12.8685351"><ele>17.799999999999997</ele><time>2026-04-19T09:35:07.457Z</time></trkpt><trkpt lat="43.910661" lon="12.86865"><ele>17.200000000000003</ele><time>2026-04-19T09:35:09.455Z</time></trkpt><trkpt lat="43.9106038" lon="12.8687419"><ele>16.6</ele><time>2026-04-19T09:35:12.465Z</time></trkpt><trkpt lat="43.9105457" lon="12.8687933"><ele>16.0</ele><time>2026-04-19T09:35:15.476Z</time></trkpt><trkpt lat="43.9104066" lon="12.8687275"><ele>16.0</ele><time>2026-04-19T09:35:18.456Z</time></trkpt><trkpt lat="43.9102992" lon="12.8686859"><ele>16.0</ele><time>2026-04-19T09:35:20.452Z</time></trkpt><trkpt lat="43.9101777" lon="12.868641"><ele>16.0</ele><time>2026-04-19T09:35:22.455Z</time></trkpt><trkpt lat="43.9101129" lon="12.8686296"><ele>16.0</ele><time>2026-04-19T09:35:23.452Z</time></trkpt><trkpt lat="43.9099933" lon="12.8686085"><ele>16.0</ele><time>2026-04-19T09:35:25.455Z</time></trkpt><trkpt lat="43.9098692" lon="12.8686071"><ele>15.333333333333332</ele><time>2026-04-19T09:35:27.459Z</time></trkpt><trkpt lat="43.9097984" lon="12.8686116"><ele>14.666666666666666</ele><time>2026-04-19T09:35:28.472Z</time></trkpt><trkpt lat="43.9097303" lon="12.8686114"><ele>14.0</ele><time>2026-04-19T09:35:29.467Z</time></trkpt><trkpt lat="43.9096672" lon="12.8686105"><ele>13.333333333333332</ele><time>2026-04-19T09:35:30.463Z</time></trkpt><trkpt lat="43.909604" lon="12.8686117"><ele>12.666666666666666</ele><time>2026-04-19T09:35:31.453Z</time></trkpt><trkpt lat="43.9095182" lon="12.8685944"><ele>12.0</ele><time>2026-04-19T09:35:33.456Z</time></trkpt><trkpt lat="43.9094062" lon="12.8686007"><ele>12.0</ele><time>2026-04-19T09:35:35.475Z</time></trkpt><trkpt lat="43.9093384" lon="12.8685918"><ele>12.0</ele><time>2026-04-19T09:35:36.453Z</time></trkpt><trkpt lat="43.909245" lon="12.8686465"><ele>12.0</ele><time>2026-04-19T09:35:38.452Z</time></trkpt><trkpt lat="43.9091576" lon="12.8687271"><ele>12.0</ele><time>2026-04-19T09:35:40.47Z</time></trkpt><trkpt lat="43.9090937" lon="12.8688375"><ele>12.0</ele><time>2026-04-19T09:35:42.456Z</time></trkpt><trkpt lat="43.9090571" lon="12.8689618"><ele>12.6</ele><time>2026-04-19T09:35:44.455Z</time></trkpt><trkpt lat="43.908999" lon="12.8690956"><ele>13.2</ele><time>2026-04-19T09:35:46.451Z</time></trkpt><trkpt lat="43.9089583" lon="12.8692037"><ele>13.8</ele><time>2026-04-19T09:35:48.471Z</time></trkpt><trkpt lat="43.9088946" lon="12.8692704"><ele>14.4</ele><time>2026-04-19T09:35:51.45Z</time></trkpt><trkpt lat="43.9088188" lon="12.8692514"><ele>15.0</ele><time>2026-04-19T09:35:55.462Z</time></trkpt><trkpt lat="43.9087468" lon="12.8691573"><ele>15.0</ele><time>2026-04-19T09:35:58.454Z</time></trkpt><trkpt lat="43.9086974" lon="12.8690501"><ele>15.0</ele><time>2026-04-19T09:36:00.468Z</time></trkpt><trkpt lat="43.9086715" lon="12.8689024"><ele>15.0</ele><time>2026-04-19T09:36:02.453Z</time></trkpt><trkpt lat="43.9086079" lon="12.8688214"><ele>15.0</ele><time>2026-04-19T09:36:04.45Z</time></trkpt><trkpt lat="43.9085217" lon="12.8688301"><ele>15.0</ele><time>2026-04-19T09:36:06.464Z</time></trkpt><trkpt lat="43.9084055" lon="12.8688282"><ele>14.833333333333334</ele><time>2026-04-19T09:36:08.467Z</time></trkpt><trkpt lat="43.908282" lon="12.868848"><ele>14.666666666666668</ele><time>2026-04-19T09:36:10.453Z</time></trkpt><trkpt lat="43.9082189" lon="12.8688562"><ele>14.5</ele><time>2026-04-19T09:36:11.451Z</time></trkpt><trkpt lat="43.9081541" lon="12.8688761"><ele>14.333333333333334</ele><time>2026-04-19T09:36:12.466Z</time></trkpt><trkpt lat="43.9080881" lon="12.8689014"><ele>14.166666666666668</ele><time>2026-04-19T09:36:13.453Z</time></trkpt><trkpt lat="43.9080138" lon="12.8689296"><ele>14.0</ele><time>2026-04-19T09:36:14.473Z</time></trkpt><trkpt lat="43.907941" lon="12.8689662"><ele>14.000000000000002</ele><time>2026-04-19T09:36:15.46Z</time></trkpt><trkpt lat="43.9078725" lon="12.8690029"><ele>14.0</ele><time>2026-04-19T09:36:16.448Z</time></trkpt><trkpt lat="43.9078041" lon="12.8690448"><ele>14.0</ele><time>2026-04-19T09:36:17.462Z</time></trkpt><trkpt lat="43.9077343" lon="12.8690778"><ele>14.0</ele><time>2026-04-19T09:36:18.447Z</time></trkpt><trkpt lat="43.9076684" lon="12.8691129"><ele>14.000000000000002</ele><time>2026-04-19T09:36:19.472Z</time></trkpt><trkpt lat="43.9075878" lon="12.8691461"><ele>14.0</ele><time>2026-04-19T09:36:20.473Z</time></trkpt><trkpt lat="43.9074693" lon="12.8692156"><ele>13.25</ele><time>2026-04-19T09:36:22.467Z</time></trkpt><trkpt lat="43.907364" lon="12.8692825"><ele>12.5</ele><time>2026-04-19T09:36:24.475Z</time></trkpt><trkpt lat="43.9072467" lon="12.8693506"><ele>11.75</ele><time>2026-04-19T09:36:26.453Z</time></trkpt><trkpt lat="43.9071114" lon="12.869425"><ele>11.0</ele><time>2026-04-19T09:36:28.464Z</time></trkpt><trkpt lat="43.9070479" lon="12.8694625"><ele>11.0</ele><time>2026-04-19T09:36:29.453Z</time></trkpt><trkpt lat="43.9069421" lon="12.8695284"><ele>11.0</ele><time>2026-04-19T09:36:31.45Z</time></trkpt><trkpt lat="43.9068779" lon="12.8695839"><ele>11.0</ele><time>2026-04-19T09:36:33.475Z</time></trkpt><trkpt lat="43.9067977" lon="12.8695735"><ele>11.0</ele><time>2026-04-19T09:36:36.458Z</time></trkpt><trkpt lat="43.9067028" lon="12.8695294"><ele>11.0</ele><time>2026-04-19T09:36:38.448Z</time></trkpt><trkpt lat="43.9065898" lon="12.8695001"><ele>9.8</ele><time>2026-04-19T09:36:40.477Z</time></trkpt><trkpt lat="43.9064758" lon="12.86951"><ele>8.600000000000001</ele><time>2026-04-19T09:36:42.466Z</time></trkpt><trkpt lat="43.9063633" lon="12.8695936"><ele>7.4</ele><time>2026-04-19T09:36:44.475Z</time></trkpt><trkpt lat="43.9062994" lon="12.8696449"><ele>6.2</ele><time>2026-04-19T09:36:45.452Z</time></trkpt><trkpt lat="43.9062297" lon="12.8697837"><ele>5.0</ele><time>2026-04-19T09:36:47.46Z</time></trkpt><trkpt lat="43.9061958" lon="12.8698626"><ele>5.0</ele><time>2026-04-19T09:36:48.453Z</time></trkpt><trkpt lat="43.90615" lon="12.8700159"><ele>5.0</ele><time>2026-04-19T09:36:50.468Z</time></trkpt><trkpt lat="43.9060956" lon="12.8701517"><ele>5.0</ele><time>2026-04-19T09:36:52.462Z</time></trkpt><trkpt lat="43.9060227" lon="12.8702737"><ele>5.0</ele><time>2026-04-19T09:36:54.455Z</time></trkpt><trkpt lat="43.9059307" lon="12.8703663"><ele>5.5</ele><time>2026-04-19T09:36:56.468Z</time></trkpt><trkpt lat="43.9058201" lon="12.8704432"><ele>6.0</ele><time>2026-04-19T09:36:58.463Z</time></trkpt><trkpt lat="43.905714" lon="12.8705187"><ele>6.5</ele><time>2026-04-19T09:37:00.452Z</time></trkpt><trkpt lat="43.9056111" lon="12.8706072"><ele>7.0</ele><time>2026-04-19T09:37:02.465Z</time></trkpt><trkpt lat="43.9055264" lon="12.8706907"><ele>7.0</ele><time>2026-04-19T09:37:04.456Z</time></trkpt><trkpt lat="43.905448" lon="12.8707767"><ele>6.999999999999999</ele><time>2026-04-19T09:37:06.446Z</time></trkpt><trkpt lat="43.9053727" lon="12.8708629"><ele>6.999999999999999</ele><time>2026-04-19T09:37:08.453Z</time></trkpt><trkpt lat="43.9052834" lon="12.8709447"><ele>7.0</ele><time>2026-04-19T09:37:10.456Z</time></trkpt><trkpt lat="43.9051958" lon="12.8710225"><ele>7.0</ele><time>2026-04-19T09:37:12.467Z</time></trkpt><trkpt lat="43.9050857" lon="12.8711134"><ele>6.3999999999999995</ele><time>2026-04-19T09:37:14.471Z</time></trkpt><trkpt lat="43.9049893" lon="12.8711891"><ele>5.799999999999999</ele><time>2026-04-19T09:37:16.451Z</time></trkpt><trkpt lat="43.9048979" lon="12.8712663"><ele>5.2</ele><time>2026-04-19T09:37:18.464Z</time></trkpt><trkpt lat="43.9048115" lon="12.8713472"><ele>4.6</ele><time>2026-04-19T09:37:20.466Z</time></trkpt><trkpt lat="43.9047093" lon="12.8714318"><ele>4.0</ele><time>2026-04-19T09:37:22.456Z</time></trkpt><trkpt lat="43.9046268" lon="12.8715213"><ele>4.0</ele><time>2026-04-19T09:37:24.447Z</time></trkpt><trkpt lat="43.9045247" lon="12.8716049"><ele>4.0</ele><time>2026-04-19T09:37:26.454Z</time></trkpt><trkpt lat="43.9044202" lon="12.8716881"><ele>4.0</ele><time>2026-04-19T09:37:28.473Z</time></trkpt><trkpt lat="43.9043428" lon="12.8717268"><ele>4.0</ele><time>2026-04-19T09:37:29.47Z</time></trkpt><trkpt lat="43.9042383" lon="12.8718143"><ele>4.0</ele><time>2026-04-19T09:37:31.455Z</time></trkpt><trkpt lat="43.9041551" lon="12.8718969"><ele>4.4</ele><time>2026-04-19T09:37:33.467Z</time></trkpt><trkpt lat="43.9040613" lon="12.8719831"><ele>4.800000000000001</ele><time>2026-04-19T09:37:35.459Z</time></trkpt><trkpt lat="43.9039656" lon="12.8720693"><ele>5.199999999999999</ele><time>2026-04-19T09:37:37.454Z</time></trkpt><trkpt lat="43.9038647" lon="12.8721534"><ele>5.6</ele><time>2026-04-19T09:37:39.459Z</time></trkpt><trkpt lat="43.9038096" lon="12.8721968"><ele>6.0</ele><time>2026-04-19T09:37:40.451Z</time></trkpt><trkpt lat="43.9037575" lon="12.8722462"><ele>6.0</ele><time>2026-04-19T09:37:41.449Z</time></trkpt><trkpt lat="43.9037026" lon="12.8722892"><ele>6.0</ele><time>2026-04-19T09:37:42.47Z</time></trkpt><trkpt lat="43.903643" lon="12.8723323"><ele>6.0</ele><time>2026-04-19T09:37:43.447Z</time></trkpt><trkpt lat="43.9035348" lon="12.8724259"><ele>6.0</ele><time>2026-04-19T09:37:45.455Z</time></trkpt><trkpt lat="43.9034244" lon="12.8725152"><ele>6.0</ele><time>2026-04-19T09:37:47.461Z</time></trkpt><trkpt lat="43.9033688" lon="12.8725623"><ele>6.0</ele><time>2026-04-19T09:37:48.471Z</time></trkpt><trkpt lat="43.9032702" lon="12.872655"><ele>6.0</ele><time>2026-04-19T09:37:50.465Z</time></trkpt><trkpt lat="43.9031589" lon="12.8727497"><ele>6.0</ele><time>2026-04-19T09:37:52.475Z</time></trkpt><trkpt lat="43.903105" lon="12.8727956"><ele>6.0</ele><time>2026-04-19T09:37:53.461Z</time></trkpt><trkpt lat="43.9030226" lon="12.8728844"><ele>6.0</ele><time>2026-04-19T09:37:55.463Z</time></trkpt><trkpt lat="43.9029679" lon="12.8729338"><ele>6.0</ele><time>2026-04-19T09:37:56.454Z</time></trkpt><trkpt lat="43.9029035" lon="12.8729832"><ele>6.0</ele><time>2026-04-19T09:37:57.463Z</time></trkpt><trkpt lat="43.9028501" lon="12.8730321"><ele>6.0</ele><time>2026-04-19T09:37:58.471Z</time></trkpt><trkpt lat="43.9027513" lon="12.8731283"><ele>6.0</ele><time>2026-04-19T09:38:00.455Z</time></trkpt><trkpt lat="43.9026959" lon="12.8731731"><ele>6.0</ele><time>2026-04-19T09:38:01.447Z</time></trkpt><trkpt lat="43.9025963" lon="12.8732699"><ele>6.0</ele><time>2026-04-19T09:38:03.449Z</time></trkpt><trkpt lat="43.9025432" lon="12.8733196"><ele>6.0</ele><time>2026-04-19T09:38:04.454Z</time></trkpt><trkpt lat="43.9024922" lon="12.8733756"><ele>6.0</ele><time>2026-04-19T09:38:05.457Z</time></trkpt><trkpt lat="43.9023926" lon="12.8734754"><ele>6.0</ele><time>2026-04-19T09:38:07.462Z</time></trkpt><trkpt lat="43.9023349" lon="12.8735244"><ele>6.0</ele><time>2026-04-19T09:38:08.449Z</time></trkpt><trkpt lat="43.902237" lon="12.8736219"><ele>6.0</ele><time>2026-04-19T09:38:10.454Z</time></trkpt><trkpt lat="43.9021429" lon="12.8737232"><ele>6.333333333333333</ele><time>2026-04-19T09:38:12.452Z</time></trkpt><trkpt lat="43.9020549" lon="12.8738291"><ele>6.666666666666666</ele><time>2026-04-19T09:38:14.446Z</time></trkpt><trkpt lat="43.9020011" lon="12.8738844"><ele>7.0</ele><time>2026-04-19T09:38:15.449Z</time></trkpt><trkpt lat="43.901945" lon="12.8739441"><ele>7.333333333333333</ele><time>2026-04-19T09:38:16.452Z</time></trkpt><trkpt lat="43.9018924" lon="12.8740002"><ele>7.666666666666666</ele><time>2026-04-19T09:38:17.457Z</time></trkpt><trkpt lat="43.9018414" lon="12.8740557"><ele>8.0</ele><time>2026-04-19T09:38:18.45Z</time></trkpt><trkpt lat="43.9017489" lon="12.8741809"><ele>7.833333333333333</ele><time>2026-04-19T09:38:20.458Z</time></trkpt><trkpt lat="43.9017002" lon="12.8742452"><ele>7.666666666666666</ele><time>2026-04-19T09:38:21.475Z</time></trkpt><trkpt lat="43.9016475" lon="12.8743071"><ele>7.5</ele><time>2026-04-19T09:38:22.475Z</time></trkpt><trkpt lat="43.9016022" lon="12.8743701"><ele>7.333333333333334</ele><time>2026-04-19T09:38:23.455Z</time></trkpt><trkpt lat="43.9015503" lon="12.8744378"><ele>7.166666666666667</ele><time>2026-04-19T09:38:24.475Z</time></trkpt><trkpt lat="43.9014621" lon="12.8745523"><ele>7.0</ele><time>2026-04-19T09:38:26.464Z</time></trkpt><trkpt lat="43.9013755" lon="12.874674"><ele>7.0</ele><time>2026-04-19T09:38:28.453Z</time></trkpt><trkpt lat="43.9012848" lon="12.8747929"><ele>7.0</ele><time>2026-04-19T09:38:30.457Z</time></trkpt><trkpt lat="43.9011985" lon="12.8749127"><ele>7.0</ele><time>2026-04-19T09:38:32.474Z</time></trkpt><trkpt lat="43.9011144" lon="12.8750382"><ele>7.0</ele><time>2026-04-19T09:38:34.451Z</time></trkpt><trkpt lat="43.9010341" lon="12.8751543"><ele>6.75</ele><time>2026-04-19T09:38:36.45Z</time></trkpt><trkpt lat="43.9009537" lon="12.8752971"><ele>6.5</ele><time>2026-04-19T09:38:38.449Z</time></trkpt><trkpt lat="43.9008713" lon="12.8754295"><ele>6.25</ele><time>2026-04-19T09:38:40.453Z</time></trkpt><trkpt lat="43.9007957" lon="12.8755663"><ele>6.0</ele><time>2026-04-19T09:38:42.45Z</time></trkpt><trkpt lat="43.9007237" lon="12.8756951"><ele>6.0</ele><time>2026-04-19T09:38:44.453Z</time></trkpt><trkpt lat="43.9006493" lon="12.8758228"><ele>6.0</ele><time>2026-04-19T09:38:46.468Z</time></trkpt><trkpt lat="43.90057" lon="12.8759563"><ele>6.0</ele><time>2026-04-19T09:38:48.454Z</time></trkpt><trkpt lat="43.9004888" lon="12.876077"><ele>6.0</ele><time>2026-04-19T09:38:50.46Z</time></trkpt><trkpt lat="43.9004166" lon="12.8761846"><ele>6.5</ele><time>2026-04-19T09:38:52.467Z</time></trkpt><trkpt lat="43.900337" lon="12.8762987"><ele>7.0</ele><time>2026-04-19T09:38:54.461Z</time></trkpt><trkpt lat="43.9002631" lon="12.8764248"><ele>7.5</ele><time>2026-04-19T09:38:56.451Z</time></trkpt><trkpt lat="43.9001918" lon="12.8765493"><ele>8.0</ele><time>2026-04-19T09:38:58.476Z</time></trkpt><trkpt lat="43.9001133" lon="12.8766735"><ele>7.2</ele><time>2026-04-19T09:39:00.455Z</time></trkpt><trkpt lat="43.9000361" lon="12.8768031"><ele>6.4</ele><time>2026-04-19T09:39:02.457Z</time></trkpt><trkpt lat="43.8999631" lon="12.8769346"><ele>5.6000000000000005</ele><time>2026-04-19T09:39:04.448Z</time></trkpt><trkpt lat="43.8998896" lon="12.8770486"><ele>4.800000000000001</ele><time>2026-04-19T09:39:06.451Z</time></trkpt><trkpt lat="43.8998482" lon="12.8771155"><ele>4.0</ele><time>2026-04-19T09:39:07.472Z</time></trkpt><trkpt lat="43.899768" lon="12.8772408"><ele>4.0</ele><time>2026-04-19T09:39:09.474Z</time></trkpt><trkpt lat="43.8996895" lon="12.8773629"><ele>4.0</ele><time>2026-04-19T09:39:11.465Z</time></trkpt><trkpt lat="43.8996079" lon="12.8774829"><ele>4.0</ele><time>2026-04-19T09:39:13.477Z</time></trkpt><trkpt lat="43.899556" lon="12.8775422"><ele>4.0</ele><time>2026-04-19T09:39:14.452Z</time></trkpt><trkpt lat="43.8994844" lon="12.8776583"><ele>4.0</ele><time>2026-04-19T09:39:16.458Z</time></trkpt><trkpt lat="43.8994051" lon="12.8777797"><ele>4.333333333333333</ele><time>2026-04-19T09:39:18.467Z</time></trkpt><trkpt lat="43.8993548" lon="12.8778399"><ele>4.666666666666666</ele><time>2026-04-19T09:39:19.474Z</time></trkpt><trkpt lat="43.8992599" lon="12.8779554"><ele>5.0</ele><time>2026-04-19T09:39:21.45Z</time></trkpt><trkpt lat="43.8992104" lon="12.8780138"><ele>5.333333333333333</ele><time>2026-04-19T09:39:22.453Z</time></trkpt><trkpt lat="43.8991219" lon="12.8781244"><ele>5.666666666666667</ele><time>2026-04-19T09:39:24.458Z</time></trkpt><trkpt lat="43.8990777" lon="12.8781906"><ele>6.0</ele><time>2026-04-19T09:39:25.457Z</time></trkpt><trkpt lat="43.8989898" lon="12.8783027"><ele>6.4</ele><time>2026-04-19T09:39:27.464Z</time></trkpt><trkpt lat="43.898909" lon="12.8784113"><ele>6.8</ele><time>2026-04-19T09:39:29.452Z</time></trkpt><trkpt lat="43.8988136" lon="12.8785097"><ele>7.200000000000001</ele><time>2026-04-19T09:39:31.465Z</time></trkpt><trkpt lat="43.898765" lon="12.878567"><ele>7.6000000000000005</ele><time>2026-04-19T09:39:32.462Z</time></trkpt><trkpt lat="43.8986792" lon="12.8786711"><ele>8.0</ele><time>2026-04-19T09:39:34.454Z</time></trkpt><trkpt lat="43.8986044" lon="12.8787568"><ele>8.4</ele><time>2026-04-19T09:39:36.451Z</time></trkpt><trkpt lat="43.8984956" lon="12.8788332"><ele>8.8</ele><time>2026-04-19T09:39:38.462Z</time></trkpt><trkpt lat="43.8983991" lon="12.8789334"><ele>9.2</ele><time>2026-04-19T09:39:40.459Z</time></trkpt><trkpt lat="43.8983472" lon="12.8789894"><ele>9.6</ele><time>2026-04-19T09:39:41.445Z</time></trkpt><trkpt lat="43.8982811" lon="12.8790406"><ele>10.0</ele><time>2026-04-19T09:39:42.469Z</time></trkpt><trkpt lat="43.8982233" lon="12.8791035"><ele>10.0</ele><time>2026-04-19T09:39:43.461Z</time></trkpt><trkpt lat="43.8981237" lon="12.8791985"><ele>10.0</ele><time>2026-04-19T09:39:45.475Z</time></trkpt><trkpt lat="43.8980279" lon="12.8793012"><ele>10.0</ele><time>2026-04-19T09:39:47.454Z</time></trkpt><trkpt lat="43.8979349" lon="12.8793958"><ele>10.0</ele><time>2026-04-19T09:39:49.473Z</time></trkpt><trkpt lat="43.8978461" lon="12.8794842"><ele>9.8</ele><time>2026-04-19T09:39:51.45Z</time></trkpt><trkpt lat="43.8977551" lon="12.8795944"><ele>9.6</ele><time>2026-04-19T09:39:53.457Z</time></trkpt><trkpt lat="43.8976526" lon="12.8796908"><ele>9.4</ele><time>2026-04-19T09:39:55.456Z</time></trkpt><trkpt lat="43.8975584" lon="12.8797887"><ele>9.2</ele><time>2026-04-19T09:39:57.467Z</time></trkpt><trkpt lat="43.8975083" lon="12.8798469"><ele>9.0</ele><time>2026-04-19T09:39:58.448Z</time></trkpt><trkpt lat="43.8974547" lon="12.8798978"><ele>9.0</ele><time>2026-04-19T09:39:59.475Z</time></trkpt><trkpt lat="43.8973922" lon="12.879958"><ele>9.0</ele><time>2026-04-19T09:40:00.447Z</time></trkpt><trkpt lat="43.8973027" lon="12.8800418"><ele>9.0</ele><time>2026-04-19T09:40:02.452Z</time></trkpt><trkpt lat="43.8972497" lon="12.8800919"><ele>9.0</ele><time>2026-04-19T09:40:03.472Z</time></trkpt><trkpt lat="43.8971891" lon="12.8801453"><ele>9.0</ele><time>2026-04-19T09:40:04.472Z</time></trkpt><trkpt lat="43.8971018" lon="12.8802262"><ele>9.0</ele><time>2026-04-19T09:40:06.45Z</time></trkpt><trkpt lat="43.8970122" lon="12.8803071"><ele>9.25</ele><time>2026-04-19T09:40:08.453Z</time></trkpt><trkpt lat="43.8969329" lon="12.8804018"><ele>9.5</ele><time>2026-04-19T09:40:10.456Z</time></trkpt><trkpt lat="43.8968487" lon="12.8804834"><ele>9.75</ele><time>2026-04-19T09:40:12.45Z</time></trkpt><trkpt lat="43.8967525" lon="12.8805841"><ele>10.0</ele><time>2026-04-19T09:40:14.462Z</time></trkpt><trkpt lat="43.8966455" lon="12.8806779"><ele>9.6</ele><time>2026-04-19T09:40:16.446Z</time></trkpt><trkpt lat="43.8965466" lon="12.8807757"><ele>9.2</ele><time>2026-04-19T09:40:18.471Z</time></trkpt><trkpt lat="43.8964441" lon="12.8808762"><ele>8.8</ele><time>2026-04-19T09:40:20.452Z</time></trkpt><trkpt lat="43.8963452" lon="12.8809695"><ele>8.4</ele><time>2026-04-19T09:40:22.459Z</time></trkpt><trkpt lat="43.8962917" lon="12.8810175"><ele>8.0</ele><time>2026-04-19T09:40:23.456Z</time></trkpt><trkpt lat="43.896238" lon="12.8810691"><ele>8.0</ele><time>2026-04-19T09:40:24.457Z</time></trkpt><trkpt lat="43.896138" lon="12.8811684"><ele>8.0</ele><time>2026-04-19T09:40:26.465Z</time></trkpt><trkpt lat="43.8960332" lon="12.8812711"><ele>8.0</ele><time>2026-04-19T09:40:28.467Z</time></trkpt><trkpt lat="43.8959362" lon="12.8813725"><ele>8.0</ele><time>2026-04-19T09:40:30.456Z</time></trkpt><trkpt lat="43.895847" lon="12.8814714"><ele>7.800000000000001</ele><time>2026-04-19T09:40:32.455Z</time></trkpt><trkpt lat="43.8957736" lon="12.8815683"><ele>7.6000000000000005</ele><time>2026-04-19T09:40:34.464Z</time></trkpt><trkpt lat="43.8956819" lon="12.881667"><ele>7.3999999999999995</ele><time>2026-04-19T09:40:36.45Z</time></trkpt><trkpt lat="43.8955829" lon="12.8817673"><ele>7.199999999999999</ele><time>2026-04-19T09:40:38.464Z</time></trkpt><trkpt lat="43.8955226" lon="12.8818244"><ele>7.0</ele><time>2026-04-19T09:40:39.453Z</time></trkpt><trkpt lat="43.8954669" lon="12.8818718"><ele>7.0</ele><time>2026-04-19T09:40:40.453Z</time></trkpt><trkpt lat="43.8953739" lon="12.8819754"><ele>7.0</ele><time>2026-04-19T09:40:42.456Z</time></trkpt><trkpt lat="43.8952745" lon="12.8820769"><ele>7.0</ele><time>2026-04-19T09:40:44.458Z</time></trkpt><trkpt lat="43.8951855" lon="12.8821707"><ele>7.0</ele><time>2026-04-19T09:40:46.451Z</time></trkpt><trkpt lat="43.8951017" lon="12.8822691"><ele>6.8</ele><time>2026-04-19T09:40:48.452Z</time></trkpt><trkpt lat="43.8950449" lon="12.8823223"><ele>6.6</ele><time>2026-04-19T09:40:49.46Z</time></trkpt><trkpt lat="43.894942" lon="12.8824101"><ele>6.3999999999999995</ele><time>2026-04-19T09:40:51.446Z</time></trkpt><trkpt lat="43.894842" lon="12.8825173"><ele>6.199999999999999</ele><time>2026-04-19T09:40:53.456Z</time></trkpt><trkpt lat="43.8947764" lon="12.8825707"><ele>6.0</ele><time>2026-04-19T09:40:54.451Z</time></trkpt><trkpt lat="43.8947156" lon="12.8826216"><ele>6.0</ele><time>2026-04-19T09:40:55.455Z</time></trkpt><trkpt lat="43.8946154" lon="12.8827283"><ele>6.0</ele><time>2026-04-19T09:40:57.452Z</time></trkpt><trkpt lat="43.8945627" lon="12.8827763"><ele>6.0</ele><time>2026-04-19T09:40:58.46Z</time></trkpt><trkpt lat="43.8944778" lon="12.8828711"><ele>6.0</ele><time>2026-04-19T09:41:00.457Z</time></trkpt><trkpt lat="43.8944143" lon="12.882913"><ele>6.0</ele><time>2026-04-19T09:41:01.449Z</time></trkpt><trkpt lat="43.8943416" lon="12.8830084"><ele>6.0</ele><time>2026-04-19T09:41:03.461Z</time></trkpt><trkpt lat="43.8942548" lon="12.883092"><ele>6.0</ele><time>2026-04-19T09:41:05.456Z</time></trkpt><trkpt lat="43.8941594" lon="12.8831856"><ele>6.0</ele><time>2026-04-19T09:41:07.471Z</time></trkpt><trkpt lat="43.8940617" lon="12.8832882"><ele>6.0</ele><time>2026-04-19T09:41:09.451Z</time></trkpt><trkpt lat="43.8940084" lon="12.8833351"><ele>6.0</ele><time>2026-04-19T09:41:10.453Z</time></trkpt><trkpt lat="43.8939104" lon="12.8834312"><ele>6.8</ele><time>2026-04-19T09:41:12.448Z</time></trkpt><trkpt lat="43.893851" lon="12.8834758"><ele>7.6</ele><time>2026-04-19T09:41:13.467Z</time></trkpt><trkpt lat="43.8937544" lon="12.8835691"><ele>8.4</ele><time>2026-04-19T09:41:15.459Z</time></trkpt><trkpt lat="43.8936619" lon="12.8836528"><ele>9.2</ele><time>2026-04-19T09:41:17.462Z</time></trkpt><trkpt lat="43.8935815" lon="12.8837312"><ele>10.0</ele><time>2026-04-19T09:41:19.468Z</time></trkpt><trkpt lat="43.8934854" lon="12.8837972"><ele>9.4</ele><time>2026-04-19T09:41:21.452Z</time></trkpt><trkpt lat="43.8933695" lon="12.8838332"><ele>8.8</ele><time>2026-04-19T09:41:23.453Z</time></trkpt><trkpt lat="43.8932618" lon="12.8838401"><ele>8.2</ele><time>2026-04-19T09:41:25.445Z</time></trkpt><trkpt lat="43.8931945" lon="12.8838322"><ele>7.6</ele><time>2026-04-19T09:41:26.458Z</time></trkpt><trkpt lat="43.8930766" lon="12.8838708"><ele>7.0</ele><time>2026-04-19T09:41:28.447Z</time></trkpt><trkpt lat="43.8929677" lon="12.8839527"><ele>7.0</ele><time>2026-04-19T09:41:30.454Z</time></trkpt><trkpt lat="43.8929008" lon="12.8840794"><ele>7.0</ele><time>2026-04-19T09:41:32.452Z</time></trkpt><trkpt lat="43.8928627" lon="12.8842327"><ele>7.0</ele><time>2026-04-19T09:41:34.453Z</time></trkpt><trkpt lat="43.8928527" lon="12.8843934"><ele>7.0</ele><time>2026-04-19T09:41:36.461Z</time></trkpt><trkpt lat="43.8928358" lon="12.8845609"><ele>7.6</ele><time>2026-04-19T09:41:38.449Z</time></trkpt><trkpt lat="43.8928043" lon="12.8846905"><ele>8.2</ele><time>2026-04-19T09:41:40.452Z</time></trkpt><trkpt lat="43.8927561" lon="12.884836"><ele>8.8</ele><time>2026-04-19T09:41:42.458Z</time></trkpt><trkpt lat="43.8926805" lon="12.8849652"><ele>9.4</ele><time>2026-04-19T09:41:44.452Z</time></trkpt><trkpt lat="43.8926403" lon="12.8850433"><ele>10.0</ele><time>2026-04-19T09:41:45.447Z</time></trkpt><trkpt lat="43.8926041" lon="12.8851151"><ele>10.6</ele><time>2026-04-19T09:41:46.445Z</time></trkpt><trkpt lat="43.8925399" lon="12.8852401"><ele>11.2</ele><time>2026-04-19T09:41:48.472Z</time></trkpt><trkpt lat="43.8924682" lon="12.8853747"><ele>11.8</ele><time>2026-04-19T09:41:50.452Z</time></trkpt><trkpt lat="43.8924005" lon="12.885516"><ele>12.4</ele><time>2026-04-19T09:41:52.451Z</time></trkpt><trkpt lat="43.8923648" lon="12.8855884"><ele>13.0</ele><time>2026-04-19T09:41:53.457Z</time></trkpt><trkpt lat="43.892298" lon="12.885727"><ele>13.0</ele><time>2026-04-19T09:41:55.447Z</time></trkpt><trkpt lat="43.8922398" lon="12.8858695"><ele>13.0</ele><time>2026-04-19T09:41:57.453Z</time></trkpt><trkpt lat="43.8921849" lon="12.886014"><ele>13.0</ele><time>2026-04-19T09:41:59.446Z</time></trkpt><trkpt lat="43.8921211" lon="12.8861485"><ele>13.0</ele><time>2026-04-19T09:42:01.446Z</time></trkpt><trkpt lat="43.8920636" lon="12.8863073"><ele>13.0</ele><time>2026-04-19T09:42:03.459Z</time></trkpt><trkpt lat="43.8920177" lon="12.8864517"><ele>13.0</ele><time>2026-04-19T09:42:05.449Z</time></trkpt><trkpt lat="43.8919673" lon="12.8865995"><ele>13.0</ele><time>2026-04-19T09:42:07.454Z</time></trkpt><trkpt lat="43.8919194" lon="12.8867154"><ele>13.0</ele><time>2026-04-19T09:42:09.447Z</time></trkpt><trkpt lat="43.8919" lon="12.8868033"><ele>13.0</ele><time>2026-04-19T09:42:10.45Z</time></trkpt><trkpt lat="43.891856" lon="12.8869536"><ele>13.0</ele><time>2026-04-19T09:42:12.448Z</time></trkpt><trkpt lat="43.8918154" lon="12.887089"><ele>13.0</ele><time>2026-04-19T09:42:14.458Z</time></trkpt><trkpt lat="43.8917703" lon="12.8872347"><ele>13.0</ele><time>2026-04-19T09:42:16.452Z</time></trkpt><trkpt lat="43.8917492" lon="12.8873245"><ele>13.0</ele><time>2026-04-19T09:42:17.461Z</time></trkpt><trkpt lat="43.8917316" lon="12.8874114"><ele>13.0</ele><time>2026-04-19T09:42:18.453Z</time></trkpt><trkpt lat="43.8916935" lon="12.8875662"><ele>12.8</ele><time>2026-04-19T09:42:20.455Z</time></trkpt><trkpt lat="43.8916486" lon="12.8877291"><ele>12.600000000000001</ele><time>2026-04-19T09:42:22.444Z</time></trkpt><trkpt lat="43.8915865" lon="12.8878455"><ele>12.399999999999999</ele><time>2026-04-19T09:42:24.452Z</time></trkpt><trkpt lat="43.8915187" lon="12.8879475"><ele>12.2</ele><time>2026-04-19T09:42:26.446Z</time></trkpt><trkpt lat="43.8914291" lon="12.8880048"><ele>12.0</ele><time>2026-04-19T09:42:28.456Z</time></trkpt><trkpt lat="43.8913457" lon="12.8880984"><ele>12.0</ele><time>2026-04-19T09:42:30.445Z</time></trkpt><trkpt lat="43.8912855" lon="12.8882283"><ele>12.0</ele><time>2026-04-19T09:42:32.445Z</time></trkpt><trkpt lat="43.8912524" lon="12.88839"><ele>12.0</ele><time>2026-04-19T09:42:34.443Z</time></trkpt><trkpt lat="43.891251" lon="12.8884792"><ele>12.0</ele><time>2026-04-19T09:42:35.45Z</time></trkpt><trkpt lat="43.8912724" lon="12.8886374"><ele>12.0</ele><time>2026-04-19T09:42:37.445Z</time></trkpt><trkpt lat="43.8912843" lon="12.8887291"><ele>12.0</ele><time>2026-04-19T09:42:38.443Z</time></trkpt><trkpt lat="43.8913077" lon="12.8888957"><ele>12.0</ele><time>2026-04-19T09:42:40.456Z</time></trkpt><trkpt lat="43.8913108" lon="12.8889843"><ele>12.0</ele><time>2026-04-19T09:42:41.445Z</time></trkpt><trkpt lat="43.8912891" lon="12.8891492"><ele>12.0</ele><time>2026-04-19T09:42:43.443Z</time></trkpt><trkpt lat="43.8912477" lon="12.8892996"><ele>12.0</ele><time>2026-04-19T09:42:45.458Z</time></trkpt><trkpt lat="43.8911952" lon="12.8894448"><ele>12.0</ele><time>2026-04-19T09:42:47.444Z</time></trkpt><trkpt lat="43.8911639" lon="12.8895297"><ele>12.0</ele><time>2026-04-19T09:42:48.445Z</time></trkpt><trkpt lat="43.8911159" lon="12.8896809"><ele>12.0</ele><time>2026-04-19T09:42:50.458Z</time></trkpt><trkpt lat="43.8910849" lon="12.8897573"><ele>12.0</ele><time>2026-04-19T09:42:51.447Z</time></trkpt><trkpt lat="43.8910368" lon="12.8899059"><ele>12.0</ele><time>2026-04-19T09:42:53.443Z</time></trkpt><trkpt lat="43.8909837" lon="12.8900578"><ele>11.8</ele><time>2026-04-19T09:42:55.445Z</time></trkpt><trkpt lat="43.8909556" lon="12.8901371"><ele>11.6</ele><time>2026-04-19T09:42:56.446Z</time></trkpt><trkpt lat="43.8909075" lon="12.8902896"><ele>11.4</ele><time>2026-04-19T09:42:58.453Z</time></trkpt><trkpt lat="43.8908548" lon="12.890444"><ele>11.200000000000001</ele><time>2026-04-19T09:43:00.445Z</time></trkpt><trkpt lat="43.8908032" lon="12.8905939"><ele>11.0</ele><time>2026-04-19T09:43:02.448Z</time></trkpt><trkpt lat="43.890756" lon="12.8907437"><ele>10.75</ele><time>2026-04-19T09:43:04.454Z</time></trkpt><trkpt lat="43.8907018" lon="12.8908903"><ele>10.5</ele><time>2026-04-19T09:43:06.445Z</time></trkpt><trkpt lat="43.8906436" lon="12.8910455"><ele>10.25</ele><time>2026-04-19T09:43:08.447Z</time></trkpt><trkpt lat="43.8905939" lon="12.8911984"><ele>10.0</ele><time>2026-04-19T09:43:10.454Z</time></trkpt><trkpt lat="43.8905422" lon="12.891346"><ele>9.6</ele><time>2026-04-19T09:43:12.445Z</time></trkpt><trkpt lat="43.8904912" lon="12.8915054"><ele>9.2</ele><time>2026-04-19T09:43:14.454Z</time></trkpt><trkpt lat="43.8904617" lon="12.891584"><ele>8.8</ele><time>2026-04-19T09:43:15.459Z</time></trkpt><trkpt lat="43.8904142" lon="12.8917239"><ele>8.4</ele><time>2026-04-19T09:43:17.45Z</time></trkpt><trkpt lat="43.8903587" lon="12.8918654"><ele>8.0</ele><time>2026-04-19T09:43:19.45Z</time></trkpt><trkpt lat="43.8903072" lon="12.8920177"><ele>8.833333333333332</ele><time>2026-04-19T09:43:21.451Z</time></trkpt><trkpt lat="43.8902826" lon="12.8920997"><ele>9.666666666666666</ele><time>2026-04-19T09:43:22.455Z</time></trkpt><trkpt lat="43.8902316" lon="12.8922489"><ele>10.5</ele><time>2026-04-19T09:43:24.443Z</time></trkpt><trkpt lat="43.8902013" lon="12.8923274"><ele>11.333333333333332</ele><time>2026-04-19T09:43:25.453Z</time></trkpt><trkpt lat="43.8901507" lon="12.8924731"><ele>12.166666666666666</ele><time>2026-04-19T09:43:27.446Z</time></trkpt><trkpt lat="43.8901252" lon="12.8925538"><ele>13.0</ele><time>2026-04-19T09:43:28.455Z</time></trkpt><trkpt lat="43.890074" lon="12.8927122"><ele>13.600000000000001</ele><time>2026-04-19T09:43:30.458Z</time></trkpt><trkpt lat="43.8900444" lon="12.8927912"><ele>14.200000000000001</ele><time>2026-04-19T09:43:31.455Z</time></trkpt><trkpt lat="43.8899934" lon="12.8929494"><ele>14.8</ele><time>2026-04-19T09:43:33.459Z</time></trkpt><trkpt lat="43.8899433" lon="12.8930873"><ele>15.4</ele><time>2026-04-19T09:43:35.452Z</time></trkpt><trkpt lat="43.8899231" lon="12.8931735"><ele>16.0</ele><time>2026-04-19T09:43:36.452Z</time></trkpt><trkpt lat="43.8898859" lon="12.8933275"><ele>17.0</ele><time>2026-04-19T09:43:38.449Z</time></trkpt><trkpt lat="43.8898571" lon="12.8934793"><ele>18.0</ele><time>2026-04-19T09:43:40.455Z</time></trkpt><trkpt lat="43.8898127" lon="12.8936269"><ele>19.0</ele><time>2026-04-19T09:43:42.457Z</time></trkpt><trkpt lat="43.8897919" lon="12.8937099"><ele>20.0</ele><time>2026-04-19T09:43:43.458Z</time></trkpt><trkpt lat="43.8897643" lon="12.8937946"><ele>21.0</ele><time>2026-04-19T09:43:44.456Z</time></trkpt><trkpt lat="43.8897368" lon="12.8939615"><ele>21.0</ele><time>2026-04-19T09:43:46.45Z</time></trkpt><trkpt lat="43.8897165" lon="12.8940452"><ele>21.0</ele><time>2026-04-19T09:43:47.457Z</time></trkpt><trkpt lat="43.8896906" lon="12.894202"><ele>21.0</ele><time>2026-04-19T09:43:49.453Z</time></trkpt><trkpt lat="43.8896604" lon="12.8943609"><ele>21.0</ele><time>2026-04-19T09:43:51.461Z</time></trkpt><trkpt lat="43.8896417" lon="12.8944466"><ele>21.0</ele><time>2026-04-19T09:43:52.456Z</time></trkpt><trkpt lat="43.8896202" lon="12.894615"><ele>20.0</ele><time>2026-04-19T09:43:54.464Z</time></trkpt><trkpt lat="43.8896054" lon="12.8947009"><ele>19.0</ele><time>2026-04-19T09:43:55.461Z</time></trkpt><trkpt lat="43.8895935" lon="12.8947905"><ele>18.0</ele><time>2026-04-19T09:43:56.451Z</time></trkpt><trkpt lat="43.8895706" lon="12.8949618"><ele>17.0</ele><time>2026-04-19T09:43:58.47Z</time></trkpt><trkpt lat="43.8895564" lon="12.8950481"><ele>16.0</ele><time>2026-04-19T09:43:59.463Z</time></trkpt><trkpt lat="43.8895327" lon="12.895214"><ele>15.0</ele><time>2026-04-19T09:44:01.456Z</time></trkpt><trkpt lat="43.8895211" lon="12.8953"><ele>15.0</ele><time>2026-04-19T09:44:02.459Z</time></trkpt><trkpt lat="43.889507" lon="12.8953892"><ele>15.0</ele><time>2026-04-19T09:44:03.469Z</time></trkpt><trkpt lat="43.8894957" lon="12.8954764"><ele>15.0</ele><time>2026-04-19T09:44:04.461Z</time></trkpt><trkpt lat="43.8894751" lon="12.8956403"><ele>15.0</ele><time>2026-04-19T09:44:06.455Z</time></trkpt><trkpt lat="43.8894642" lon="12.8957316"><ele>15.0</ele><time>2026-04-19T09:44:07.45Z</time></trkpt><trkpt lat="43.8894574" lon="12.8958235"><ele>15.0</ele><time>2026-04-19T09:44:08.464Z</time></trkpt><trkpt lat="43.889448" lon="12.8959125"><ele>15.0</ele><time>2026-04-19T09:44:09.459Z</time></trkpt><trkpt lat="43.8894467" lon="12.8960857"><ele>15.333333333333334</ele><time>2026-04-19T09:44:11.462Z</time></trkpt><trkpt lat="43.8894372" lon="12.8962709"><ele>15.666666666666668</ele><time>2026-04-19T09:44:13.465Z</time></trkpt><trkpt lat="43.8894292" lon="12.8963596"><ele>16.0</ele><time>2026-04-19T09:44:14.448Z</time></trkpt><trkpt lat="43.8894226" lon="12.8964473"><ele>16.333333333333336</ele><time>2026-04-19T09:44:15.464Z</time></trkpt><trkpt lat="43.8894217" lon="12.8965385"><ele>16.666666666666668</ele><time>2026-04-19T09:44:16.454Z</time></trkpt><trkpt lat="43.8894208" lon="12.8967042"><ele>17.0</ele><time>2026-04-19T09:44:18.457Z</time></trkpt><trkpt lat="43.8894234" lon="12.8968749"><ele>17.0</ele><time>2026-04-19T09:44:20.459Z</time></trkpt><trkpt lat="43.8894246" lon="12.8970259"><ele>17.0</ele><time>2026-04-19T09:44:22.47Z</time></trkpt><trkpt lat="43.88943" lon="12.8971802"><ele>17.0</ele><time>2026-04-19T09:44:24.445Z</time></trkpt><trkpt lat="43.8894329" lon="12.8973396"><ele>17.0</ele><time>2026-04-19T09:44:26.452Z</time></trkpt><trkpt lat="43.8894324" lon="12.8974864"><ele>17.0</ele><time>2026-04-19T09:44:28.451Z</time></trkpt><trkpt lat="43.8894334" lon="12.8976349"><ele>17.0</ele><time>2026-04-19T09:44:30.444Z</time></trkpt><trkpt lat="43.8894341" lon="12.8977858"><ele>17.0</ele><time>2026-04-19T09:44:32.475Z</time></trkpt><trkpt lat="43.8894195" lon="12.8979519"><ele>17.0</ele><time>2026-04-19T09:44:34.458Z</time></trkpt><trkpt lat="43.8894224" lon="12.8981226"><ele>17.0</ele><time>2026-04-19T09:44:36.462Z</time></trkpt><trkpt lat="43.8894229" lon="12.8982145"><ele>17.0</ele><time>2026-04-19T09:44:37.469Z</time></trkpt><trkpt lat="43.8894238" lon="12.8983856"><ele>16.4</ele><time>2026-04-19T09:44:39.461Z</time></trkpt><trkpt lat="43.8894209" lon="12.8985632"><ele>15.799999999999999</ele><time>2026-04-19T09:44:41.486Z</time></trkpt><trkpt lat="43.8894121" lon="12.8987144"><ele>15.2</ele><time>2026-04-19T09:44:43.456Z</time></trkpt><trkpt lat="43.8894055" lon="12.8988875"><ele>14.6</ele><time>2026-04-19T09:44:45.475Z</time></trkpt><trkpt lat="43.8893933" lon="12.8989957"><ele>14.0</ele><time>2026-04-19T09:44:47.469Z</time></trkpt><trkpt lat="43.8893751" lon="12.8991239"><ele>13.799999999999999</ele><time>2026-04-19T09:44:49.458Z</time></trkpt><trkpt lat="43.8893513" lon="12.8992629"><ele>13.599999999999998</ele><time>2026-04-19T09:44:51.465Z</time></trkpt><trkpt lat="43.8892801" lon="12.8993936"><ele>13.4</ele><time>2026-04-19T09:44:53.455Z</time></trkpt><trkpt lat="43.8892108" lon="12.89949"><ele>13.2</ele><time>2026-04-19T09:44:55.454Z</time></trkpt><trkpt lat="43.8891356" lon="12.8995758"><ele>13.0</ele><time>2026-04-19T09:44:57.451Z</time></trkpt><trkpt lat="43.8890538" lon="12.8996538"><ele>12.8</ele><time>2026-04-19T09:44:59.477Z</time></trkpt><trkpt lat="43.8889656" lon="12.89978"><ele>12.600000000000001</ele><time>2026-04-19T09:45:01.466Z</time></trkpt><trkpt lat="43.8888811" lon="12.899883"><ele>12.399999999999999</ele><time>2026-04-19T09:45:03.449Z</time></trkpt><trkpt lat="43.8888178" lon="12.8999177"><ele>12.2</ele><time>2026-04-19T09:45:04.468Z</time></trkpt><trkpt lat="43.888705" lon="12.8999429"><ele>12.0</ele><time>2026-04-19T09:45:06.462Z</time></trkpt><trkpt lat="43.8885899" lon="12.8999593"><ele>12.0</ele><time>2026-04-19T09:45:08.448Z</time></trkpt><trkpt lat="43.8884779" lon="12.9000031"><ele>12.0</ele><time>2026-04-19T09:45:10.475Z</time></trkpt><trkpt lat="43.8884181" lon="12.9000354"><ele>12.0</ele><time>2026-04-19T09:45:11.462Z</time></trkpt><trkpt lat="43.8883052" lon="12.9000927"><ele>12.0</ele><time>2026-04-19T09:45:13.448Z</time></trkpt><trkpt lat="43.8882434" lon="12.9001264"><ele>12.0</ele><time>2026-04-19T09:45:14.449Z</time></trkpt><trkpt lat="43.8881777" lon="12.9001552"><ele>12.0</ele><time>2026-04-19T09:45:15.456Z</time></trkpt><trkpt lat="43.8880757" lon="12.9002099"><ele>12.0</ele><time>2026-04-19T09:45:17.467Z</time></trkpt><trkpt lat="43.8879881" lon="12.9002538"><ele>12.0</ele><time>2026-04-19T09:45:19.448Z</time></trkpt><trkpt lat="43.8879059" lon="12.9002986"><ele>12.0</ele><time>2026-04-19T09:45:21.452Z</time></trkpt><trkpt lat="43.8878363" lon="12.9003397"><ele>12.0</ele><time>2026-04-19T09:45:23.455Z</time></trkpt><trkpt lat="43.8877639" lon="12.9004112"><ele>12.0</ele><time>2026-04-19T09:45:29.467Z</time></trkpt><trkpt lat="43.887689" lon="12.9004369"><ele>12.0</ele><time>2026-04-19T09:45:32.459Z</time></trkpt><trkpt lat="43.8876241" lon="12.9004979"><ele>11.999999999999998</ele><time>2026-04-19T09:45:35.475Z</time></trkpt><trkpt lat="43.8875573" lon="12.9005194"><ele>12.0</ele><time>2026-04-19T09:45:37.458Z</time></trkpt><trkpt lat="43.8874907" lon="12.9005789"><ele>12.0</ele><time>2026-04-19T09:45:40.454Z</time></trkpt><trkpt lat="43.8874437" lon="12.9006377"><ele>12.0</ele><time>2026-04-19T09:45:46.455Z</time></trkpt><trkpt lat="43.8874959" lon="12.9005624"><ele>12.0</ele><time>2026-04-19T09:45:48.45Z</time></trkpt><trkpt lat="43.8875555" lon="12.9005036"><ele>11.999999999999998</ele><time>2026-04-19T09:45:50.442Z</time></trkpt><trkpt lat="43.8876344" lon="12.9004633"><ele>12.0</ele><time>2026-04-19T09:45:52.451Z</time></trkpt><trkpt lat="43.8876996" lon="12.9004307"><ele>12.0</ele><time>2026-04-19T09:45:55.46Z</time></trkpt><trkpt lat="43.8876824" lon="12.9003423"><ele>12.0</ele><time>2026-04-19T09:46:11.465Z</time></trkpt><trkpt lat="43.8877348" lon="12.9003911"><ele>12.0</ele><time>2026-04-19T09:48:25.443Z</time></trkpt><trkpt lat="43.8876783" lon="12.9004544"><ele>12.0</ele><time>2026-04-19T09:50:23.455Z</time></trkpt><trkpt lat="43.887814" lon="12.9002806"><ele>12.0</ele><time>2026-04-19T09:50:37.442Z</time></trkpt><trkpt lat="43.8879782" lon="12.9002353"><ele>12.0</ele><time>2026-04-19T09:50:39.443Z</time></trkpt><trkpt lat="43.8880916" lon="12.9002004"><ele>12.0</ele><time>2026-04-19T09:50:41.455Z</time></trkpt><trkpt lat="43.8881954" lon="12.9001572"><ele>12.0</ele><time>2026-04-19T09:50:43.451Z</time></trkpt><trkpt lat="43.8883008" lon="12.9001099"><ele>12.0</ele><time>2026-04-19T09:50:45.464Z</time></trkpt><trkpt lat="43.8884053" lon="12.9000719"><ele>12.0</ele><time>2026-04-19T09:50:47.452Z</time></trkpt><trkpt lat="43.8885165" lon="12.9000193"><ele>12.0</ele><time>2026-04-19T09:50:49.46Z</time></trkpt><trkpt lat="43.8886374" lon="12.9000206"><ele>12.0</ele><time>2026-04-19T09:50:51.447Z</time></trkpt><trkpt lat="43.8887474" lon="12.900061"><ele>12.0</ele><time>2026-04-19T09:50:53.456Z</time></trkpt><trkpt lat="43.8888488" lon="12.9001363"><ele>12.0</ele><time>2026-04-19T09:50:55.443Z</time></trkpt><trkpt lat="43.8889227" lon="12.9002632"><ele>12.0</ele><time>2026-04-19T09:50:57.469Z</time></trkpt><trkpt lat="43.8889966" lon="12.9003975"><ele>12.0</ele><time>2026-04-19T09:50:59.456Z</time></trkpt><trkpt lat="43.889032" lon="12.9005615"><ele>12.0</ele><time>2026-04-19T09:51:01.452Z</time></trkpt><trkpt lat="43.8890279" lon="12.9006524"><ele>12.0</ele><time>2026-04-19T09:51:02.466Z</time></trkpt><trkpt lat="43.8890188" lon="12.9008368"><ele>12.0</ele><time>2026-04-19T09:51:04.459Z</time></trkpt><trkpt lat="43.889006" lon="12.9009252"><ele>12.0</ele><time>2026-04-19T09:51:05.449Z</time></trkpt><trkpt lat="43.8889871" lon="12.901011"><ele>12.0</ele><time>2026-04-19T09:51:06.456Z</time></trkpt><trkpt lat="43.8889536" lon="12.9011736"><ele>12.0</ele><time>2026-04-19T09:51:08.46Z</time></trkpt><trkpt lat="43.8889575" lon="12.9012752"><ele>12.0</ele><time>2026-04-19T09:51:09.454Z</time></trkpt><trkpt lat="43.8889079" lon="12.9014284"><ele>12.0</ele><time>2026-04-19T09:51:11.453Z</time></trkpt><trkpt lat="43.8888638" lon="12.9015736"><ele>12.0</ele><time>2026-04-19T09:51:13.449Z</time></trkpt><trkpt lat="43.8888204" lon="12.9017172"><ele>12.0</ele><time>2026-04-19T09:51:15.446Z</time></trkpt><trkpt lat="43.8887963" lon="12.901799"><ele>12.0</ele><time>2026-04-19T09:51:16.451Z</time></trkpt><trkpt lat="43.8887752" lon="12.9018853"><ele>12.0</ele><time>2026-04-19T09:51:17.446Z</time></trkpt><trkpt lat="43.8887391" lon="12.9020314"><ele>12.0</ele><time>2026-04-19T09:51:19.451Z</time></trkpt><trkpt lat="43.8887168" lon="12.9021146"><ele>12.0</ele><time>2026-04-19T09:51:20.446Z</time></trkpt><trkpt lat="43.8886716" lon="12.9022028"><ele>12.0</ele><time>2026-04-19T09:51:21.453Z</time></trkpt><trkpt lat="43.8886376" lon="12.9022801"><ele>12.0</ele><time>2026-04-19T09:51:22.441Z</time></trkpt><trkpt lat="43.8886113" lon="12.902362"><ele>12.0</ele><time>2026-04-19T09:51:23.445Z</time></trkpt><trkpt lat="43.8885856" lon="12.9024418"><ele>12.0</ele><time>2026-04-19T09:51:24.459Z</time></trkpt><trkpt lat="43.8885488" lon="12.9025276"><ele>12.0</ele><time>2026-04-19T09:51:25.441Z</time></trkpt><trkpt lat="43.8885044" lon="12.9026727"><ele>12.0</ele><time>2026-04-19T09:51:27.445Z</time></trkpt><trkpt lat="43.8884539" lon="12.9028215"><ele>12.5</ele><time>2026-04-19T09:51:29.476Z</time></trkpt><trkpt lat="43.8884159" lon="12.9029642"><ele>13.0</ele><time>2026-04-19T09:51:31.462Z</time></trkpt><trkpt lat="43.8883766" lon="12.9031227"><ele>13.5</ele><time>2026-04-19T09:51:33.445Z</time></trkpt><trkpt lat="43.8883323" lon="12.9032729"><ele>14.0</ele><time>2026-04-19T09:51:35.449Z</time></trkpt><trkpt lat="43.8882985" lon="12.9034138"><ele>13.6</ele><time>2026-04-19T09:51:37.447Z</time></trkpt><trkpt lat="43.8882494" lon="12.9035509"><ele>13.2</ele><time>2026-04-19T09:51:39.446Z</time></trkpt><trkpt lat="43.8882001" lon="12.9036911"><ele>12.799999999999999</ele><time>2026-04-19T09:51:41.46Z</time></trkpt><trkpt lat="43.8881628" lon="12.9037731"><ele>12.399999999999999</ele><time>2026-04-19T09:51:42.452Z</time></trkpt><trkpt lat="43.8881296" lon="12.9038618"><ele>12.0</ele><time>2026-04-19T09:51:43.467Z</time></trkpt><trkpt lat="43.8880887" lon="12.9040174"><ele>12.0</ele><time>2026-04-19T09:51:45.449Z</time></trkpt><trkpt lat="43.8880531" lon="12.9041591"><ele>12.0</ele><time>2026-04-19T09:51:47.464Z</time></trkpt><trkpt lat="43.8880024" lon="12.9043062"><ele>12.0</ele><time>2026-04-19T09:51:49.462Z</time></trkpt><trkpt lat="43.8879676" lon="12.9044542"><ele>12.0</ele><time>2026-04-19T09:51:51.459Z</time></trkpt><trkpt lat="43.8879314" lon="12.9046115"><ele>12.25</ele><time>2026-04-19T09:51:53.454Z</time></trkpt><trkpt lat="43.8878918" lon="12.9047696"><ele>12.5</ele><time>2026-04-19T09:51:55.457Z</time></trkpt><trkpt lat="43.8878586" lon="12.9049096"><ele>12.75</ele><time>2026-04-19T09:51:57.447Z</time></trkpt><trkpt lat="43.8878282" lon="12.9050851"><ele>13.0</ele><time>2026-04-19T09:51:59.456Z</time></trkpt><trkpt lat="43.8877895" lon="12.9052436"><ele>13.0</ele><time>2026-04-19T09:52:01.449Z</time></trkpt><trkpt lat="43.8877653" lon="12.9054024"><ele>13.0</ele><time>2026-04-19T09:52:03.448Z</time></trkpt><trkpt lat="43.8877432" lon="12.905551"><ele>13.0</ele><time>2026-04-19T09:52:05.455Z</time></trkpt><trkpt lat="43.8877194" lon="12.9056847"><ele>13.0</ele><time>2026-04-19T09:52:07.453Z</time></trkpt><trkpt lat="43.887702" lon="12.905807"><ele>13.0</ele><time>2026-04-19T09:52:09.447Z</time></trkpt><trkpt lat="43.8877009" lon="12.9059406"><ele>13.0</ele><time>2026-04-19T09:52:11.451Z</time></trkpt><trkpt lat="43.8876821" lon="12.9060885"><ele>13.0</ele><time>2026-04-19T09:52:13.454Z</time></trkpt><trkpt lat="43.8876622" lon="12.9062381"><ele>13.0</ele><time>2026-04-19T09:52:15.444Z</time></trkpt><trkpt lat="43.8876543" lon="12.9063995"><ele>13.0</ele><time>2026-04-19T09:52:17.445Z</time></trkpt><trkpt lat="43.887637" lon="12.9065589"><ele>13.0</ele><time>2026-04-19T09:52:19.445Z</time></trkpt><trkpt lat="43.8875772" lon="12.9067065"><ele>13.0</ele><time>2026-04-19T09:52:21.453Z</time></trkpt><trkpt lat="43.887502" lon="12.9068206"><ele>13.0</ele><time>2026-04-19T09:52:23.457Z</time></trkpt><trkpt lat="43.8874203" lon="12.9069321"><ele>13.0</ele><time>2026-04-19T09:52:25.457Z</time></trkpt><trkpt lat="43.887355" lon="12.9070707"><ele>12.8</ele><time>2026-04-19T09:52:27.455Z</time></trkpt><trkpt lat="43.8873418" lon="12.907238"><ele>12.600000000000001</ele><time>2026-04-19T09:52:29.467Z</time></trkpt><trkpt lat="43.8873527" lon="12.9073263"><ele>12.399999999999999</ele><time>2026-04-19T09:52:30.455Z</time></trkpt><trkpt lat="43.8873867" lon="12.9074952"><ele>12.2</ele><time>2026-04-19T09:52:32.458Z</time></trkpt><trkpt lat="43.8874538" lon="12.9076309"><ele>12.0</ele><time>2026-04-19T09:52:34.464Z</time></trkpt><trkpt lat="43.887546" lon="12.9077264"><ele>11.8</ele><time>2026-04-19T09:52:36.45Z</time></trkpt><trkpt lat="43.8876486" lon="12.9077637"><ele>11.6</ele><time>2026-04-19T09:52:38.441Z</time></trkpt><trkpt lat="43.8877627" lon="12.9077728"><ele>11.4</ele><time>2026-04-19T09:52:40.45Z</time></trkpt><trkpt lat="43.8878596" lon="12.9076961"><ele>11.200000000000001</ele><time>2026-04-19T09:52:42.458Z</time></trkpt><trkpt lat="43.8879297" lon="12.9075999"><ele>11.0</ele><time>2026-04-19T09:52:44.475Z</time></trkpt><trkpt lat="43.8879982" lon="12.9074804"><ele>11.0</ele><time>2026-04-19T09:52:46.451Z</time></trkpt><trkpt lat="43.8880724" lon="12.9073518"><ele>11.0</ele><time>2026-04-19T09:52:48.45Z</time></trkpt><trkpt lat="43.8881798" lon="12.9072787"><ele>11.0</ele><time>2026-04-19T09:52:50.449Z</time></trkpt><trkpt lat="43.8882994" lon="12.9072535"><ele>11.0</ele><time>2026-04-19T09:52:52.467Z</time></trkpt><trkpt lat="43.888364" lon="12.9072553"><ele>11.0</ele><time>2026-04-19T09:52:53.457Z</time></trkpt><trkpt lat="43.8884882" lon="12.9072695"><ele>11.5</ele><time>2026-04-19T09:52:55.459Z</time></trkpt><trkpt lat="43.8886069" lon="12.9072957"><ele>12.0</ele><time>2026-04-19T09:52:57.458Z</time></trkpt><trkpt lat="43.888723" lon="12.9073357"><ele>12.5</ele><time>2026-04-19T09:52:59.45Z</time></trkpt><trkpt lat="43.88884" lon="12.9073695"><ele>13.0</ele><time>2026-04-19T09:53:01.458Z</time></trkpt><trkpt lat="43.8889587" lon="12.907413"><ele>13.0</ele><time>2026-04-19T09:53:03.448Z</time></trkpt><trkpt lat="43.8890205" lon="12.9074357"><ele>13.0</ele><time>2026-04-19T09:53:04.451Z</time></trkpt><trkpt lat="43.8891372" lon="12.9074728"><ele>13.0</ele><time>2026-04-19T09:53:06.465Z</time></trkpt><trkpt lat="43.8892464" lon="12.9075163"><ele>13.0</ele><time>2026-04-19T09:53:08.451Z</time></trkpt><trkpt lat="43.8893544" lon="12.9075561"><ele>13.0</ele><time>2026-04-19T09:53:10.463Z</time></trkpt><trkpt lat="43.8894556" lon="12.9076084"><ele>13.0</ele><time>2026-04-19T09:53:12.456Z</time></trkpt><trkpt lat="43.8895434" lon="12.9076939"><ele>13.0</ele><time>2026-04-19T09:53:14.448Z</time></trkpt><trkpt lat="43.8896382" lon="12.9077814"><ele>13.0</ele><time>2026-04-19T09:53:16.461Z</time></trkpt><trkpt lat="43.8897464" lon="12.9078158"><ele>13.0</ele><time>2026-04-19T09:53:18.452Z</time></trkpt><trkpt lat="43.8898531" lon="12.9077931"><ele>13.0</ele><time>2026-04-19T09:53:20.46Z</time></trkpt><trkpt lat="43.8899582" lon="12.9077762"><ele>13.0</ele><time>2026-04-19T09:53:22.462Z</time></trkpt><trkpt lat="43.8900667" lon="12.9078134"><ele>13.0</ele><time>2026-04-19T09:53:24.466Z</time></trkpt><trkpt lat="43.8901765" lon="12.9078653"><ele>13.0</ele><time>2026-04-19T09:53:26.451Z</time></trkpt><trkpt lat="43.8902897" lon="12.907902"><ele>13.0</ele><time>2026-04-19T09:53:28.447Z</time></trkpt><trkpt lat="43.8904054" lon="12.9079378"><ele>12.8</ele><time>2026-04-19T09:53:30.454Z</time></trkpt><trkpt lat="43.8904663" lon="12.9079635"><ele>12.600000000000001</ele><time>2026-04-19T09:53:31.456Z</time></trkpt><trkpt lat="43.8905821" lon="12.9080045"><ele>12.399999999999999</ele><time>2026-04-19T09:53:33.444Z</time></trkpt><trkpt lat="43.8906959" lon="12.9080474"><ele>12.2</ele><time>2026-04-19T09:53:35.446Z</time></trkpt><trkpt lat="43.8908153" lon="12.9080885"><ele>12.0</ele><time>2026-04-19T09:53:37.449Z</time></trkpt><trkpt lat="43.8908806" lon="12.9081229"><ele>11.833333333333334</ele><time>2026-04-19T09:53:38.44Z</time></trkpt><trkpt lat="43.8909889" lon="12.9081559"><ele>11.666666666666666</ele><time>2026-04-19T09:53:40.458Z</time></trkpt><trkpt lat="43.891088" lon="12.908197"><ele>11.5</ele><time>2026-04-19T09:53:42.473Z</time></trkpt><trkpt lat="43.8911484" lon="12.9082236"><ele>11.333333333333332</ele><time>2026-04-19T09:53:43.446Z</time></trkpt><trkpt lat="43.8912088" lon="12.9082561"><ele>11.166666666666666</ele><time>2026-04-19T09:53:44.456Z</time></trkpt><trkpt lat="43.8912673" lon="12.9082949"><ele>11.0</ele><time>2026-04-19T09:53:45.451Z</time></trkpt><trkpt lat="43.8913792" lon="12.9083419"><ele>11.0</ele><time>2026-04-19T09:53:47.443Z</time></trkpt><trkpt lat="43.8914797" lon="12.9083874"><ele>11.0</ele><time>2026-04-19T09:53:49.458Z</time></trkpt><trkpt lat="43.8915546" lon="12.9084796"><ele>11.0</ele><time>2026-04-19T09:53:51.455Z</time></trkpt><trkpt lat="43.8916222" lon="12.9085578"><ele>11.0</ele><time>2026-04-19T09:53:53.459Z</time></trkpt><trkpt lat="43.8917188" lon="12.9085889"><ele>11.0</ele><time>2026-04-19T09:53:55.448Z</time></trkpt><trkpt lat="43.8918175" lon="12.908566"><ele>11.0</ele><time>2026-04-19T09:53:57.448Z</time></trkpt><trkpt lat="43.8919078" lon="12.9084782"><ele>11.0</ele><time>2026-04-19T09:53:59.448Z</time></trkpt><trkpt lat="43.8920101" lon="12.9084242"><ele>11.0</ele><time>2026-04-19T09:54:01.462Z</time></trkpt><trkpt lat="43.8921321" lon="12.9084014"><ele>11.0</ele><time>2026-04-19T09:54:03.457Z</time></trkpt><trkpt lat="43.8922493" lon="12.908399"><ele>11.200000000000001</ele><time>2026-04-19T09:54:05.442Z</time></trkpt><trkpt lat="43.8923675" lon="12.9083894"><ele>11.4</ele><time>2026-04-19T09:54:07.444Z</time></trkpt><trkpt lat="43.8924832" lon="12.9083803"><ele>11.6</ele><time>2026-04-19T09:54:09.455Z</time></trkpt><trkpt lat="43.8925582" lon="12.9083849"><ele>11.8</ele><time>2026-04-19T09:54:10.454Z</time></trkpt><trkpt lat="43.8926636" lon="12.9083896"><ele>12.0</ele><time>2026-04-19T09:54:12.449Z</time></trkpt><trkpt lat="43.8927811" lon="12.9084264"><ele>11.4</ele><time>2026-04-19T09:54:14.447Z</time></trkpt><trkpt lat="43.8928452" lon="12.9084597"><ele>10.799999999999999</ele><time>2026-04-19T09:54:15.446Z</time></trkpt><trkpt lat="43.8929555" lon="12.908526"><ele>10.2</ele><time>2026-04-19T09:54:17.444Z</time></trkpt><trkpt lat="43.8930662" lon="12.9085907"><ele>9.6</ele><time>2026-04-19T09:54:19.464Z</time></trkpt><trkpt lat="43.8931745" lon="12.9086604"><ele>9.0</ele><time>2026-04-19T09:54:21.459Z</time></trkpt><trkpt lat="43.8932796" lon="12.9087209"><ele>9.0</ele><time>2026-04-19T09:54:23.458Z</time></trkpt><trkpt lat="43.8933869" lon="12.9087933"><ele>9.0</ele><time>2026-04-19T09:54:25.452Z</time></trkpt><trkpt lat="43.8934889" lon="12.9088632"><ele>9.0</ele><time>2026-04-19T09:54:27.444Z</time></trkpt><trkpt lat="43.893595" lon="12.908932"><ele>9.0</ele><time>2026-04-19T09:54:29.442Z</time></trkpt><trkpt lat="43.8936909" lon="12.9089985"><ele>9.2</ele><time>2026-04-19T09:54:31.454Z</time></trkpt><trkpt lat="43.8937851" lon="12.9090565"><ele>9.4</ele><time>2026-04-19T09:54:33.453Z</time></trkpt><trkpt lat="43.8938926" lon="12.9091251"><ele>9.6</ele><time>2026-04-19T09:54:35.456Z</time></trkpt><trkpt lat="43.8939941" lon="12.9091908"><ele>9.8</ele><time>2026-04-19T09:54:37.455Z</time></trkpt><trkpt lat="43.8940943" lon="12.9092579"><ele>10.0</ele><time>2026-04-19T09:54:39.445Z</time></trkpt><trkpt lat="43.8941947" lon="12.9093259"><ele>9.8</ele><time>2026-04-19T09:54:41.443Z</time></trkpt><trkpt lat="43.8942897" lon="12.9093871"><ele>9.6</ele><time>2026-04-19T09:54:43.453Z</time></trkpt><trkpt lat="43.8943912" lon="12.9094566"><ele>9.4</ele><time>2026-04-19T09:54:45.451Z</time></trkpt><trkpt lat="43.8944896" lon="12.9095171"><ele>9.2</ele><time>2026-04-19T09:54:47.444Z</time></trkpt><trkpt lat="43.8945897" lon="12.909573"><ele>9.0</ele><time>2026-04-19T09:54:49.464Z</time></trkpt><trkpt lat="43.8946814" lon="12.9096173"><ele>9.0</ele><time>2026-04-19T09:54:51.442Z</time></trkpt><trkpt lat="43.8947746" lon="12.9096715"><ele>9.0</ele><time>2026-04-19T09:54:53.446Z</time></trkpt><trkpt lat="43.8948523" lon="12.9097187"><ele>9.0</ele><time>2026-04-19T09:54:55.454Z</time></trkpt><trkpt lat="43.89493" lon="12.9097713"><ele>9.0</ele><time>2026-04-19T09:54:57.455Z</time></trkpt><trkpt lat="43.8950081" lon="12.909844"><ele>9.0</ele><time>2026-04-19T09:54:59.442Z</time></trkpt><trkpt lat="43.8951062" lon="12.9098916"><ele>8.8</ele><time>2026-04-19T09:55:01.445Z</time></trkpt><trkpt lat="43.895207" lon="12.9099366"><ele>8.600000000000001</ele><time>2026-04-19T09:55:03.45Z</time></trkpt><trkpt lat="43.8953026" lon="12.9099901"><ele>8.4</ele><time>2026-04-19T09:55:05.445Z</time></trkpt><trkpt lat="43.8954074" lon="12.9100442"><ele>8.200000000000001</ele><time>2026-04-19T09:55:07.445Z</time></trkpt><trkpt lat="43.8955062" lon="12.9101046"><ele>8.0</ele><time>2026-04-19T09:55:09.446Z</time></trkpt><trkpt lat="43.8956016" lon="12.9101617"><ele>7.999999999999999</ele><time>2026-04-19T09:55:11.453Z</time></trkpt><trkpt lat="43.8956866" lon="12.9102083"><ele>8.0</ele><time>2026-04-19T09:55:13.446Z</time></trkpt><trkpt lat="43.8957629" lon="12.910256"><ele>8.0</ele><time>2026-04-19T09:55:15.445Z</time></trkpt><trkpt lat="43.8958101" lon="12.9103183"><ele>8.0</ele><time>2026-04-19T09:55:18.449Z</time></trkpt><trkpt lat="43.895832" lon="12.9104196"><ele>7.999999999999999</ele><time>2026-04-19T09:55:22.458Z</time></trkpt><trkpt lat="43.895872" lon="12.9104932"><ele>8.0</ele><time>2026-04-19T09:55:25.451Z</time></trkpt><trkpt lat="43.8959372" lon="12.9105287"><ele>8.0</ele><time>2026-04-19T09:55:27.445Z</time></trkpt><trkpt lat="43.8960158" lon="12.9105163"><ele>8.0</ele><time>2026-04-19T09:55:29.45Z</time></trkpt><trkpt lat="43.8961076" lon="12.9104776"><ele>8.0</ele><time>2026-04-19T09:55:31.455Z</time></trkpt><trkpt lat="43.8961971" lon="12.9104657"><ele>8.0</ele><time>2026-04-19T09:55:33.441Z</time></trkpt><trkpt lat="43.8962827" lon="12.9105001"><ele>8.0</ele><time>2026-04-19T09:55:35.455Z</time></trkpt><trkpt lat="43.8963723" lon="12.9105483"><ele>7.999999999999999</ele><time>2026-04-19T09:55:37.444Z</time></trkpt><trkpt lat="43.8964635" lon="12.9105983"><ele>8.0</ele><time>2026-04-19T09:55:39.454Z</time></trkpt><trkpt lat="43.8965489" lon="12.9106468"><ele>8.0</ele><time>2026-04-19T09:55:41.444Z</time></trkpt><trkpt lat="43.8966317" lon="12.9106804"><ele>8.0</ele><time>2026-04-19T09:55:43.461Z</time></trkpt><trkpt lat="43.8967136" lon="12.910709"><ele>7.999999999999999</ele><time>2026-04-19T09:55:45.438Z</time></trkpt><trkpt lat="43.8967957" lon="12.9107541"><ele>8.0</ele><time>2026-04-19T09:55:47.441Z</time></trkpt><trkpt lat="43.8968707" lon="12.9108104"><ele>7.833333333333333</ele><time>2026-04-19T09:55:49.445Z</time></trkpt><trkpt lat="43.8969523" lon="12.9108524"><ele>7.666666666666666</ele><time>2026-04-19T09:55:51.456Z</time></trkpt><trkpt lat="43.8970212" lon="12.9108893"><ele>7.5</ele><time>2026-04-19T09:55:53.445Z</time></trkpt><trkpt lat="43.8970807" lon="12.9109433"><ele>7.333333333333334</ele><time>2026-04-19T09:55:59.445Z</time></trkpt><trkpt lat="43.8971705" lon="12.9109169"><ele>7.166666666666667</ele><time>2026-04-19T09:56:01.443Z</time></trkpt><trkpt lat="43.8971929" lon="12.9108309"><ele>7.0</ele><time>2026-04-19T09:56:10.439Z</time></trkpt><trkpt lat="43.897273" lon="12.9107793"><ele>7.000000000000001</ele><time>2026-04-19T09:56:13.446Z</time></trkpt><trkpt lat="43.8973655" lon="12.9107428"><ele>7.0</ele><time>2026-04-19T09:56:15.438Z</time></trkpt><trkpt lat="43.8974444" lon="12.9107102"><ele>7.0</ele><time>2026-04-19T09:56:17.439Z</time></trkpt><trkpt lat="43.89751" lon="12.9106721"><ele>7.0</ele><time>2026-04-19T09:56:19.438Z</time></trkpt><trkpt lat="43.8975765" lon="12.910643"><ele>7.000000000000001</ele><time>2026-04-19T09:56:21.445Z</time></trkpt><trkpt lat="43.8976436" lon="12.9106216"><ele>7.0</ele><time>2026-04-19T09:56:23.452Z</time></trkpt><trkpt lat="43.8977069" lon="12.9106122"><ele>7.166666666666667</ele><time>2026-04-19T09:56:25.439Z</time></trkpt><trkpt lat="43.897793" lon="12.91059"><ele>7.333333333333334</ele><time>2026-04-19T09:56:28.442Z</time></trkpt><trkpt lat="43.8978689" lon="12.9105778"><ele>7.5</ele><time>2026-04-19T09:56:31.447Z</time></trkpt><trkpt lat="43.8979511" lon="12.9105755"><ele>7.666666666666666</ele><time>2026-04-19T09:56:34.44Z</time></trkpt><trkpt lat="43.8980115" lon="12.9105274"><ele>7.833333333333333</ele><time>2026-04-19T09:56:37.442Z</time></trkpt><trkpt lat="43.8980653" lon="12.9105908"><ele>8.0</ele><time>2026-04-19T09:56:41.448Z</time></trkpt><trkpt lat="43.8980923" lon="12.9106749"><ele>8.0</ele><time>2026-04-19T09:56:43.442Z</time></trkpt><trkpt lat="43.8980848" lon="12.9107817"><ele>7.999999999999999</ele><time>2026-04-19T09:56:46.444Z</time></trkpt><trkpt lat="43.8980897" lon="12.9108688"><ele>8.0</ele><time>2026-04-19T09:56:51.45Z</time></trkpt><trkpt lat="43.8981187" lon="12.910954"><ele>8.0</ele><time>2026-04-19T09:56:56.44Z</time></trkpt><trkpt lat="43.8980904" lon="12.9110341"><ele>7.999999999999999</ele><time>2026-04-19T09:57:12.453Z</time></trkpt><trkpt lat="43.8980313" lon="12.9110779"><ele>8.0</ele><time>2026-04-19T09:57:21.453Z</time></trkpt><trkpt lat="43.8980206" lon="12.9109668"><ele>8.0</ele><time>2026-04-19T10:01:37.438Z</time></trkpt><trkpt lat="43.8980418" lon="12.9108616"><ele>8.0</ele><time>2026-04-19T10:01:41.446Z</time></trkpt><trkpt lat="43.8981032" lon="12.910911"><ele>7.0</ele><time>2026-04-19T10:01:59.444Z</time></trkpt><trkpt lat="43.8980395" lon="12.9109207"><ele>7.0</ele><time>2026-04-19T10:02:14.441Z</time></trkpt><trkpt lat="43.8980194" lon="12.9108299"><ele>8.0</ele><time>2026-04-19T10:02:23.441Z</time></trkpt><trkpt lat="43.8980389" lon="12.9110168"><ele>7.0</ele><time>2026-04-19T10:02:32.441Z</time></trkpt></trkseg></trk></gpx>